[[[{"header":{"parameterUnit":"kt","parameterCategory":2,"dx":1,"dy":1,"la1":29.587661999999998,"la2":31.0,"lo1":-88.76705300000003,"lo2":-86.6583820000003,"nx":115,"ny":88,"refTime":"2022-10-13T06:00:00:Z","depth":0,"parameterNumber":1,"parameterNumberName":"U-component_of_WINDS"},"data":[-9.005,-9.005,-9.005,-9.005,-9.005,-9.005,-9.005,-9.005,-9.005,-9.005,-9.005,-9.005,-9.005,-9.005,-9.005,-9.005,-9.005,-9.005,-9.005,-9.005,-9.005,-9.005,-9.005,-9.005,-9.005,-9.005,-9.005,-9.005,-9.005,-9.005,-9.005,-9.005,-9.005,-9.005,-9.005,-9.005,-9.005,-9.005,-9.005,-9.005,-9.005,-9.005,-9.005,-9.005,-9.005,-9.005,-9.005,-9.005,-9.005,-9.005,-9.005,-9.005,-9.005,-9.005,-9.005,-9.005,-9.005,-9.005,-9.005,-8.9884,-8.9767,-8.965,-8.9062,-8.8234,-8.7878,-8.7163,-8.6804,-8.6637,-8.6277,-8.6277,-8.6277,-8.6156,-8.5782,-8.5782,-8.5595,-8.4008,-8.2492,-8.0728,-7.9578,-7.9547,-7.9319,-7.7708,-7.5842,-7.5433,-7.5362,-7.4295,-7.3353,-7.2649,-7.1073,-6.9604,-6.8165,-6.7238,-6.6061,-6.5939,-6.5939,-6.5816,-6.5327,-6.5082,-6.4959,-6.4959,-6.4655,-6.3972,-6.3365,-6.3175,-6.2719,-6.2036,-6.1542,-6.1049,-6.0783,-6.0669,-6.0213,-6.0062,-5.9948,-5.9569,-5.9035,-9.0001,-9.005,-9.005,-9.005,-9.005,-9.005,-9.005,-9.005,-9.005,-9.005,-9.005,-9.005,-9.005,-9.005,-9.005,-9.005,-9.005,-9.005,-9.005,-9.005,-9.005,-9.005,-9.005,-9.005,-9.005,-9.005,-9.005,-9.005,-9.005,-9.005,-9.005,-9.005,-9.005,-9.005,-9.005,-9.005,-9.005,-9.005,-9.005,-9.005,-9.005,-9.005,-9.005,-9.005,-9.005,-9.005,-9.005,-9.005,-9.005,-9.005,-9.005,-9.005,-9.005,-9.005,-9.005,-9.005,-9.005,-9.005,-9.005,-9.005,-9.005,-8.9767,-8.9297,-8.8944,-8.8708,-8.8186,-8.7473,-8.6949,-8.6303,-8.6063,-8.6063,-8.5803,-8.5362,-8.4988,-8.4707,-8.398,-8.2583,-8.1122,-8.1031,-8.1077,-8.0177,-7.9077,-7.7847,-7.7116,-7.6294,-7.5257,-7.4358,-7.3777,-7.3193,-7.1977,-7.1108,-7.02,-6.7722,-6.6791,-6.6791,-6.6426,-6.5694,-6.5449,-6.4959,-6.4959,-6.4693,-6.3668,-6.2947,-6.2605,-6.196,-6.1277,-6.0707,-6.0517,-6.0327,-6.0213,-6.0062,-6.0062,-5.991,-5.9683,-5.9077,-8.9464,-9.0001,-9.005,-9.005,-9.005,-9.005,-9.005,-9.005,-9.005,-9.005,-9.005,-9.005,-9.005,-9.005,-9.005,-9.005,-9.005,-9.005,-9.005,-9.005,-9.005,-9.005,-9.005,-9.005,-9.005,-9.005,-9.005,-9.005,-9.005,-9.005,-9.005,-9.005,-9.005,-9.005,-9.005,-9.005,-9.005,-9.005,-9.005,-9.005,-9.005,-9.005,-9.005,-9.005,-9.005,-9.005,-9.005,-9.005,-9.005,-9.005,-9.005,-9.005,-9.005,-9.005,-9.005,-9.005,-9.005,-9.005,-9.005,-9.005,-9.005,-8.9767,-8.9415,-8.918,-8.9062,-8.789,-8.7256,-8.6477,-8.5721,-8.4966,-8.4848,-8.4848,-8.4333,-8.4006,-8.3726,-8.2978,-8.1669,-8.0893,-8.0827,-8.0921,-8.0368,-7.936,-7.9136,-7.8413,-7.83,-7.7278,-7.7733,-7.7392,-7.5975,-7.4663,-7.4431,-7.3267,-6.9046,-6.7277,-6.8044,-6.7682,-6.6878,-6.5861,-6.5204,-6.5227,-6.5052,-6.3652,-6.2264,-6.1466,-6.0783,-6.0365,-6.0365,-6.0251,-6.01,-6.0062,-6.0062,-6.0062,-6.0062,-5.991,-5.9569,-8.8928,-8.966,-8.9904,-9.005,-9.005,-9.005,-9.005,-9.005,-9.005,-9.005,-9.005,-9.005,-9.005,-9.005,-9.005,-9.005,-9.005,-9.005,-9.005,-9.005,-9.005,-9.005,-9.005,-9.005,-9.005,-9.005,-9.005,-9.005,-9.005,-9.005,-9.005,-9.005,-9.005,-9.005,-9.005,-9.005,-9.005,-9.005,-9.005,-9.005,-9.005,-9.005,-9.005,-9.005,-9.005,-9.005,-9.005,-9.005,-9.005,-9.005,-9.005,-9.005,-9.005,-9.005,-9.005,-9.005,-9.005,-9.005,-9.005,-9.005,-9.005,-8.9767,-8.965,-8.9415,-8.8744,-8.7545,-8.6456,-8.5638,-8.4821,-8.4026,-8.3537,-8.3374,-8.3118,-8.3047,-8.2813,-8.1528,-8.036,-8.0173,-8.0126,-8.0126,-8.0126,-8.0079,-8.0079,-7.9921,-8.0079,-8.0079,-8.0079,-7.936,-7.7574,-7.7005,-7.6548,-7.4315,-7.02,-6.9126,-6.9642,-6.9639,-6.8837,-6.7885,-6.6172,-6.5701,-6.5546,-6.3475,-6.1163,-6.0365,-6.0175,-6.0138,-6.0138,-6.0062,-6.0062,-6.0062,-6.0062,-6.0062,-6.0062,-5.9797,-5.9797,-8.8439,-8.8684,-8.9611,-8.9953,-9.005,-9.005,-9.005,-9.005,-9.005,-9.0001,-8.9953,-9.0001,-9.0001,-8.9806,-9.0001,-9.005,-9.005,-9.005,-9.005,-9.005,-9.005,-9.005,-9.005,-9.005,-9.005,-9.005,-9.005,-9.005,-9.005,-9.005,-9.005,-9.005,-9.005,-9.005,-9.005,-9.005,-9.005,-9.005,-9.005,-9.005,-9.005,-9.005,-9.005,-9.005,-9.005,-9.005,-9.005,-9.005,-9.005,-9.005,-9.005,-9.005,-9.005,-9.005,-9.005,-9.005,-9.005,-9.005,-9.005,-9.005,-9.005,-9.0001,-8.9884,-8.9475,-8.8184,-8.6822,-8.5478,-8.4456,-8.3456,-8.26,-8.2344,-8.2344,-8.2043,-8.1809,-8.1783,-8.1127,-8.0219,-8.0079,-8.0079,-8.0079,-8.0079,-8.0079,-8.0079,-8.0079,-8.0079,-8.0079,-7.9809,-7.9089,-7.8413,-7.8639,-7.7461,-7.5515,-7.3224,-7.2362,-7.215,-7.1069,-7.0459,-6.9146,-6.73,-6.6432,-6.5568,-6.3119,-6.0327,-6.0288,-6.0364,-6.0288,-6.0062,-6.0062,-6.0062,-6.0062,-6.0062,-6.0062,-5.991,-5.9532,-5.9418,-8.7219,-8.8391,-8.8879,-8.9464,-8.9953,-9.005,-9.005,-9.005,-9.005,-8.9562,-8.9172,-8.9708,-8.966,-8.9318,-8.9708,-9.0001,-9.0001,-8.9953,-9.0001,-8.9953,-9.005,-9.005,-9.005,-9.005,-9.005,-9.005,-9.005,-9.005,-9.005,-9.005,-9.005,-9.005,-9.005,-9.005,-9.005,-9.005,-9.005,-9.005,-9.005,-9.005,-9.005,-9.005,-9.005,-9.005,-9.005,-9.005,-9.005,-9.005,-9.005,-9.005,-9.005,-9.005,-9.005,-9.005,-9.005,-9.0001,-8.9953,-8.9904,-8.9806,-8.9855,-8.9953,-8.9855,-8.9416,-8.883,-8.7348,-8.5857,-8.4502,-8.3458,-8.2351,-8.1455,-8.1408,-8.1248,-8.0967,-8.0734,-8.064,-8.0612,-8.0313,-8.0079,-8.0079,-8.0079,-8.0079,-8.0079,-8.0079,-8.0079,-8.0079,-8.0079,-7.9697,-7.9089,-7.8977,-7.936,-7.8187,-7.7005,-7.6116,-7.502,-7.3417,-7.2296,-7.1438,-7.0158,-6.8433,-6.6791,-6.5428,-6.377,-6.2294,-6.1461,-6.0854,-6.0364,-6.0137,-6.0175,-6.0175,-6.0062,-6.0062,-6.0212,-6.0136,-5.9494,-5.8814,-8.6048,-8.7512,-8.8195,-8.8879,-8.9513,-8.9562,-8.9757,-8.9953,-8.9611,-8.9416,-8.8928,-8.9367,-8.9367,-8.8879,-8.9318,-8.9708,-8.9757,-8.9757,-8.9757,-8.9953,-9.005,-9.005,-9.005,-9.005,-9.005,-9.005,-9.005,-9.005,-9.005,-9.005,-9.005,-9.005,-9.005,-9.005,-9.005,-9.005,-9.005,-9.005,-9.005,-9.005,-9.005,-9.005,-9.005,-9.005,-9.005,-9.005,-9.005,-9.005,-9.005,-9.005,-9.005,-9.005,-9.005,-9.005,-9.0001,-9.0001,-8.966,-8.9416,-8.9123,-8.9074,-8.8928,-8.8635,-8.7903,-8.7024,-8.5891,-8.4506,-8.3274,-8.27,-8.1856,-8.1314,-8.1155,-8.0996,-8.079,-8.0537,-8.0313,-8.0266,-8.0219,-8.0079,-8.0079,-8.0079,-8.0079,-8.0079,-8.0079,-8.0079,-8.0079,-8.0079,-7.9809,-7.936,-7.9202,-7.9585,-7.9136,-7.9023,-7.8208,-7.7211,-7.5677,-7.3619,-7.2532,-7.1295,-6.9648,-6.8123,-6.737,-6.6389,-6.4474,-6.3082,-6.202,-6.1228,-6.059,-6.0477,-6.059,-6.0477,-6.0364,-6.0437,-6.0283,-5.9192,-5.844,-8.5169,-8.556,-8.7512,-8.8391,-8.8488,-8.8488,-8.9025,-8.9855,-8.8976,-8.9074,-8.9806,-8.8879,-8.9025,-8.9562,-8.8976,-8.9172,-8.9806,-8.8976,-8.9318,-8.9757,-8.9757,-8.9953,-8.9953,-9.005,-9.005,-9.005,-9.005,-9.005,-9.005,-9.005,-9.005,-9.005,-9.005,-9.005,-9.005,-9.005,-9.005,-9.005,-9.005,-9.005,-9.005,-9.005,-9.005,-9.005,-9.005,-9.005,-9.005,-9.005,-9.005,-9.005,-9.005,-9.005,-9.0001,-9.0001,-9.0001,-8.9708,-8.8879,-8.8098,-8.7463,-8.7366,-8.7219,-8.678,-8.5901,-8.5177,-8.4421,-8.3556,-8.2839,-8.2205,-8.1667,-8.1193,-8.0876,-8.0701,-8.0479,-8.0256,-8.0079,-8.0079,-8.0079,-8.0079,-8.0079,-8.0079,-8.0079,-8.0079,-8.0079,-8.0079,-8.0079,-7.9986,-7.9687,-7.924,-7.9492,-7.9986,-7.9127,-7.922,-7.8999,-7.8637,-7.7552,-7.5513,-7.4178,-7.305,-7.1347,-6.9898,-7.0083,-6.9392,-6.6384,-6.4039,-6.3171,-6.235,-6.1453,-6.1115,-6.1115,-6.1003,-6.0929,-6.081,-5.9935,-5.8889,-5.8292,-8.4486,-8.5218,-8.595,-8.7073,-8.8195,-8.761,-8.7951,-8.8928,-8.9367,-8.922,-8.9123,-8.9416,-8.9367,-8.9123,-8.9269,-8.9806,-8.9855,-8.8928,-8.8976,-8.9806,-8.9367,-8.9464,-8.9806,-9.005,-8.9953,-9.005,-9.005,-9.005,-9.005,-9.005,-9.005,-9.005,-9.005,-9.005,-9.005,-9.005,-9.005,-9.005,-9.005,-9.005,-9.005,-9.005,-9.005,-9.005,-9.005,-9.005,-9.005,-9.005,-9.005,-9.005,-9.005,-9.005,-8.9757,-8.9464,-8.8976,-8.8684,-8.8,-8.7219,-8.678,-8.6634,-8.5804,-8.5072,-8.4388,-8.3986,-8.3731,-8.3147,-8.2625,-8.22,-8.1587,-8.1208,-8.0876,-8.0367,-8.0256,-8.0144,-8.0079,-8.0079,-8.0079,-8.0079,-8.0079,-8.0079,-8.0079,-8.0079,-8.0079,-8.0079,-7.9939,-7.9705,-7.9472,-7.9705,-7.9892,-7.8817,-7.7835,-7.8069,-7.8053,-7.7431,-7.6546,-7.5778,-7.5171,-7.4516,-7.309,-7.1482,-7.1422,-7.0639,-6.7543,-6.4791,-6.442,-6.3757,-6.2685,-6.1902,-6.1902,-6.179,-6.1673,-6.0758,-5.9551,-5.9031,-5.8513,-8.3949,-8.4633,-8.4974,-8.5999,-8.7073,-8.6487,-8.6829,-8.7903,-8.8928,-8.9318,-8.9123,-8.922,-8.9025,-8.8635,-8.8781,-8.8684,-8.8586,-8.7854,-8.7903,-8.8684,-8.8195,-8.8635,-8.9123,-8.9416,-8.9611,-8.9904,-9.005,-9.005,-9.005,-9.005,-9.005,-9.005,-9.005,-9.0001,-9.0001,-9.005,-9.005,-9.005,-9.005,-9.005,-9.005,-9.005,-9.005,-9.005,-9.005,-9.005,-9.005,-9.005,-9.005,-9.005,-8.9416,-8.9416,-8.922,-8.8391,-8.7903,-8.761,-8.6829,-8.6243,-8.6194,-8.5706,-8.4925,-8.4242,-8.3656,-8.3656,-8.3559,-8.3123,-8.3014,-8.2748,-8.2419,-8.198,-8.1429,-8.1034,-8.0479,-8.0479,-8.0256,-8.0256,-8.0079,-8.0079,-8.0079,-8.0079,-8.0079,-8.0079,-8.0079,-8.0079,-7.9705,-7.9425,-7.8537,-7.863,-7.7835,-7.676,-7.6807,-7.7041,-7.6854,-7.6152,-7.5591,-7.503,-7.4423,-7.4142,-7.3438,-7.2676,-7.1841,-7.0956,-6.8833,-6.7327,-6.6242,-6.5258,-6.475,-6.4199,-6.3424,-6.2669,-6.2461,-6.1803,-6.0116,-5.9046,-5.8654,-8.3667,-8.3656,-8.4633,-8.5072,-8.5218,-8.5121,-8.5706,-8.6829,-8.7805,-8.8684,-8.9269,-8.8684,-8.8293,-8.8098,-8.7463,-8.7366,-8.7024,-8.6243,-8.6341,-8.7317,-8.7561,-8.7805,-8.8391,-8.8928,-8.9464,-8.9904,-9.005,-9.005,-9.005,-9.005,-9.005,-9.005,-9.0001,-8.9953,-8.9953,-8.9953,-9.0001,-9.005,-9.005,-9.005,-9.005,-9.005,-9.005,-8.9953,-8.9855,-8.9855,-8.9757,-8.966,-8.9416,-8.9416,-8.8879,-8.8439,-8.8244,-8.7317,-8.678,-8.6634,-8.5706,-8.5169,-8.5072,-8.4144,-8.3852,-8.3608,-8.3559,-8.3559,-8.3559,-8.3559,-8.345,-8.3293,-8.3075,-8.2857,-8.2748,-8.231,-8.154,-8.0987,-8.0654,-8.0479,-8.0144,-8.0079,-8.0079,-8.0079,-8.0079,-8.0079,-8.0079,-7.9939,-7.9472,-7.8677,-7.7648,-7.6433,-7.5264,-7.503,-7.6012,-7.6106,-7.5778,-7.5264,-7.4937,-7.4329,-7.4002,-7.3909,-7.3712,-7.3505,-7.2884,-7.2109,-7.1166,-7.0111,-6.8726,-6.7327,-6.6785,-6.6459,-6.6531,-6.6277,-6.5037,-6.2573,-6.0553,-5.9089,-5.876,-8.3943,-8.3559,-8.39,-8.3998,-8.4047,-8.3998,-8.4633,-8.556,-8.5999,-8.6731,-8.7659,-8.7415,-8.7219,-8.717,-8.6716,-8.657,-8.6438,-8.6341,-8.6926,-8.7268,-8.7659,-8.8586,-8.922,-8.9513,-8.9318,-8.9904,-9.005,-9.005,-9.005,-9.005,-8.9904,-8.9855,-9.0001,-8.9416,-8.9123,-8.8928,-8.9269,-8.9855,-9.005,-9.005,-8.9953,-8.9904,-8.9904,-8.9806,-8.9172,-8.9172,-8.9367,-8.8684,-8.8391,-8.8342,-8.7951,-8.7366,-8.6878,-8.6341,-8.5755,-8.5267,-8.473,-8.4047,-8.3998,-8.3705,-8.3559,-8.3559,-8.3559,-8.3559,-8.3559,-8.3559,-8.3559,-8.3559,-8.3184,-8.2748,-8.2638,-8.209,-8.1319,-8.1208,-8.0876,-8.0479,-8.0256,-8.0079,-8.0079,-8.0079,-8.0079,-8.0079,-8.0032,-7.9845,-7.9238,-7.8209,-7.7041,-7.5638,-7.4376,-7.4469,-7.5264,-7.5077,-7.4843,-7.461,-7.4376,-7.4142,-7.3909,-7.3815,-7.3815,-7.3815,-7.3815,-7.3609,-7.278,-7.1586,-7.0322,-6.926,-6.8639,-6.8445,-6.8821,-6.9355,-6.643,-6.3356,-6.1416,-5.9934,-5.9426,-8.4375,-8.3943,-8.4209,-8.4101,-8.3835,-8.3835,-8.4118,-8.4535,-8.4974,-8.556,-8.6194,-8.6536,-8.6536,-8.6194,-8.6097,-8.595,-8.556,-8.5511,-8.5804,-8.639,-8.6682,-8.7219,-8.8,-8.8293,-8.9025,-8.9367,-8.9855,-9.005,-8.9953,-9.005,-8.9757,-8.8928,-8.8586,-8.8244,-8.8049,-8.7805,-8.8049,-8.8537,-8.8684,-8.8732,-8.8732,-8.8732,-8.8732,-8.8732,-8.7951,-8.8244,-8.8488,-8.7317,-8.7317,-8.7317,-8.6682,-8.6292,-8.5999,-8.5072,-8.4584,-8.4388,-8.4047,-8.3656,-8.3608,-8.3608,-8.3559,-8.3559,-8.3559,-8.3559,-8.3559,-8.3559,-8.3559,-8.3559,-8.3341,-8.3123,-8.2857,-8.209,-8.1319,-8.1145,-8.0812,-8.0479,-8.0144,-8.0191,-8.0079,-8.0032,-8.0032,-7.9939,-7.9845,-7.9659,-7.863,-7.7648,-7.6339,-7.5124,-7.4376,-7.4142,-7.4329,-7.4236,-7.4236,-7.4049,-7.4049,-7.3955,-7.3815,-7.3815,-7.3815,-7.3815,-7.3815,-7.3815,-7.3609,-7.278,-7.1586,-7.1376,-7.0971,-7.0536,-7.0461,-7.0802,-6.8521,-6.4837,-6.2747,-6.1008,-5.9897,-8.507,-8.4591,-8.507,-8.4962,-8.4483,-8.4483,-8.4159,-8.408,-8.4694,-8.5085,-8.5231,-8.5853,-8.5706,-8.5218,-8.4974,-8.4584,-8.3705,-8.3656,-8.4193,-8.4144,-8.39,-8.5121,-8.5999,-8.6926,-8.7463,-8.8342,-8.8879,-8.9367,-8.9611,-8.922,-8.8342,-8.7073,-8.7317,-8.6926,-8.6682,-8.6878,-8.7073,-8.6829,-8.717,-8.7008,-8.7073,-8.7073,-8.7024,-8.6975,-8.678,-8.6682,-8.678,-8.639,-8.6341,-8.6536,-8.5609,-8.5072,-8.4925,-8.4242,-8.39,-8.3852,-8.3608,-8.3559,-8.3559,-8.3559,-8.3559,-8.3559,-8.3559,-8.3559,-8.3559,-8.3559,-8.3559,-8.3559,-8.345,-8.345,-8.3341,-8.2857,-8.2028,-8.1587,-8.0923,-8.0479,-8.0144,-8.0032,-7.9986,-8.0032,-7.9892,-7.9659,-7.9472,-7.8396,-7.7368,-7.6573,-7.5358,-7.4703,-7.4002,-7.3815,-7.3815,-7.3815,-7.3815,-7.3815,-7.3815,-7.3815,-7.3815,-7.3815,-7.3815,-7.3815,-7.3815,-7.3815,-7.3815,-7.3195,-7.2884,-7.3402,-7.3412,-7.1489,-7.053,-7.1684,-7.091,-6.7417,-6.4879,-6.3012,-6.1167,-8.5818,-8.5711,-8.5818,-8.5605,-8.507,-8.507,-8.4962,-8.4797,-8.472,-8.4553,-8.4543,-8.4461,-8.4291,-8.3998,-8.3998,-8.39,-8.3608,-8.4388,-8.4681,-8.5072,-8.5511,-8.5853,-8.5999,-8.6341,-8.6829,-8.717,-8.7707,-8.7659,-8.7659,-8.7512,-8.7268,-8.678,-8.639,-8.6194,-8.595,-8.6048,-8.6146,-8.5657,-8.6194,-8.6487,-8.6536,-8.6585,-8.6585,-8.6438,-8.6097,-8.5901,-8.6292,-8.5413,-8.4974,-8.5169,-8.4584,-8.4096,-8.4096,-8.3754,-8.3559,-8.3559,-8.3559,-8.3559,-8.3559,-8.3559,-8.3559,-8.3559,-8.3559,-8.3559,-8.3559,-8.3559,-8.3559,-8.3559,-8.3559,-8.3559,-8.3341,-8.2687,-8.2138,-8.1587,-8.1034,-8.0479,-8.0144,-7.9845,-7.9705,-7.9612,-7.9425,-7.9238,-7.8209,-7.7087,-7.6199,-7.5451,-7.4843,-7.4189,-7.3955,-7.3815,-7.3815,-7.3815,-7.3815,-7.3815,-7.3815,-7.3815,-7.3815,-7.3815,-7.3815,-7.3815,-7.3815,-7.3815,-7.3815,-7.3815,-7.3712,-7.3581,-7.302,-7.1524,-7.0164,-7.0261,-6.986,-6.7884,-6.6743,-6.5029,-6.3094,-8.6455,-8.6455,-8.6455,-8.6137,-8.5655,-8.5655,-8.5391,-8.4962,-8.4855,-8.4532,-8.4051,-8.3943,-8.3727,-8.3716,-8.3559,-8.3559,-8.3705,-8.4096,-8.4437,-8.4535,-8.4828,-8.5218,-8.5511,-8.5804,-8.6048,-8.6194,-8.639,-8.6341,-8.5462,-8.5365,-8.5365,-8.5267,-8.5267,-8.5072,-8.4584,-8.5072,-8.4925,-8.4877,-8.5023,-8.5365,-8.5365,-8.5316,-8.5316,-8.5267,-8.473,-8.4779,-8.4925,-8.3998,-8.3998,-8.4096,-8.3998,-8.3559,-8.3559,-8.3559,-8.3559,-8.3559,-8.3559,-8.3559,-8.3559,-8.3559,-8.3559,-8.3559,-8.3559,-8.3559,-8.3559,-8.3559,-8.3559,-8.3559,-8.3559,-8.3559,-8.345,-8.2687,-8.2248,-8.1698,-8.1145,-8.0701,-8.0209,-7.9816,-7.9331,-7.9144,-7.8864,-7.7882,-7.6854,-7.5825,-7.4937,-7.4516,-7.4236,-7.3909,-7.3862,-7.3815,-7.3815,-7.3815,-7.3815,-7.3815,-7.3815,-7.3815,-7.3815,-7.3815,-7.3815,-7.3815,-7.3815,-7.3768,-7.3815,-7.3815,-7.3348,-7.2787,-7.2272,-7.1244,-7.0215,-6.9231,-6.8275,-6.7999,-6.7616,-6.596,-6.3784,-8.6878,-8.6878,-8.6878,-8.6616,-8.6243,-8.6243,-8.5555,-8.4913,-8.5177,-8.4748,-8.3992,-8.4051,-8.3943,-8.3667,-8.3559,-8.3559,-8.3559,-8.3705,-8.3754,-8.3754,-8.3852,-8.39,-8.3852,-8.4584,-8.4877,-8.5023,-8.5804,-8.5121,-8.44,-8.3961,-8.3705,-8.3803,-8.39,-8.3608,-8.3803,-8.3998,-8.3559,-8.3608,-8.3656,-8.3705,-8.3705,-8.3754,-8.3754,-8.3754,-8.3705,-8.3803,-8.3852,-8.3803,-8.3608,-8.3656,-8.3608,-8.3559,-8.3559,-8.3559,-8.3559,-8.3559,-8.3559,-8.3559,-8.3559,-8.3559,-8.3559,-8.3559,-8.3559,-8.3559,-8.3559,-8.3559,-8.3559,-8.3559,-8.3559,-8.3559,-8.345,-8.2966,-8.2468,-8.1918,-8.1477,-8.0812,-8.0291,-8.0025,-7.8833,-7.8396,-7.7134,-7.6199,-7.5685,-7.4656,-7.3815,-7.3815,-7.3815,-7.3815,-7.3815,-7.3815,-7.3815,-7.3815,-7.3815,-7.3815,-7.3815,-7.3815,-7.3815,-7.3815,-7.3815,-7.3815,-7.3675,-7.3488,-7.3628,-7.3301,-7.2506,-7.1898,-7.1431,-7.087,-7.0262,-6.9249,-6.8019,-6.7848,-6.8019,-6.6367,-6.4315,-8.6878,-8.6878,-8.6878,-8.6827,-8.6772,-8.6722,-8.651,-8.6299,-8.5605,-8.5227,-8.4855,-8.4209,-8.3727,-8.3667,-8.3667,-8.3667,-8.3559,-8.3667,-8.3667,-8.3667,-8.3667,-8.3667,-8.3667,-8.3803,-8.4107,-8.4314,-8.4547,-8.4118,-8.3943,-8.3727,-8.3667,-8.3559,-8.3559,-8.3559,-8.3559,-8.3559,-8.3559,-8.3559,-8.3559,-8.3559,-8.3559,-8.3559,-8.3559,-8.3559,-8.3559,-8.3559,-8.3559,-8.3559,-8.3559,-8.3559,-8.3559,-8.3559,-8.3559,-8.3559,-8.3559,-8.3559,-8.3559,-8.3559,-8.3559,-8.3559,-8.3559,-8.3559,-8.3559,-8.3559,-8.3559,-8.3559,-8.3559,-8.3559,-8.3559,-8.3559,-8.3412,-8.2966,-8.259,-8.2214,-8.1617,-8.1066,-8.0449,-7.9146,-7.7865,-7.676,-7.5404,-7.475,-7.4563,-7.3815,-7.3815,-7.3815,-7.3815,-7.3815,-7.3815,-7.3815,-7.3815,-7.3815,-7.3815,-7.3815,-7.3815,-7.3815,-7.3815,-7.3815,-7.3815,-7.3815,-7.3581,-7.3207,-7.302,-7.288,-7.1945,-7.0683,-7.0589,-7.0169,-6.9748,-6.8981,-6.7814,-6.7466,-6.7958,-6.6853,-6.507,-8.6878,-8.6878,-8.6878,-8.6878,-8.6878,-8.6878,-8.6772,-8.6561,-8.6243,-8.5868,-8.5334,-8.4962,-8.4748,-8.4532,-8.4425,-8.4425,-8.4425,-8.4425,-8.4209,-8.4051,-8.4317,-8.4317,-8.3943,-8.4317,-8.4425,-8.4317,-8.3884,-8.3776,-8.3943,-8.3776,-8.3667,-8.3559,-8.3559,-8.3559,-8.3559,-8.3667,-8.3559,-8.3559,-8.3559,-8.3559,-8.3559,-8.3559,-8.3559,-8.3559,-8.3559,-8.3559,-8.3559,-8.3559,-8.3559,-8.3667,-8.3559,-8.3559,-8.3559,-8.3559,-8.3559,-8.3559,-8.3559,-8.3559,-8.3559,-8.3559,-8.3559,-8.3559,-8.3559,-8.3559,-8.3559,-8.351,-8.3559,-8.3559,-8.3559,-8.3472,-8.2827,-8.2514,-8.1948,-8.1286,-8.0985,-8.0348,-7.9318,-7.7236,-7.6142,-7.5264,-7.4667,-7.4293,-7.3918,-7.3918,-7.3918,-7.3815,-7.3815,-7.3815,-7.3815,-7.3815,-7.3815,-7.3815,-7.3815,-7.3815,-7.3815,-7.3815,-7.3815,-7.3815,-7.3815,-7.3815,-7.3581,-7.2927,-7.26,-7.1992,-7.0683,-6.9187,-6.9093,-6.9421,-6.9187,-6.8761,-6.7949,-6.7475,-6.7957,-6.7672,-6.6045,-8.6878,-8.6878,-8.6878,-8.6878,-8.6878,-8.6878,-8.6616,-8.6349,-8.651,-8.6243,-8.5548,-8.5711,-8.5498,-8.5334,-8.5334,-8.5334,-8.5119,-8.5119,-8.4962,-8.4748,-8.4855,-8.4962,-8.464,-8.4748,-8.5177,-8.5227,-8.4748,-8.4159,-8.4209,-8.3884,-8.4101,-8.3992,-8.3884,-8.4267,-8.4267,-8.3776,-8.3776,-8.4483,-8.3835,-8.3667,-8.3559,-8.3559,-8.3559,-8.3559,-8.3559,-8.3776,-8.3943,-8.3884,-8.3776,-8.3943,-8.3776,-8.3776,-8.4051,-8.4159,-8.4159,-8.4267,-8.4267,-8.4051,-8.3667,-8.3559,-8.3559,-8.351,-8.3374,-8.3217,-8.3168,-8.3022,-8.2631,-8.2729,-8.268,-8.2583,-8.1908,-8.1704,-8.1005,-8.0162,-7.9676,-7.9009,-7.7487,-7.5678,-7.4339,-7.464,-7.4452,-7.4068,-7.4021,-7.4021,-7.3918,-7.3815,-7.3815,-7.3815,-7.3815,-7.3815,-7.3815,-7.3815,-7.3815,-7.3815,-7.3815,-7.3815,-7.3581,-7.3535,-7.3301,-7.3301,-7.2553,-7.2226,-7.1524,-7.0402,-6.914,-6.8579,-6.8343,-6.8297,-6.8437,-6.886,-6.8345,-6.7643,-6.7735,-6.7731,-6.631,-8.6878,-8.6878,-8.6878,-8.6878,-8.6878,-8.6878,-8.6878,-8.6667,-8.6455,-8.6243,-8.5924,-8.5548,-8.5655,-8.5441,-8.5441,-8.5334,-8.5334,-8.5441,-8.5441,-8.5177,-8.5391,-8.5284,-8.5177,-8.507,-8.5341,-8.651,-8.5874,-8.5711,-8.5605,-8.5334,-8.5448,-8.507,-8.4698,-8.5291,-8.5986,-8.5077,-8.4375,-8.5291,-8.4267,-8.3559,-8.3559,-8.3776,-8.3835,-8.3943,-8.4051,-8.4756,-8.5398,-8.4698,-8.4267,-8.5505,-8.4375,-8.4483,-8.5234,-8.5717,-8.5717,-8.5717,-8.5505,-8.4814,-8.3796,-8.3521,-8.3521,-8.351,-8.2885,-8.2348,-8.2103,-8.1606,-8.1265,-8.0964,-8.1013,-8.0915,-8.0679,-8.0581,-8.0379,-7.9892,-7.8478,-7.7653,-7.6811,-7.5195,-7.4479,-7.4581,-7.4581,-7.4376,-7.4227,-7.4021,-7.3918,-7.3815,-7.3815,-7.3815,-7.3815,-7.3815,-7.3815,-7.3815,-7.3815,-7.3815,-7.3768,-7.3722,-7.3161,-7.288,-7.2459,-7.1805,-7.0823,-7.0496,-6.9935,-6.8813,-6.8626,-6.8813,-6.867,-6.8297,-6.8297,-6.8813,-6.8532,-6.7783,-6.7596,-6.7596,-6.6791,-8.8656,-8.8552,-8.7353,-8.6878,-8.6878,-8.6878,-8.6878,-8.6827,-8.6616,-8.6561,-8.6455,-8.6243,-8.6137,-8.6137,-8.6137,-8.6243,-8.6137,-8.6137,-8.6031,-8.5868,-8.6031,-8.6031,-8.5711,-8.5605,-8.5555,-8.6299,-8.6722,-8.6882,-8.7197,-8.7511,-8.772,-8.7773,-8.7618,-8.7513,-8.6936,-8.6036,-8.5505,-8.5291,-8.4051,-8.3559,-8.3835,-8.4698,-8.5398,-8.5398,-8.6515,-8.7304,-8.7878,-8.6303,-8.593,-8.6354,-8.662,-8.7041,-8.7669,-8.7565,-8.6831,-8.6354,-8.6142,-8.5092,-8.3636,-8.3381,-8.3397,-8.1957,-8.2255,-8.1749,-8.1133,-8.0728,-8.0233,-8.0233,-8.0135,-7.994,-7.9605,-7.9508,-7.9117,-7.8629,-7.7702,-7.7214,-7.6964,-7.5704,-7.4991,-7.5297,-7.5093,-7.4684,-7.4329,-7.4021,-7.3815,-7.3815,-7.3815,-7.3815,-7.3815,-7.3815,-7.3815,-7.3815,-7.3815,-7.3768,-7.3722,-7.3254,-7.2646,-7.2132,-7.1665,-7.073,-6.9841,-6.9187,-6.8437,-6.8157,-6.8065,-6.8343,-6.853,-6.8343,-6.8157,-6.8392,-6.8299,-6.7925,-6.7596,-6.7596,-6.6981,-9.0854,-9.0699,-8.8656,-8.772,-8.7616,-8.7248,-8.7143,-8.7088,-8.6932,-8.7038,-8.7353,-8.7458,-8.7667,-8.8033,-8.8137,-8.7616,-8.7562,-8.7458,-8.6932,-8.6455,-8.6772,-8.6772,-8.6932,-8.7458,-8.7458,-8.772,-8.8293,-8.8552,-8.8759,-8.9683,-9.0294,-9.0192,-8.9887,-8.9683,-8.8604,-8.8293,-8.6725,-8.5986,-8.5398,-8.5398,-8.5774,-8.6831,-8.746,-8.746,-8.8759,-8.9732,-8.9785,-8.8449,-8.7669,-8.7826,-8.7983,-8.7983,-8.8698,-8.8236,-8.7414,-8.6901,-8.6642,-8.5505,-8.3545,-8.335,-8.2947,-8.1312,-8.1381,-8.1237,-7.9996,-7.9648,-7.9605,-7.9551,-7.9654,-7.9117,-7.8532,-7.8434,-7.8092,-7.7653,-7.7263,-7.7165,-7.7065,-7.6311,-7.6008,-7.6008,-7.55,-7.4684,-7.4376,-7.4124,-7.3815,-7.3815,-7.3815,-7.3815,-7.3815,-7.3815,-7.3815,-7.3815,-7.3768,-7.3628,-7.3301,-7.2459,-7.1852,-7.1337,-7.0776,-6.9982,-6.9374,-6.8719,-6.811,-6.7783,-6.7596,-6.7643,-6.7923,-6.7783,-6.7877,-6.7737,-6.7643,-6.7596,-6.7596,-6.7596,-6.7266,-9.2942,-9.2843,-9.1204,-9.055,-9.0143,-8.8604,-8.7927,-8.7718,-8.7404,-8.7772,-8.8915,-8.9121,-8.948,-9.1257,-9.0347,-9.0298,-8.8915,-8.8604,-8.7876,-8.7143,-8.6932,-8.7772,-8.8915,-8.994,-9.0448,-9.0651,-9.1156,-9.1257,-9.1304,-9.1505,-9.1659,-9.1805,-9.1404,-9.1759,-9.1959,-9.0699,-9.08,-9.0699,-8.9376,-8.85,-8.8604,-8.9273,-8.9478,-8.9273,-8.9887,-9.08,-9.1103,-9.0192,-8.9627,-9.1204,-8.7106,-8.7457,-8.9404,-8.7513,-8.6946,-8.7885,-8.7696,-8.69,-8.5342,-8.3528,-8.2562,-8.1852,-8.0187,-7.9025,-7.898,-7.8592,-7.8252,-7.8454,-7.7607,-7.8157,-7.796,-7.7661,-7.7664,-7.7514,-7.7465,-7.7265,-7.7165,-7.7065,-7.6964,-7.6915,-7.6008,-7.55,-7.4991,-7.4534,-7.3918,-7.4021,-7.3535,-7.3628,-7.3722,-7.288,-7.2413,-7.3114,-7.3488,-7.3394,-7.2553,-7.1618,-7.101,-7.0543,-6.9935,-6.928,-6.8626,-6.825,-6.7783,-6.7596,-6.7596,-6.7596,-6.7596,-6.7596,-6.7643,-6.7596,-6.7596,-6.7596,-6.7596,-6.7596,-6.7596,-9.4463,-9.4074,-9.2258,-9.1458,-9.1257,-9.0448,-9.0094,-8.989,-8.8863,-8.9275,-9.0298,-8.984,-8.984,-9.0298,-9.04,-8.948,-8.8085,-8.798,-8.7667,-8.6932,-8.6987,-8.8397,-9.0347,-9.131,-9.1759,-9.1859,-9.2709,-9.3105,-9.3302,-9.4184,-9.4476,-9.4379,-9.4324,-9.3989,-9.3891,-9.2303,-9.1805,-9.1304,-9.0545,-8.9834,-8.9785,-9.1103,-9.1404,-9.1404,-9.2799,-9.3739,-9.4032,-9.2303,-9.1502,-9.1682,-9.0408,-8.9408,-9.0561,-8.9307,-8.8419,-8.7936,-8.7839,-8.6691,-8.4752,-8.3657,-8.2408,-8.0904,-8.0004,-7.9206,-7.9107,-7.8858,-7.9053,-7.9543,-8.0078,-8.0175,-8.0175,-8.0272,-7.9739,-7.8807,-7.9249,-7.9445,-7.8609,-7.7765,-7.7165,-7.6815,-7.6714,-7.6513,-7.4991,-7.5147,-7.4739,-7.4039,-7.3365,-7.3263,-7.3318,-7.1337,-7.0449,-7.2085,-7.2927,-7.2413,-7.1665,-7.0589,-6.9841,-6.9608,-6.9093,-6.8392,-6.8018,-6.7783,-6.7596,-6.7596,-6.7596,-6.7596,-6.7596,-6.7596,-6.7596,-6.7596,-6.7596,-6.7596,-6.7596,-6.7596,-6.7596,-9.5382,-9.4666,-9.2848,-9.2027,-9.1832,-9.1143,-9.0891,-9.0846,-8.9549,-8.9743,-9.0891,-9.0203,-9.0096,-9.0349,-9.0449,-8.966,-8.8852,-8.8548,-8.8293,-8.8138,-8.7622,-8.8843,-9.0945,-9.2103,-9.2822,-9.3346,-9.4379,-9.492,-9.5016,-9.5882,-9.6358,-9.6699,-9.6263,-9.5634,-9.4421,-9.4227,-9.3248,-9.2005,-9.1805,-9.1705,-9.1805,-9.3346,-9.3891,-9.3543,-9.482,-9.5511,-9.5377,-9.351,-9.2503,-9.2627,-9.1499,-9.0629,-9.0574,-8.9537,-8.8516,-8.8047,-8.7818,-8.6832,-8.5188,-8.4361,-8.3227,-8.1244,-8.1006,-8.042,-8.0323,-8.0323,-8.0517,-8.0756,-8.143,-8.1334,-8.1045,-8.1141,-8.0852,-7.9934,-8.1238,-8.1812,-8.0226,-7.8412,-7.7116,-7.7067,-7.7567,-7.6472,-7.507,-7.4421,-7.4481,-7.3597,-7.2682,-7.2011,-7.2146,-7.0912,-6.9467,-7.1104,-7.1571,-7.1197,-7.0683,-6.9561,-6.8906,-6.8766,-6.8392,-6.7785,-6.7643,-6.7596,-6.7596,-6.7596,-6.7596,-6.7596,-6.7596,-6.7596,-6.7596,-6.7596,-6.7596,-6.7596,-6.7596,-6.7596,-6.7596,-9.5534,-9.4798,-9.3267,-9.2427,-9.1926,-9.0178,-8.9565,-8.9169,-8.8591,-8.9331,-9.0572,-9.0547,-9.1139,-9.2334,-9.2055,-9.1651,-9.1929,-9.1266,-9.0918,-9.064,-8.9478,-8.9246,-9.1186,-9.3095,-9.4404,-9.5433,-9.5887,-9.6133,-9.5774,-9.6059,-9.6643,-9.6361,-9.6304,-9.6341,-9.5774,-9.6246,-9.5736,-9.5243,-9.5601,-9.5506,-9.5506,-9.6038,-9.5809,-9.5275,-9.4516,-9.405,-9.3545,-9.2558,-9.1982,-9.1759,-8.906,-8.8343,-8.8915,-8.7248,-8.7374,-8.8834,-8.8554,-8.8019,-8.7784,-8.597,-8.4794,-8.4315,-8.3234,-8.2804,-8.2236,-8.2098,-8.1812,-8.0904,-8.0807,-7.9934,-7.9249,-7.9836,-8.042,-8.0128,-8.2762,-8.3609,-8.1717,-7.9151,-7.7867,-7.8065,-7.7817,-7.6628,-7.4067,-7.3372,-7.3343,-7.2822,-7.1997,-7.1484,-7.1388,-7.0293,-6.9289,-6.914,-6.9374,-6.928,-6.9608,-6.8579,-6.8299,-6.8159,-6.7972,-6.7596,-6.7596,-6.7596,-6.7596,-6.7596,-6.7596,-6.7596,-6.7596,-6.7596,-6.7596,-6.7596,-6.7596,-6.7596,-6.7596,-6.7596,-6.7596,-9.4147,-9.364,-9.3097,-9.2733,-9.2515,-9.1814,-9.1444,-9.1258,-9.0134,-9.051,-9.1537,-9.1034,-9.094,-9.1314,-9.1407,-9.0786,-8.9728,-8.9686,-9.067,-9.2029,-9.1387,-9.1444,-9.2111,-9.3205,-9.3896,-9.4271,-9.4235,-9.4235,-9.4235,-9.4235,-9.4235,-9.4291,-9.4327,-9.4384,-9.4327,-9.4327,-9.4327,-9.4235,-9.4291,-9.4142,-9.392,-9.4049,-9.4106,-9.3584,-9.3377,-9.3189,-9.2928,-9.1222,-9.0299,-9.0008,-8.9046,-8.8408,-8.8677,-8.8019,-8.7597,-8.8098,-8.7831,-8.7708,-8.7384,-8.5881,-8.454,-8.4315,-8.314,-8.2521,-8.3328,-8.3796,-8.4169,-8.4315,-8.454,-8.491,-8.4301,-8.4818,-8.4447,-8.3421,-8.5132,-8.61,-8.5278,-8.2236,-7.9763,-7.7976,-7.7909,-7.7086,-7.5781,-7.5058,-7.5052,-7.3075,-7.1871,-7.1245,-7.0245,-6.9012,-6.8397,-6.8112,-6.8065,-6.8159,-6.8157,-6.797,-6.7643,-6.7596,-6.7596,-6.7596,-6.7596,-6.7596,-6.7596,-6.7596,-6.7596,-6.7596,-6.7596,-6.7596,-6.7596,-6.7596,-6.7596,-6.7596,-6.7596,-6.7596,-6.7596,-9.2647,-9.2144,-9.2055,-9.1875,-9.1695,-9.1752,-9.1695,-9.1662,-9.0607,-9.0698,-9.1481,-9.0663,-9.0204,-9.0149,-9.0149,-8.9761,-8.9007,-8.8625,-8.9633,-9.1425,-9.1695,-9.1639,-9.1752,-9.2147,-9.2316,-9.2372,-9.2655,-9.288,-9.2937,-9.2937,-9.288,-9.288,-9.2937,-9.288,-9.2993,-9.288,-9.288,-9.288,-9.288,-9.2698,-9.2423,-9.2754,-9.2845,-9.2423,-9.2303,-9.209,-9.1785,-9.0115,-8.9213,-8.9269,-8.9125,-8.8805,-8.8541,-8.8452,-8.8364,-8.8186,-8.7831,-8.7797,-8.7563,-8.6482,-8.5736,-8.5461,-8.4725,-8.4633,-8.5332,-8.579,-8.5973,-8.6118,-8.7024,-8.7149,-8.6879,-8.7059,-8.6439,-8.5297,-8.6045,-8.6409,-8.5681,-8.3854,-8.1151,-7.861,-7.8351,-7.7409,-7.5672,-7.4823,-7.4248,-7.2769,-7.1525,-7.1654,-7.1422,-7.0786,-6.91,-6.8445,-6.7691,-6.769,-6.783,-6.7737,-6.7596,-6.7596,-6.7596,-6.7596,-6.7596,-6.7596,-6.7596,-6.7596,-6.7596,-6.7596,-6.7596,-6.7596,-6.7596,-6.7596,-6.7596,-6.7596,-6.7596,-6.7596,-6.7596,-9.1001,-9.06,-9.0083,-8.9789,-8.9639,-8.9551,-8.9325,-8.9495,-8.935,-8.9431,-8.972,-8.935,-8.9343,-8.935,-8.9399,-8.9826,-9.0233,-8.947,-8.9287,-8.9608,-8.9495,-8.9495,-8.9608,-9.0567,-9.1018,-9.1075,-9.2203,-9.2711,-9.2542,-9.2485,-9.2542,-9.2711,-9.2542,-9.2429,-9.2767,-9.2485,-9.2655,-9.2542,-9.2485,-9.2598,-9.2824,-9.2598,-9.2542,-9.2485,-9.1493,-9.0567,-8.9438,-8.9269,-8.9213,-8.9213,-8.8805,-8.8452,-8.8541,-8.8541,-8.8573,-8.8868,-8.9012,-8.9012,-8.8956,-8.858,-8.806,-8.7972,-8.8636,-8.7652,-8.733,-8.753,-8.6941,-8.5537,-8.541,-8.5062,-8.3849,-8.4771,-8.5422,-8.4515,-8.4864,-8.4923,-8.45,-8.3961,-8.2901,-8.0524,-7.933,-7.7353,-7.379,-7.3028,-7.3101,-7.2589,-7.1694,-7.1786,-7.4003,-7.3403,-7.1761,-7.0533,-6.8865,-6.7785,-6.7596,-6.7691,-6.7691,-6.7596,-6.7596,-6.7596,-6.7596,-6.7596,-6.7596,-6.7596,-6.7596,-6.7596,-6.7596,-6.7596,-6.7596,-6.7596,-6.7596,-6.7596,-6.7596,-6.7596,-6.7596,-9.0285,-8.9736,-8.9506,-8.9388,-8.9213,-8.9213,-8.9213,-8.9213,-8.9213,-8.9213,-8.9213,-8.9213,-8.9213,-8.9213,-8.9213,-8.9438,-8.9664,-8.9438,-8.9213,-8.9213,-8.9213,-8.9213,-8.9269,-8.9608,-8.9777,-8.989,-9.0228,-9.0398,-9.0398,-9.0398,-9.0398,-9.0486,-9.0486,-9.0486,-9.0486,-9.0398,-9.0486,-9.0398,-9.0398,-9.0486,-9.0398,-9.0398,-9.0398,-9.0341,-9.0003,-8.9551,-8.9213,-8.9213,-8.9213,-8.9213,-8.9068,-8.8981,-8.8981,-8.9037,-8.8643,-8.7941,-8.7655,-8.7145,-8.6329,-8.5903,-8.5731,-8.5731,-8.5731,-8.5644,-8.5502,-8.5731,-8.5558,-8.5156,-8.5156,-8.5329,-8.4752,-8.5069,-8.5396,-8.5207,-8.5152,-8.4617,-8.2877,-8.2689,-8.1766,-8.0,-7.898,-7.7848,-7.6206,-7.5803,-7.5207,-7.4545,-7.4229,-7.3646,-7.467,-7.4881,-7.4881,-7.1216,-6.9052,-6.788,-6.788,-6.8163,-6.8257,-6.7785,-6.7596,-6.7596,-6.7596,-6.7596,-6.7596,-6.7596,-6.7596,-6.7596,-6.7596,-6.7596,-6.7596,-6.7596,-6.7596,-6.7596,-6.7596,-6.7596,-6.7596,-9.0113,-8.9418,-8.9244,-8.9213,-8.9213,-8.9213,-8.9213,-8.9213,-8.9213,-8.9213,-8.9213,-8.9213,-8.9213,-8.9213,-8.9213,-8.9213,-8.9213,-8.9213,-8.9213,-8.9213,-8.9213,-8.9213,-8.9213,-8.9213,-8.9213,-8.9213,-8.9213,-8.9213,-8.9213,-8.9213,-8.9213,-8.9213,-8.9213,-8.9213,-8.9213,-8.9213,-8.9213,-8.9213,-8.9213,-8.9213,-8.9269,-8.9213,-8.9213,-8.9213,-8.9213,-8.9213,-8.9213,-8.9213,-8.8987,-8.8535,-8.8479,-8.831,-8.7915,-8.7858,-8.7463,-8.673,-8.6417,-8.5909,-8.5151,-8.4728,-8.4559,-8.4559,-8.4559,-8.4699,-8.4644,-8.4813,-8.4983,-8.4954,-8.5292,-8.4924,-8.4529,-8.419,-8.4108,-8.3969,-8.4051,-8.3457,-8.2304,-8.1954,-8.163,-8.036,-7.9423,-7.8505,-7.7629,-7.7149,-7.6582,-7.5805,-7.5457,-7.5195,-7.5195,-7.6377,-7.6238,-7.2714,-6.961,-6.7785,-6.8257,-6.8819,-6.8819,-6.8257,-6.7691,-6.7691,-6.7691,-6.7596,-6.7596,-6.7596,-6.7596,-6.7596,-6.7596,-6.7596,-6.7596,-6.7596,-6.7596,-6.7596,-6.7596,-6.7596,-6.7596,-9.0285,-8.9766,-8.9388,-8.9213,-8.9213,-8.9213,-8.9213,-8.9213,-8.9213,-8.9213,-8.9213,-8.9213,-8.9213,-8.9213,-8.9213,-8.9213,-8.9213,-8.9213,-8.9213,-8.9213,-8.9213,-8.9213,-8.9213,-8.9213,-8.9213,-8.9213,-8.9213,-8.9213,-8.9213,-8.9213,-8.9213,-8.9213,-8.9213,-8.9213,-8.9213,-8.9213,-8.9213,-8.9213,-8.9213,-8.9213,-8.9213,-8.9213,-8.9156,-8.8987,-8.91,-8.893,-8.8874,-8.8987,-8.8423,-8.7323,-8.7181,-8.673,-8.577,-8.5601,-8.5714,-8.5545,-8.5488,-8.5375,-8.5206,-8.501,-8.5066,-8.5206,-8.4953,-8.5263,-8.4897,-8.4897,-8.473,-8.4533,-8.4786,-8.4247,-8.2498,-8.2272,-8.1941,-8.1561,-8.1691,-8.199,-8.182,-8.1853,-8.182,-8.1498,-8.0956,-7.9781,-7.7522,-7.6324,-7.6238,-7.5978,-7.5492,-7.5666,-7.6807,-7.7459,-7.6721,-7.414,-7.1307,-6.8726,-6.998,-7.0625,-7.0165,-6.9193,-6.8351,-6.788,-6.7785,-6.7596,-6.7596,-6.7596,-6.7596,-6.7596,-6.7596,-6.7596,-6.7596,-6.7596,-6.7596,-6.7596,-6.7596,-6.7596,-6.7596,-8.994,-8.9766,-8.9331,-8.9213,-8.9213,-8.9213,-8.9213,-8.9213,-8.9213,-8.9213,-8.9213,-8.9213,-8.9213,-8.9213,-8.9213,-8.9213,-8.9213,-8.9213,-8.9213,-8.9213,-8.9213,-8.9213,-8.9213,-8.9213,-8.9213,-8.9213,-8.9213,-8.9213,-8.9213,-8.9213,-8.9213,-8.9213,-8.9213,-8.9213,-8.9213,-8.9213,-8.9213,-8.9213,-8.9213,-8.9213,-8.9156,-8.9213,-8.8761,-8.7915,-8.7802,-8.7407,-8.656,-8.656,-8.6335,-8.5996,-8.5996,-8.5827,-8.5545,-8.5545,-8.5545,-8.5432,-8.4642,-8.3739,-8.2893,-8.2836,-8.2836,-8.2836,-8.2836,-8.2836,-8.2836,-8.2836,-8.2755,-8.2648,-8.2755,-8.2723,-8.1877,-8.182,-8.174,-8.166,-8.174,-8.182,-8.182,-8.182,-8.1579,-8.0956,-8.0793,-8.0056,-7.884,-7.8198,-7.7999,-7.7999,-7.7861,-7.8252,-7.8421,-7.8053,-7.7235,-7.5457,-7.467,-7.3875,-7.3875,-7.2714,-7.09,-6.9795,-6.9238,-6.8726,-6.788,-6.7691,-6.7596,-6.7596,-6.7596,-6.7596,-6.7596,-6.7596,-6.7596,-6.7596,-6.7596,-6.7596,-6.7596,-6.7596,-6.7596,-8.9593,-8.9506,-8.9331,-8.9213,-8.9213,-8.9213,-8.9213,-8.9213,-8.9213,-8.9213,-8.9213,-8.9213,-8.9213,-8.9213,-8.9213,-8.9213,-8.9213,-8.9213,-8.9213,-8.9213,-8.9213,-8.9213,-8.9213,-8.9213,-8.9213,-8.9213,-8.9213,-8.9213,-8.9213,-8.9213,-8.9213,-8.9213,-8.9213,-8.9213,-8.9213,-8.9213,-8.9213,-8.9213,-8.9213,-8.8648,-8.7802,-8.7689,-8.7294,-8.6617,-8.656,-8.6165,-8.5601,-8.5545,-8.5263,-8.4755,-8.4532,-8.4363,-8.4021,-8.38,-8.38,-8.3965,-8.3288,-8.2554,-8.1877,-8.182,-8.182,-8.182,-8.182,-8.182,-8.182,-8.182,-8.182,-8.182,-8.182,-8.182,-8.182,-8.182,-8.182,-8.182,-8.182,-8.182,-8.182,-8.166,-8.1442,-8.1037,-8.0768,-8.0221,-7.9588,-7.934,-7.934,-7.909,-7.8894,-7.8727,-7.8811,-7.8643,-7.783,-7.6893,-7.6807,-7.6549,-7.502,-7.2753,-7.1216,-7.0349,-6.961,-6.8865,-6.7785,-6.7691,-6.7596,-6.7596,-6.7596,-6.7596,-6.7596,-6.7596,-6.7596,-6.7596,-6.7596,-6.7596,-6.7596,-6.7596,-6.7363,-8.9213,-8.9213,-8.9213,-8.9213,-8.9213,-8.9213,-8.9213,-8.9213,-8.9213,-8.91,-8.8705,-8.8874,-8.8761,-8.8874,-8.8761,-8.8705,-8.8705,-8.8818,-8.8761,-8.8761,-8.8874,-8.8818,-8.8705,-8.8761,-8.8874,-8.8761,-8.8705,-8.8648,-8.8648,-8.8705,-8.8818,-8.8874,-8.8874,-8.8761,-8.8818,-8.8761,-8.8818,-8.8818,-8.8874,-8.7745,-8.5658,-8.5545,-8.5432,-8.5319,-8.5319,-8.5319,-8.5037,-8.5206,-8.4585,-8.357,-8.3046,-8.254,-8.1829,-8.1361,-8.128,-8.1796,-8.1877,-8.182,-8.182,-8.182,-8.182,-8.182,-8.182,-8.182,-8.182,-8.182,-8.182,-8.182,-8.182,-8.182,-8.182,-8.182,-8.182,-8.182,-8.174,-8.182,-8.174,-8.1361,-8.12,-8.1579,-8.0712,-8.0165,-7.9699,-7.9534,-7.9451,-7.909,-7.8894,-7.8781,-7.8727,-7.8811,-7.8589,-7.8084,-7.766,-7.684,-7.5544,-7.3519,-7.2304,-7.0991,-6.9331,-6.8678,-6.8491,-6.821,-6.7596,-6.7596,-6.7596,-6.7596,-6.7596,-6.7596,-6.7596,-6.7596,-6.7596,-6.7596,-6.7596,-6.7596,-6.7177,-8.9213,-8.9213,-8.9213,-8.9213,-8.9213,-8.9213,-8.9213,-8.9213,-8.9156,-8.814,-8.6448,-8.6335,-8.6335,-8.6335,-8.6335,-8.6335,-8.6335,-8.6335,-8.6335,-8.6335,-8.6335,-8.6335,-8.6335,-8.6335,-8.6335,-8.6335,-8.6335,-8.6335,-8.6335,-8.6335,-8.6335,-8.6335,-8.6335,-8.6335,-8.6335,-8.6335,-8.6335,-8.6335,-8.6335,-8.6109,-8.5545,-8.5545,-8.498,-8.4134,-8.4021,-8.357,-8.2723,-8.2667,-8.2498,-8.2215,-8.1754,-8.1424,-8.128,-8.1143,-8.1143,-8.1224,-8.166,-8.182,-8.182,-8.182,-8.182,-8.182,-8.182,-8.182,-8.182,-8.182,-8.182,-8.182,-8.182,-8.182,-8.182,-8.182,-8.182,-8.182,-8.1523,-8.1361,-8.166,-8.1118,-8.0467,-7.9836,-7.9836,-7.9699,-7.9423,-7.9257,-7.9174,-7.909,-7.9061,-7.8978,-7.8978,-7.9007,-7.909,-7.8505,-7.7181,-7.6496,-7.783,-7.6151,-7.4618,-7.4493,-7.2394,-7.0851,-7.03,-6.8865,-6.788,-6.7598,-6.7644,-6.755,-6.755,-6.7503,-6.7456,-6.7363,-6.7363,-6.7456,-6.741,-6.741,-6.713,-8.752,-8.752,-8.752,-8.752,-8.752,-8.752,-8.752,-8.752,-8.752,-8.673,-8.5545,-8.5545,-8.5545,-8.5545,-8.5545,-8.5545,-8.5545,-8.5545,-8.5545,-8.5545,-8.5545,-8.5545,-8.5545,-8.5545,-8.5545,-8.5545,-8.5545,-8.5545,-8.5545,-8.5545,-8.5545,-8.5545,-8.5545,-8.5545,-8.5545,-8.5545,-8.5545,-8.5488,-8.4416,-8.3852,-8.3852,-8.3795,-8.3175,-8.1933,-8.1877,-8.1313,-8.0128,-8.0071,-7.9993,-7.9756,-7.9304,-7.9424,-7.9982,-7.9982,-8.0342,-8.1007,-8.1523,-8.182,-8.182,-8.182,-8.182,-8.182,-8.182,-8.182,-8.182,-8.182,-8.182,-8.182,-8.182,-8.182,-8.182,-8.182,-8.174,-8.1523,-8.1224,-8.09,-8.063,-8.0303,-7.9836,-7.9257,-7.934,-7.934,-7.909,-7.9145,-7.9145,-7.9145,-7.9145,-7.9145,-7.9145,-7.9145,-7.8923,-7.8505,-7.766,-7.749,-7.7999,-7.6324,-7.4706,-7.4266,-7.2123,-7.0533,-6.998,-6.8959,-6.7505,-6.6943,-6.7317,-6.7317,-6.6335,-6.6335,-6.6335,-6.6335,-6.6335,-6.6335,-6.6335,-6.6335,-6.5961,-8.5545,-8.5545,-8.5545,-8.5545,-8.5545,-8.5545,-8.5545,-8.5488,-8.515,-8.498,-8.498,-8.498,-8.5037,-8.498,-8.5037,-8.498,-8.498,-8.498,-8.498,-8.498,-8.498,-8.498,-8.498,-8.498,-8.498,-8.498,-8.498,-8.498,-8.498,-8.498,-8.498,-8.498,-8.498,-8.498,-8.498,-8.498,-8.5037,-8.498,-8.2893,-8.182,-8.182,-8.182,-8.12,-7.988,-7.9823,-7.9203,-7.783,-7.783,-7.7676,-7.729,-7.6902,-7.7167,-7.8301,-7.819,-7.8738,-8.0006,-8.0407,-8.0702,-8.0951,-8.112,-8.1369,-8.1538,-8.1708,-8.1595,-8.1007,-8.12,-8.1313,-8.1256,-8.1064,-8.1233,-8.1233,-8.104,-8.0768,-8.0447,-8.0342,-7.9911,-7.8737,-7.8847,-7.8957,-7.9119,-7.8872,-7.8489,-7.838,-7.8435,-7.838,-7.8544,-7.8489,-7.8817,-7.8708,-7.8708,-7.8376,-7.8114,-7.809,-7.7904,-7.7245,-7.5281,-7.3773,-7.2834,-7.0535,-6.866,-6.7643,-6.713,-6.6663,-6.5728,-6.6382,-6.6429,-6.5213,-6.4699,-6.4886,-6.4933,-6.498,-6.4886,-6.4933,-6.4512,-6.4232,-8.5545,-8.5545,-8.5545,-8.5545,-8.5545,-8.5545,-8.5545,-8.5375,-8.3344,0.0,0.0,-8.2498,-8.2498,-8.2498,-8.2498,-8.2498,-8.2498,-8.2498,-8.2498,-8.2441,-8.2498,-8.2498,-8.2498,-8.2498,-8.2498,-8.2441,-8.2498,-8.2498,-8.2498,-8.2498,-8.2498,-8.2498,-8.2498,-8.2498,-8.2498,-8.2498,-8.2441,-8.2441,-8.2046,-8.182,-8.182,-8.182,-8.104,-7.9429,-7.9373,-7.8655,-7.7036,-7.698,-7.698,-7.6902,-7.6433,-7.6442,-7.6607,-7.5724,-7.5283,-7.5603,-7.5101,-7.5313,-7.6681,-7.7712,-7.8878,-8.0184,-8.12,-8.0364,-7.6905,-7.7943,-7.8604,-7.8661,-7.8351,-7.8117,-7.8173,-7.7883,-7.7648,-7.757,-7.731,-7.6914,-7.6356,-7.6356,-7.7177,-7.8489,-7.7397,-7.6276,-7.6385,-7.6385,-7.6221,-7.6385,-7.7069,-7.7616,-7.7506,-7.6877,-7.6796,-7.8187,-7.7261,-7.6144,-7.5874,-7.4953,-7.4108,-7.2545,-7.0568,-6.8293,-6.6073,-6.5213,-6.512,-6.4793,-6.5026,-6.5026,-6.4793,-6.4559,-6.4699,-6.4699,-6.4699,-6.4699,-6.4559,-6.3343,-6.2181,-8.3626,-8.3626,-8.3626,-8.3626,0.0,-8.3626,-8.3626,-8.357,-8.2328,-8.182,-8.182,-8.182,-8.182,-8.182,-8.182,-8.182,-8.182,-8.182,-8.182,-8.182,-8.182,-8.182,-8.182,-8.182,-8.182,-8.182,-8.182,-8.182,-8.182,-8.182,-8.182,-8.182,-8.182,-8.182,-8.182,-8.182,-8.182,-8.182,-8.182,-8.174,-8.1442,-8.1442,-8.0663,-7.8953,-7.8898,0.0,0.0,0.0,0.0,0.0,0.0,0.0,0.0,-7.3631,-7.2388,-7.2333,-7.0922,-7.0438,-7.1393,-7.2022,-7.334,-7.5428,-7.6288,-7.5408,-7.2579,-7.4382,-7.5895,-7.6665,-7.6395,-7.6465,-7.7234,-7.698,-7.6668,-7.6488,-7.6331,-7.5521,-7.4221,-7.4854,-7.6057,-7.696,-7.6385,-7.5674,-7.5674,-7.5674,-7.5674,-7.5674,-7.6166,-7.6658,-7.6822,-7.5237,-7.4854,-7.7342,-7.6469,-7.554,-7.5167,-7.4444,-7.3359,-7.1984,-6.991,-6.778,-6.5874,-6.4763,-6.3904,-6.325,-6.311,-6.3198,-6.311,-6.311,-6.3198,-6.311,-6.3198,-6.3057,-6.2449,-6.2027,-6.1434,-8.182,-8.182,-8.182,-8.182,-8.1764,-8.1313,-8.1087,-8.1087,-8.1087,-8.1256,-8.1482,-8.1708,-8.182,-8.182,-8.182,-8.182,-8.182,-8.182,-8.182,-8.182,-8.182,-8.182,-8.182,-8.182,-8.182,-8.182,-8.182,-8.182,-8.182,-8.182,-8.182,-8.182,-8.182,-8.182,-8.182,0.0,0.0,0.0,-8.182,-8.166,-8.1224,-8.1143,-8.0205,-7.8499,-7.8197,0.0,-7.5977,-7.5623,-7.5356,-7.5144,-7.3979,0.0,-7.438,0.0,0.0,0.0,0.0,0.0,0.0,0.0,0.0,0.0,-6.8846,-6.8207,-6.7791,-7.0383,-7.271,-7.4177,-7.4064,-7.4378,-7.5684,-7.5434,-7.5106,-7.4719,-7.4719,-7.3795,-7.1683,-7.3214,-7.469,-7.4909,-7.4909,-7.4909,-7.4854,-7.4963,-7.4909,-7.4799,-7.5127,-7.5376,-7.5704,-7.3574,-7.2973,-7.5158,-7.5237,-7.4618,-7.3929,-7.2834,-7.1591,-7.0176,-6.8012,-6.633,-6.5203,-6.3703,-6.1941,-6.1981,-6.1419,-6.1193,-6.1372,-6.1185,-6.1044,-6.1044,-6.1232,-6.1044,-6.0061,-6.0398,-6.0789,-8.182,-8.182,-8.182,-8.182,-8.1651,-7.9394,-7.8435,-7.8435,-7.8435,-7.9056,-8.0184,-8.1313,-8.182,-8.182,-8.182,-8.182,-8.182,-8.182,-8.182,-8.182,-8.182,-8.182,-8.182,-8.182,-8.182,-8.182,-8.182,-8.182,-8.182,-8.182,-8.182,-8.182,-8.182,-8.182,-8.182,-8.182,-8.182,-8.182,-8.182,-8.182,-8.174,-8.1305,-8.0043,-7.8097,-7.6705,-7.5054,-7.3069,-7.1286,-7.0674,-7.135,-7.0514,-7.0045,-7.0098,-6.6354,-6.3367,0.0,-5.7053,0.0,0.0,0.0,0.0,0.0,0.0,0.0,0.0,-6.5422,-6.8156,-6.9725,-6.9835,-6.989,-7.0056,-6.9695,-6.9477,-6.9404,-6.9404,-6.9295,-6.8949,-7.0042,-7.13,-7.2339,-7.2372,-7.2372,-7.2427,-7.2372,-7.2372,-7.2536,-7.3246,-7.341,-7.27,-7.2099,-7.188,-7.2317,-7.2503,-7.2076,-7.0621,-7.0019,-6.8752,-6.5839,-6.4138,-6.3002,-6.247,-6.0312,-5.9125,-6.0904,-6.0539,-5.9931,-6.0249,-5.951,-5.9031,-5.9043,-5.9604,-5.9791,-5.8913,-5.8619,-5.8242,-7.9676,-7.9676,-7.9676,-7.952,-7.9306,-7.8358,-7.7927,-7.7927,-7.7927,-7.8266,-7.883,-7.9394,-7.9676,-7.9676,-7.9676,-7.9676,-7.9676,-7.9676,-7.9676,-7.9676,-7.9676,-7.9676,-7.9676,-7.9676,-7.9676,-7.9676,-8.041,-8.0748,-8.0805,-8.1482,-8.182,-8.182,-8.182,-8.1087,-7.9733,-7.9676,-8.041,-8.1764,-8.0927,-7.9855,-7.8842,-7.873,-7.8055,-7.6705,-7.5918,-7.5029,-7.3849,-7.198,-7.1554,-7.2565,-7.028,-6.8599,-6.772,-6.2656,-5.7869,0.0,0.0,0.0,0.0,0.0,0.0,0.0,0.0,0.0,0.0,0.0,-6.2315,-6.3744,-6.5936,-6.6683,-6.5115,-6.6423,-6.6801,-6.5559,-6.5449,-6.4561,-6.2595,-6.5217,-6.8385,-7.1498,-7.0733,-7.0261,-7.0863,-7.0897,-7.1191,-7.1826,-7.1225,-7.0589,-7.0097,-6.9988,-7.048,-7.1737,-7.188,-7.112,-6.8607,-6.7539,-6.6026,-6.3694,-6.2178,-6.1307,-6.0974,-5.9335,-5.8388,-5.9593,-5.937,-5.8996,-5.9136,-5.8762,-5.8482,-5.8482,-5.8225,-5.7748,-5.7087,-5.7293,-5.7332,-7.7676,-7.7339,-7.4135,-7.3298,-7.414,-7.4717,-7.5709,-7.6777,-7.6777,-7.676,-7.661,-7.7022,-7.6779,-7.5949,-7.5253,-7.5479,-7.6309,-7.6309,-7.6874,-7.7927,-7.7927,-7.7927,-7.7927,-7.7927,-7.7927,-7.7983,-7.8661,-7.9112,-7.9451,-8.0128,-8.0466,-8.0466,-8.0105,-7.8787,-7.6515,-7.676,-7.8055,-8.0387,-7.9396,-7.8005,-7.6465,-7.6276,-7.5882,-7.4846,-7.4361,-7.3799,-7.3019,-7.1285,-7.0778,-7.1629,-6.8441,-6.5734,-6.3871,-5.7917,0.0,0.0,0.0,0.0,0.0,0.0,0.0,0.0,0.0,-4.472,-4.6146,0.0,-5.6332,0.0,-6.1221,-6.3175,-6.1916,-6.3457,0.0,0.0,-6.1482,-5.9528,-5.5494,-5.9755,-6.5107,-7.0406,-6.8785,-6.7691,-6.9095,-6.9259,-6.9586,-7.0406,-6.8767,-6.7363,-6.6762,-6.7144,-6.833,-7.0237,-7.0727,-6.9742,-6.67,-6.493,-6.3383,-6.1729,-6.0449,-5.9572,-5.9332,-5.8376,-5.7921,-5.8388,-5.8154,-5.7874,-5.8061,-5.7874,-5.7687,-5.7406,-5.6667,-5.5931,-5.5658,-5.5968,-5.6354,-7.6824,-7.5768,-6.3169,-6.0616,-6.4896,-6.606,-6.9123,-7.3433,-7.3433,-7.319,-7.2874,-7.4531,-7.3388,-7.0104,-6.7756,0.0,-7.1504,-7.1504,-7.3742,-7.7927,-7.7927,-7.7927,-7.7927,-7.7927,-7.7927,-7.7927,-7.6968,-7.7024,-7.804,-7.7137,-7.6686,-7.6629,-7.5203,-7.3673,-7.2207,-7.3449,-7.483,-7.61,-7.7032,-7.7247,-7.6746,-7.5724,-7.4363,-7.2625,-7.1188,-6.9634,-6.7923,-6.5887,-6.4815,-6.4714,-6.2141,-5.9379,-5.6341,0.0,0.0,0.0,0.0,0.0,0.0,0.0,0.0,0.0,0.0,0.0,0.0,0.0,0.0,-5.1068,-5.4779,0.0,-6.1557,-6.0223,0.0,0.0,0.0,-5.3791,-4.8281,-5.3856,-6.0847,-6.791,0.0,0.0,-6.6457,-6.673,-6.6785,-6.6894,-6.5872,-6.4234,-6.2049,-6.3687,-6.5648,-6.7353,-6.7583,-6.6505,-6.3705,-6.2057,-6.0698,-5.9078,-5.7928,-5.6896,-5.6051,-5.5677,-5.6472,-5.7874,-5.6892,-5.5911,-5.6892,-5.6159,-5.5396,-5.4432,-5.4545,-5.4868,-5.4666,-5.4569,-5.4267,-6.452,-5.8833,-5.3697,-5.3095,-5.5618,-5.6943,-6.0815,-6.6146,-6.6146,-6.6786,-6.7862,-6.7818,-6.5899,-6.2683,-6.0913,0.0,0.0,0.0,-6.6529,-7.0403,-7.1944,-7.3259,-7.436,-7.5239,-7.5577,-7.5409,-7.5915,-7.646,-7.6911,-7.7137,-7.3381,-6.5845,0.0,-6.5135,-6.6062,-6.875,-7.1498,-7.4102,-7.4927,-7.4784,-7.3734,-7.2902,-7.1713,-7.0252,-6.8993,-6.7497,-6.5679,-6.3304,-6.1688,-6.1127,-5.7492,-5.3611,0.0,0.0,0.0,0.0,0.0,0.0,0.0,0.0,0.0,0.0,0.0,-3.2729,-3.4701,0.0,0.0,0.0,-4.5892,-4.8057,-5.2708,-5.5034,0.0,0.0,0.0,0.0,0.0,0.0,0.0,-6.112,-6.1175,-6.1601,-6.4015,-6.3075,-6.242,-6.325,-6.242,-6.1656,-6.1284,0.0,-6.046,-6.3918,-6.3209,-6.1975,-6.1014,-5.9009,-5.7204,-5.6311,-5.5048,-5.3994,-5.3545,-5.3498,-5.3703,-5.4157,-5.3907,-5.3563,-5.3785,-5.3279,-5.2638,-5.197,-5.2048,-5.2171,-5.1988,-5.176,-5.1787,-5.0037,0.0,0.0,0.0,0.0,-4.7419,-5.1943,-5.8499,-5.8499,-5.9374,-6.0773,-6.0365,0.0,0.0,0.0,0.0,0.0,0.0,-6.0223,-6.3849,-6.7686,-6.9733,-7.037,-7.1831,-7.2153,-7.1458,-7.1969,-7.2224,-7.224,-7.1748,-6.6359,-5.6701,0.0,0.0,0.0,0.0,-6.7625,-7.0843,-7.2553,-7.2572,-7.1077,-7.0067,-6.8861,-6.7393,-6.6024,-6.4549,-6.2837,-6.0079,-5.7958,-5.6861,-5.2016,0.0,0.0,0.0,0.0,0.0,0.0,0.0,0.0,0.0,0.0,0.0,0.0,0.0,0.0,0.0,0.0,0.0,0.0,0.0,-4.4518,-4.9176,-5.0896,0.0,0.0,0.0,0.0,0.0,0.0,0.0,0.0,0.0,-5.8477,-5.8313,-5.8422,0.0,0.0,-5.9041,-5.9701,-5.7349,-5.6755,-6.0078,-5.9762,0.0,-5.7402,-5.5372,-5.3779,-5.329,-5.2375,-5.1652,-5.13,-5.1182,-5.0991,-5.0893,-5.1196,-5.0945,-4.9387,-4.8829,-4.8799,-4.8631,-4.8715,-4.877,-4.8721,-4.862,-4.8813,0.0,0.0,0.0,0.0,-3.5759,0.0,0.0,0.0,-5.095,-5.0967,0.0,-5.2672,0.0,0.0,0.0,0.0,-4.7781,-5.1878,0.0,0.0,-6.6548,-6.869,-6.6552,-6.7683,-6.7547,-6.6051,-6.3881,-6.2712,-6.2393,-5.8105,-5.4254,0.0,0.0,0.0,0.0,0.0,-6.314,-6.5611,-6.9806,-7.1119,-6.9387,-6.7557,-6.5816,-6.4073,-6.1915,-6.0133,-5.8714,-5.5692,-5.3086,-5.1004,-4.5426,0.0,0.0,0.0,0.0,0.0,0.0,0.0,0.0,0.0,0.0,0.0,0.0,0.0,0.0,0.0,0.0,0.0,0.0,0.0,0.0,-4.2766,0.0,0.0,0.0,0.0,0.0,0.0,0.0,0.0,0.0,-5.0092,-4.8695,-5.2366,-5.529,-5.5106,0.0,0.0,0.0,0.0,-5.5647,-5.5911,-5.7704,-5.7258,-5.2139,-5.1187,-5.082,-5.0073,0.0,0.0,-4.8882,-4.8489,-4.8327,-4.8628,-4.9156,-4.8188,-4.3069,-4.288,-4.3532,-4.3851,-4.4192,-4.4809,-4.5526,-4.5411,-4.5492,0.0,0.0,0.0,0.0,0.0,0.0,0.0,0.0,0.0,-4.0885,-4.2955,-4.2942,0.0,0.0,0.0,0.0,0.0,0.0,0.0,0.0,-5.6201,-5.8955,-5.9859,-6.1148,-6.0975,-5.9681,-5.8916,-5.4311,0.0,0.0,0.0,0.0,0.0,0.0,0.0,0.0,-5.9029,-6.1915,-6.5664,-6.6813,-6.5149,-6.4248,-6.3082,-6.1706,-6.0837,-5.8551,-5.4555,-5.0862,-4.7309,0.0,0.0,0.0,0.0,0.0,0.0,0.0,0.0,0.0,0.0,0.0,0.0,0.0,0.0,0.0,0.0,0.0,0.0,0.0,0.0,0.0,0.0,0.0,-4.0763,0.0,0.0,0.0,0.0,0.0,0.0,0.0,0.0,0.0,-4.3518,-4.6699,-5.0097,-5.2248,-5.2873,-5.3872,-5.5899,0.0,0.0,0.0,0.0,0.0,0.0,0.0,-4.8478,-4.729,-4.6521,-4.5889,-4.5501,-4.4288,-4.352,-4.4079,0.0,0.0,-3.8197,-3.807,-3.8963,-3.9588,-3.9809,-3.9982,-4.0336,-4.0257,-4.0636,0.0,0.0,0.0,0.0,0.0,0.0,0.0,0.0,0.0,-3.1155,-3.3757,0.0,0.0,0.0,0.0,0.0,0.0,0.0,0.0,0.0,0.0,0.0,-5.2048,-5.3371,0.0,0.0,0.0,0.0,0.0,0.0,0.0,0.0,0.0,0.0,0.0,0.0,-5.5,-5.8189,-6.2368,-6.374,-6.2248,-6.151,-6.0532,-5.9238,-5.8903,-5.6557,-5.1937,0.0,0.0,0.0,0.0,0.0,0.0,0.0,0.0,0.0,0.0,0.0,0.0,0.0,0.0,0.0,0.0,0.0,0.0,0.0,0.0,0.0,0.0,0.0,0.0,0.0,-3.6334,0.0,0.0,0.0,0.0,0.0,0.0,0.0,0.0,0.0,0.0,-4.1405,-4.5105,-4.7683,-4.9444,-5.1461,-5.4066,-5.4407,-5.4608,0.0,0.0,0.0,0.0,0.0,0.0,0.0,0.0,0.0,0.0,0.0,0.0,0.0,-3.7362,-3.5681,-3.3355,-3.3379,-3.3988,-3.4489,0.0,0.0,0.0,0.0,0.0,0.0,0.0,0.0,0.0,0.0,0.0,0.0,0.0,0.0,0.0,-2.3712,0.0,0.0,-2.2463,0.0,0.0,0.0,0.0,0.0,0.0,0.0,0.0,0.0,0.0,0.0,0.0,0.0,0.0,0.0,0.0,0.0,0.0,0.0,0.0,0.0,0.0,-5.1135,-5.4426,-5.9975,-6.2176,-6.0874,-5.9526,-5.8137,-5.6878,-5.5864,-5.3807,-5.0628,0.0,0.0,0.0,0.0,0.0,0.0,0.0,0.0,0.0,0.0,0.0,0.0,0.0,0.0,0.0,0.0,0.0,0.0,0.0,0.0,0.0,0.0,0.0,0.0,0.0,0.0,-3.4086,-3.7743,-3.9314,0.0,0.0,0.0,0.0,0.0,0.0,0.0,0.0,0.0,-4.1564,-4.5574,-4.9107,-5.0689,-5.1528,-5.1543,-5.0578,-5.191,-5.121,-4.5739,-4.4207,-4.3354,0.0,0.0,0.0,0.0,0.0,0.0,0.0,0.0,0.0,0.0,0.0,0.0,0.0,0.0,0.0,0.0,0.0,0.0,0.0,0.0,0.0,0.0,0.0,0.0,0.0,0.0,0.0,0.0,0.0,0.0,0.0,0.0,0.0,0.0,0.0,0.0,0.0,0.0,0.0,0.0,0.0,0.0,0.0,0.0,0.0,0.0,0.0,0.0,0.0,0.0,0.0,0.0,0.0,0.0,-4.8522,-5.2231,-5.6939,-5.8628,-5.7266,-5.5948,-5.4794,-5.376,-5.2685,-5.0277,-4.6366,0.0,0.0,0.0,0.0,0.0,0.0,0.0,0.0,0.0,0.0,0.0,0.0,0.0,0.0,0.0,0.0,0.0,0.0,0.0,0.0,0.0,0.0,0.0,0.0,0.0,0.0,0.0,-3.7215,-3.8207,-3.7228,0.0,0.0,0.0,0.0,0.0,0.0,0.0,0.0,0.0,0.0,-4.6732,-4.8724,-4.8289,-4.8505,-5.0662,-4.8652,-4.6532,-4.5268,-4.3909,-4.2358,-4.0649,0.0,0.0,0.0,0.0,0.0,0.0,0.0,0.0,0.0,0.0,0.0,0.0,0.0,0.0,0.0,0.0,0.0,0.0,0.0,0.0,0.0,0.0,0.0,0.0,0.0,0.0,0.0,0.0,0.0,0.0,0.0,0.0,0.0,0.0,0.0,0.0,0.0,0.0,0.0,0.0,0.0,0.0,0.0,0.0,0.0,0.0,0.0,0.0,0.0,0.0,0.0,0.0,0.0,-4.5189,-4.9205,-5.3484,-5.5245,-5.4328,-5.3664,-5.2938,-5.2285,-5.0766,-4.8042,0.0,0.0,0.0,0.0,0.0,0.0,0.0,0.0,0.0,0.0,0.0,0.0,0.0,0.0,0.0,0.0,0.0,0.0,0.0,0.0,0.0,0.0,0.0,0.0,0.0,0.0,0.0,0.0,-3.4075,-3.6451,-3.8576,0.0,0.0,0.0,0.0,0.0,0.0,0.0,0.0,0.0,0.0,-4.3384,-4.5212,-4.6169,0.0,0.0,-4.5457,-4.3324,-4.3188,-4.24,-4.1053,-3.8743,-3.6688,0.0,0.0,0.0,0.0,0.0,0.0,0.0,0.0,0.0,0.0,0.0,0.0,0.0,0.0,0.0,0.0,0.0,0.0,0.0,0.0,0.0,0.0,0.0,0.0,0.0,0.0,0.0,0.0,0.0,0.0,0.0,0.0,0.0,0.0,0.0,0.0,0.0,0.0,0.0,0.0,0.0,0.0,0.0,0.0,0.0,0.0,0.0,0.0,0.0,0.0,0.0,0.0,-4.1549,-4.5723,-5.0039,-5.2285,-5.2191,-5.2145,-5.2145,-5.2051,-4.9717,-4.6587,0.0,0.0,0.0,0.0,0.0,0.0,0.0,0.0,0.0,0.0,0.0,0.0,0.0,0.0,0.0,0.0,0.0,0.0,0.0,0.0,0.0,0.0,0.0,0.0,0.0,0.0,0.0,0.0,0.0,0.0,0.0,0.0,0.0,0.0,0.0,0.0,0.0,0.0,0.0,0.0,0.0,-3.976,-4.0751,-4.4846,-4.663,0.0,-4.2313,-4.1388,-3.9841,-4.0104,-3.9524,-3.6665,0.0,0.0,0.0,0.0,0.0,0.0,0.0,0.0,0.0,0.0,0.0,0.0,0.0,0.0,0.0,0.0,0.0,0.0,0.0,0.0,0.0,0.0,0.0,0.0,0.0,0.0,0.0,0.0,0.0,0.0,0.0,0.0,0.0,0.0,0.0,0.0,0.0,0.0,0.0,0.0,0.0,0.0,0.0,0.0,0.0,0.0,0.0,0.0,0.0,0.0,0.0,0.0,0.0,0.0,-4.4476,-4.9641,-5.1911,-5.1189,-5.1142,-5.0768,-4.9974,-4.6932,0.0,0.0,0.0,0.0,0.0,0.0,0.0,0.0,0.0,0.0,0.0,0.0,0.0,0.0,0.0,0.0,0.0,0.0,0.0,0.0,0.0,0.0,0.0,0.0,0.0,0.0,0.0,-1.7798,0.0,0.0,0.0,0.0,0.0,0.0,0.0,0.0,0.0,0.0,0.0,0.0,0.0,0.0,-3.9667,-4.0324,-4.4688,-4.6179,0.0,0.0,-3.921,-3.8998,-3.8771,-3.7537,0.0,0.0,0.0,0.0,0.0,0.0,0.0,0.0,0.0,0.0,0.0,0.0,0.0,0.0,0.0,0.0,0.0,0.0,0.0,0.0,0.0,0.0,0.0,0.0,0.0,0.0,0.0,0.0,0.0,0.0,0.0,0.0,0.0,0.0,0.0,0.0,0.0,0.0,0.0,0.0,0.0,0.0,0.0,0.0,0.0,0.0,0.0,0.0,0.0,0.0,0.0,0.0,0.0,0.0,-3.8692,-4.3261,-4.7479,-4.9833,-5.002,-4.9508,-4.8926,-4.8367,-4.4525,-4.0729,0.0,0.0,0.0,0.0,0.0,0.0,0.0,0.0,0.0,0.0,0.0,0.0,0.0,0.0,0.0,0.0,0.0,0.0,0.0,0.0,0.0,0.0,0.0,0.0,0.0,0.0,0.0,0.0,0.0,0.0,0.0,0.0,0.0,0.0,0.0,0.0,0.0,0.0,0.0,0.0,0.0,0.0,-4.15,-4.2412,0.0,0.0,0.0,-3.8229,-3.7895,0.0,0.0,0.0,0.0,0.0,0.0,0.0,0.0,0.0,0.0,0.0,0.0,0.0,0.0,0.0,0.0,0.0,0.0,0.0,0.0,0.0,0.0,0.0,0.0,0.0,0.0,0.0,0.0,0.0,0.0,0.0,0.0,0.0,0.0,0.0,0.0,0.0,0.0,0.0,0.0,0.0,0.0,0.0,0.0,0.0,0.0,0.0,0.0,0.0,0.0,0.0,0.0,0.0,0.0,0.0,0.0,0.0,-4.1634,-4.4705,-4.7141,-4.8643,-4.7767,-4.7215,-4.703,-4.271,-3.89,0.0,0.0,0.0,0.0,0.0,0.0,0.0,0.0,0.0,0.0,0.0,0.0,0.0,0.0,0.0,0.0,0.0,0.0,0.0,0.0,0.0,0.0,0.0,0.0,0.0,0.0,0.0,0.0,0.0,0.0,0.0,0.0,0.0,0.0,0.0,0.0,0.0,0.0,0.0,0.0,0.0,-3.4958,-4.1758,-3.8491,-3.5106,0.0,0.0,-3.7535,-3.6374,-3.6454,0.0,0.0,0.0,0.0,0.0,0.0,0.0,0.0,0.0,0.0,0.0,0.0,0.0,0.0,0.0,0.0,0.0,0.0,0.0,0.0,0.0,0.0,0.0,0.0,0.0,0.0,0.0,0.0,0.0,0.0,0.0,0.0,0.0,0.0,0.0,0.0,0.0,0.0,0.0,0.0,0.0,0.0,0.0,0.0,0.0,0.0,0.0,0.0,0.0,0.0,0.0,0.0,0.0,0.0,0.0,0.0,-3.8492,-4.3624,-4.6439,-4.6795,-4.7071,-4.6845,-4.5947,-4.3092,-3.9319,0.0,0.0,0.0,0.0,0.0,0.0,0.0,0.0,0.0,0.0,0.0,0.0,0.0,0.0,0.0,0.0,0.0,0.0,0.0,0.0,0.0,0.0,0.0,0.0,0.0,0.0,0.0,0.0,0.0,0.0,0.0,0.0,0.0,0.0,0.0,0.0,0.0,0.0,0.0,0.0,0.0,-3.2597,-3.3334,-3.2209,0.0,0.0,0.0,0.0,-3.3423,-3.2982,0.0,0.0,0.0,0.0,0.0,0.0,0.0,0.0,0.0,0.0,0.0,0.0,0.0,0.0,0.0,0.0,0.0,0.0,0.0,0.0,0.0,0.0,0.0,0.0,0.0,0.0,0.0,0.0,0.0,0.0,0.0,0.0,0.0,0.0,0.0,0.0,0.0,0.0,0.0,0.0,0.0,0.0,0.0,0.0,0.0,0.0,0.0,0.0,0.0,0.0,0.0,0.0,0.0,0.0,0.0,0.0,-3.7448,-4.1321,-4.4238,-4.6205,-4.591,-4.5484,-4.4884,-4.2391,-3.8685,0.0,0.0,0.0,0.0,0.0,0.0,0.0,0.0,0.0,0.0,0.0,0.0,0.0,0.0,0.0,0.0,0.0,0.0,0.0,0.0,0.0,0.0,0.0,0.0,0.0,0.0,0.0,0.0,0.0,0.0,0.0,0.0,0.0,0.0,0.0,0.0,0.0,0.0,0.0,0.0,-2.6555,-2.87,-2.8896,0.0,0.0,0.0,0.0,0.0,0.0,-3.0987,-2.9569,0.0,0.0,0.0,0.0,0.0,0.0,0.0,0.0,0.0,0.0,0.0,0.0,0.0,0.0,0.0,0.0,0.0,0.0,0.0,0.0,0.0,0.0,0.0,0.0,0.0,0.0,0.0,0.0,0.0,0.0,0.0,0.0,0.0,0.0,0.0,0.0,0.0,0.0,0.0,0.0,0.0,0.0,0.0,0.0,0.0,0.0,0.0,0.0,0.0,0.0,0.0,0.0,0.0,0.0,0.0,-3.6641,-3.8977,-4.1862,-4.5409,-4.461,-4.4051,-4.3867,-4.1327,-3.7633,-3.2751,0.0,0.0,0.0,0.0,0.0,0.0,0.0,0.0,0.0,0.0,0.0,0.0,0.0,0.0,0.0,0.0,0.0,0.0,0.0,0.0,0.0,0.0,0.0,0.0,0.0,0.0,0.0,0.0,0.0,0.0,0.0,0.0,0.0,0.0,0.0,0.0,0.0,0.0,0.0,-2.2846,-2.487,0.0,0.0,0.0,0.0,0.0,0.0,0.0,0.0,-2.7569,0.0,0.0,0.0,0.0,0.0,0.0,0.0,0.0,0.0,0.0,0.0,0.0,0.0,0.0,0.0,0.0,0.0,0.0,0.0,0.0,0.0,0.0,0.0,0.0,0.0,0.0,0.0,0.0,0.0,0.0,0.0,0.0,0.0,0.0,0.0,0.0,0.0,0.0,0.0,0.0,0.0,0.0,0.0,0.0,0.0,0.0,0.0,0.0,0.0,0.0,0.0,0.0,0.0,0.0,0.0,0.0,-3.7999,-4.0991,-4.2307,-4.3543,-4.3728,-4.2789,-4.0324,-3.6584,-3.1708,0.0,0.0,0.0,0.0,0.0,0.0,0.0,0.0,0.0,0.0,0.0,0.0,0.0,0.0,0.0,0.0,0.0,0.0,0.0,0.0,0.0,0.0,0.0,0.0,0.0,0.0,0.0,0.0,0.0,0.0,0.0,0.0,0.0,0.0,0.0,0.0,0.0,0.0,-1.4793,-1.9636,0.0,0.0,0.0,0.0,0.0,0.0,0.0,0.0,-2.5103,0.0,0.0,0.0,0.0,0.0,0.0,0.0,0.0,0.0,0.0,0.0,0.0,0.0,0.0,0.0,0.0,0.0,0.0,0.0,0.0,0.0,0.0,0.0,0.0,0.0,0.0,0.0,0.0,0.0,0.0,0.0,0.0,0.0,0.0,0.0,0.0,0.0,0.0,0.0,0.0,0.0,0.0,0.0,0.0,0.0,0.0,0.0,0.0,0.0,0.0,0.0,0.0,0.0,0.0,0.0,0.0,0.0,0.0,-3.8775,-4.0386,-4.1859,-4.2235,-4.1503,-3.8842,-3.5761,0.0,0.0,0.0,0.0,0.0,0.0,0.0,0.0,0.0,0.0,0.0,0.0,0.0,0.0,0.0,0.0,0.0,0.0,0.0,0.0,0.0,0.0,0.0,0.0,0.0,0.0,0.0,0.0,0.0,0.0,0.0,0.0,0.0,0.0,0.0,0.0,0.0,0.0,0.0,0.0,0.0,0.0,0.0,0.0,0.0,0.0,0.0,0.0,0.0,0.0,0.0,0.0,0.0,0.0,0.0,0.0,0.0,0.0,0.0,0.0,0.0,0.0,0.0,0.0,0.0,0.0,0.0,0.0,0.0,0.0,0.0,0.0,0.0,0.0,0.0,0.0,0.0,0.0,0.0,0.0,0.0,0.0,0.0,0.0,0.0,0.0,0.0,0.0,0.0,0.0,0.0,0.0,0.0,0.0,0.0,0.0,0.0,0.0,0.0,0.0,0.0,0.0,0.0,0.0,0.0,0.0,0.0,0.0,-3.6893,-3.9217,-4.0804,-4.1476,-4.1135,-3.738,-3.4223,0.0,0.0,0.0,0.0,0.0,0.0,0.0,0.0,0.0,0.0,0.0,0.0,0.0,0.0,0.0,0.0,0.0,0.0,0.0,0.0,0.0,0.0,0.0,0.0,0.0,0.0,0.0,0.0,0.0,0.0,0.0,0.0,0.0,0.0,0.0,0.0,0.0,0.0,0.0,0.0,0.0,0.0,0.0,0.0,0.0,0.0,0.0,0.0,-2.1011,0.0,0.0,0.0,0.0,0.0,0.0,0.0,0.0,0.0,0.0,0.0,0.0,0.0,0.0,0.0,0.0,0.0,0.0,0.0,0.0,0.0,0.0,0.0,0.0,0.0,0.0,0.0,0.0,0.0,0.0,0.0,0.0,0.0,0.0,0.0,0.0,0.0,0.0,0.0,0.0,0.0,0.0,0.0,0.0,0.0,0.0,0.0,0.0,0.0,0.0,0.0,0.0,0.0,0.0,0.0,0.0,0.0,0.0,0.0,-3.6819,-3.8614,-4.1408,-4.2901,-4.2701,-3.6262,-3.0978,0.0,0.0,0.0,0.0,0.0,0.0,0.0,0.0,0.0,0.0,0.0,0.0,0.0,0.0,0.0,0.0,0.0,0.0,0.0,0.0,0.0,0.0,0.0,0.0,0.0,0.0,0.0,0.0,0.0,0.0,0.0,0.0,0.0,0.0,0.0,0.0,0.0,0.0,0.0,0.0,0.0,0.0,0.0,0.0,0.0,0.0,0.0,0.0,0.0,0.0,0.0,0.0,0.0,0.0,0.0,0.0,0.0,0.0,0.0,0.0,0.0,0.0,0.0,0.0,0.0,0.0,0.0,0.0,0.0,0.0,0.0,0.0,0.0,0.0,0.0,0.0,0.0,0.0,0.0,0.0,0.0,0.0,0.0,0.0,0.0,0.0,0.0,0.0,0.0,0.0,0.0,0.0,0.0,0.0,0.0,0.0,0.0,0.0,0.0,0.0,0.0,0.0,0.0,0.0,0.0,0.0,0.0,0.0,-3.408,-3.6085,-3.8469,-3.9215,-3.8328,-3.349,-2.9585,0.0,0.0,0.0,0.0,0.0,0.0,0.0,0.0,0.0,0.0,0.0,0.0,0.0,0.0,0.0,0.0,0.0,0.0,0.0,0.0,0.0,0.0,0.0,0.0,0.0,0.0,0.0,0.0,0.0,0.0,0.0,0.0,0.0,0.0,0.0,0.0,0.0,0.0,0.0,0.0,0.0,0.0,0.0,0.0,0.0,0.0,0.0,0.0,0.0,0.0,0.0,0.0,0.0,0.0,0.0,0.0,0.0,0.0,0.0,0.0,0.0,0.0,0.0,0.0,0.0,0.0,0.0,0.0,0.0,0.0,0.0,0.0,0.0,0.0,0.0,0.0,0.0,0.0,0.0,0.0,0.0,0.0,0.0,0.0,0.0,0.0,0.0,0.0,0.0,0.0,0.0,0.0,0.0,0.0,0.0,0.0,0.0,0.0,0.0,0.0,0.0,0.0,0.0,0.0,0.0,0.0,0.0,0.0,0.0,-3.3675,-3.4654,-3.4608,-3.3353,-3.0531,-2.79,0.0,0.0,0.0,0.0,0.0,0.0,0.0,0.0,0.0,0.0,0.0,0.0,0.0,0.0,0.0,0.0,0.0,0.0,0.0,0.0,0.0,0.0,0.0,0.0,0.0,0.0,0.0,0.0,0.0,0.0,0.0,0.0,0.0,0.0,0.0,0.0,0.0,0.0,0.0,0.0,0.0,0.0,0.0,0.0,0.0,0.0,0.0,0.0,0.0,0.0,0.0,0.0,0.0,0.0,0.0,0.0,0.0,0.0,0.0,0.0,0.0,0.0,0.0,0.0,0.0,0.0,0.0,0.0,0.0,0.0,0.0,0.0,0.0,0.0,0.0,0.0,0.0,0.0,0.0,0.0,0.0,0.0,0.0,0.0,0.0,0.0,0.0,0.0,0.0,0.0,0.0,0.0,0.0,0.0,0.0,0.0,0.0,0.0,0.0,0.0,0.0,0.0,0.0,0.0,0.0,0.0,0.0,0.0,0.0,-3.1988,-3.0802,-3.0037,-2.9679,-2.7668,-2.4927,0.0,0.0,0.0,0.0,0.0,0.0,0.0,0.0,0.0,0.0,0.0,0.0,0.0,0.0,0.0,0.0,0.0,0.0,0.0,0.0,0.0,0.0,0.0,0.0,0.0,0.0,0.0,0.0,0.0,0.0,0.0,0.0,0.0,0.0,0.0,0.0,0.0,0.0,0.0,0.0,0.0,0.0,0.0,0.0,0.0,0.0,0.0,0.0,0.0,0.0,0.0,0.0,0.0,0.0,0.0,0.0,0.0,0.0,0.0,0.0,0.0,0.0,0.0,0.0,0.0,0.0,0.0,0.0,0.0,0.0,0.0,0.0,0.0,0.0,0.0,0.0,0.0,0.0,0.0,0.0,0.0,0.0,0.0,0.0,0.0,0.0,0.0,0.0,0.0,0.0,0.0,0.0,0.0,0.0,0.0,0.0,0.0,0.0,0.0,0.0,0.0,0.0,0.0,0.0,0.0,0.0,0.0,0.0,0.0,-2.7211,-2.7261,-2.6844,-2.5977,-2.466,-2.2468,-1.9235,0.0,0.0,0.0,0.0,0.0,0.0,0.0,0.0,0.0,0.0,0.0,0.0,0.0,0.0,0.0,0.0,0.0,0.0,0.0,0.0,0.0,0.0,0.0,0.0,0.0,0.0,0.0,0.0,0.0,0.0,0.0,0.0,0.0,0.0,0.0,0.0,0.0,0.0,0.0,0.0,0.0,0.0,0.0,0.0,0.0,0.0,0.0,0.0,0.0,0.0,0.0,0.0,0.0,0.0,0.0,0.0,0.0,0.0,0.0,0.0,0.0,0.0,0.0,0.0,0.0,0.0,0.0,0.0,0.0,0.0,0.0,0.0,0.0,0.0,0.0,0.0,0.0,0.0,0.0,0.0,0.0,0.0,0.0,0.0,0.0,0.0,0.0,0.0,0.0,0.0,0.0,0.0,0.0,0.0,0.0,0.0,0.0,0.0,0.0,0.0,0.0,0.0,0.0,0.0,0.0,0.0,0.0,0.0,-2.3219,-2.4046,-2.4026,-2.3067,-2.2131,-2.041,0.0,0.0,0.0,0.0,0.0,0.0,0.0,0.0,0.0,0.0,0.0,0.0,0.0,0.0,0.0,0.0,0.0,0.0,0.0,0.0,0.0,0.0,0.0,0.0,0.0,0.0,0.0,0.0,0.0,0.0,0.0,0.0,0.0,0.0,0.0,0.0,0.0,0.0,0.0,0.0,0.0,0.0,0.0,0.0,0.0,0.0,0.0,0.0,0.0,0.0,0.0,0.0,0.0,0.0,0.0,0.0,0.0,0.0,0.0,0.0,0.0,0.0,0.0,0.0,0.0,0.0,0.0,0.0,0.0,0.0,0.0,0.0,0.0,0.0,0.0,0.0,0.0,0.0,0.0,0.0,0.0,0.0,0.0,0.0,0.0,0.0,0.0,0.0,0.0,0.0,0.0,0.0,0.0,0.0,0.0,0.0,0.0,0.0,0.0,0.0,0.0,0.0,0.0,0.0,0.0,0.0,0.0,0.0,-1.9058,-2.0424,-2.1142,-2.1402,-2.1005,-2.021,-1.8779,0.0,0.0,0.0,0.0,0.0,0.0,0.0,0.0,0.0,0.0,0.0,0.0,0.0,0.0,0.0,0.0,0.0,0.0,0.0,0.0,0.0,0.0,0.0,0.0,0.0,0.0,0.0,0.0,0.0,0.0,0.0,0.0,0.0,0.0,0.0,0.0,0.0,0.0,0.0,0.0,0.0,0.0,0.0,0.0,0.0,0.0,0.0,0.0,0.0,0.0,0.0,0.0,0.0,0.0,0.0,0.0,0.0,0.0,0.0,0.0,0.0,0.0,0.0,0.0,0.0,0.0,0.0,0.0,0.0,0.0,0.0,0.0,0.0,0.0,0.0,0.0,0.0,0.0,0.0,0.0,0.0,0.0,0.0,0.0,0.0,0.0,0.0,0.0,0.0,0.0,0.0,0.0,0.0,0.0,0.0,0.0,0.0,0.0,0.0,0.0,0.0,0.0,0.0,0.0,0.0,0.0,0.0,0.0,0.0,-1.9846,0.0,-2.0675,-2.059,-2.0289,-1.8907,0.0,0.0,0.0,0.0,0.0,0.0,0.0,0.0,0.0,0.0,0.0,0.0,0.0,0.0,0.0,0.0,0.0,0.0,0.0,0.0,0.0,0.0,0.0,0.0,0.0,0.0,0.0,0.0,0.0,0.0,0.0,0.0,0.0,0.0,0.0,0.0,0.0,0.0,0.0,0.0,0.0,0.0,0.0,0.0,0.0,0.0,0.0,0.0,0.0,0.0,0.0,0.0,0.0,0.0,0.0,0.0,0.0,0.0,0.0,0.0,0.0,0.0,0.0,0.0,0.0,0.0,0.0,0.0,0.0,0.0,0.0,0.0,0.0,0.0,0.0,0.0,0.0,0.0,0.0,0.0,0.0,0.0,0.0,0.0,0.0,0.0,0.0,0.0,0.0,0.0,0.0,0.0,0.0,0.0,0.0,0.0,0.0,0.0,0.0,0.0,0.0,0.0,0.0,0.0,0.0,0.0,0.0,0.0,0.0,-1.9724,-2.0066,-2.0145,-2.0012,-2.0065,-1.8838,0.0,0.0,0.0,0.0,0.0,0.0,0.0,0.0,0.0,0.0,0.0,0.0,0.0,0.0,0.0,0.0,0.0,0.0,0.0,0.0,0.0,0.0,0.0,0.0,0.0,0.0,0.0,0.0,0.0,0.0,0.0,0.0,0.0,0.0,0.0,0.0,0.0,0.0,0.0,0.0,0.0,0.0,0.0,0.0,0.0,0.0,0.0,0.0,0.0,0.0,0.0,0.0,0.0,0.0,0.0,0.0,0.0,0.0,0.0,0.0,0.0,0.0,0.0,0.0,0.0,0.0,0.0,0.0,0.0,0.0,0.0,0.0,0.0,0.0,0.0,0.0,0.0,0.0,0.0,0.0,0.0,0.0,0.0,0.0,0.0,0.0,0.0,0.0,0.0,0.0,0.0,0.0,0.0,0.0,0.0,0.0,0.0,0.0,0.0,0.0,0.0,0.0,0.0,0.0,0.0,0.0,0.0,0.0,0.0,-1.9842,-1.9898,-1.9652,-1.9304,-1.938,-1.8488,0.0,0.0,0.0,0.0,0.0,0.0,0.0,0.0,0.0,0.0,0.0,0.0,0.0,0.0,0.0,0.0,0.0,0.0,0.0,0.0,0.0,0.0,0.0,0.0,0.0,0.0,0.0,0.0,0.0,0.0,0.0,0.0,0.0,0.0,0.0,0.0,0.0,0.0,0.0,0.0,0.0,0.0,0.0,0.0,0.0,0.0,0.0,0.0,0.0,0.0,0.0,0.0,0.0,0.0,0.0,0.0,0.0,0.0,0.0,0.0,0.0,0.0,0.0,0.0,0.0,0.0,0.0,0.0,0.0,0.0,0.0,0.0,0.0,0.0,0.0,0.0,0.0,0.0,0.0,0.0,0.0,0.0,0.0,0.0,0.0,0.0,0.0,0.0,0.0,0.0,0.0,0.0,0.0,0.0,0.0,0.0,0.0,0.0,0.0,0.0,0.0,0.0,0.0,0.0,0.0,0.0,0.0,0.0,0.0,0.0,-1.9805,-2.002,-1.9825,-1.9849,-1.8887,-1.6807,0.0,0.0,0.0,0.0,0.0,0.0,0.0,0.0,0.0,0.0,0.0,0.0,0.0,0.0,0.0,0.0,0.0,0.0,0.0,0.0,0.0,0.0,0.0,0.0,0.0,0.0,0.0,0.0,0.0,0.0,0.0,0.0,0.0,0.0,0.0,0.0,0.0,0.0,0.0,0.0,0.0,0.0,0.0,0.0,0.0,0.0,0.0,0.0,0.0,0.0,0.0,0.0,0.0,0.0,0.0,0.0,0.0,0.0,0.0,0.0,0.0,0.0,0.0,0.0,0.0,0.0,0.0,0.0,0.0,0.0,0.0,0.0,0.0,0.0,0.0,0.0,0.0,0.0,0.0,0.0,0.0,0.0,0.0,0.0,0.0,0.0,0.0,0.0,0.0,0.0,0.0,0.0,0.0,0.0,0.0,0.0,0.0,0.0,0.0,0.0,0.0,0.0,0.0,0.0,0.0,0.0,0.0,0.0,0.0,0.0,-2.0383,-2.019,-2.019,-1.9208,0.0,0.0,0.0,0.0,0.0,0.0,0.0,0.0,0.0,0.0,0.0,0.0,0.0,0.0,0.0,0.0,0.0,0.0,0.0,0.0,0.0,0.0,0.0,0.0,0.0,0.0,0.0,0.0,0.0,0.0,0.0,0.0,0.0,0.0,0.0,0.0,0.0,0.0,0.0,0.0,0.0,0.0,0.0,0.0,0.0,0.0,0.0,0.0,0.0,0.0,0.0,0.0,0.0,0.0,0.0,0.0,0.0,0.0,0.0,0.0,0.0,0.0,0.0,0.0,0.0,0.0,0.0,0.0,0.0,0.0,0.0,0.0,0.0,0.0,0.0,0.0,0.0,0.0,0.0,0.0,0.0,0.0,0.0,0.0,0.0,0.0,0.0,0.0,0.0,0.0,0.0,0.0,0.0,0.0,0.0,0.0,0.0,0.0,0.0,0.0,0.0,0.0,0.0,0.0,0.0,0.0,0.0,0.0,0.0,0.0,0.0,-2.0717,-2.0503,-2.0503,0.0,-1.761,0.0,0.0,0.0,0.0,0.0,0.0,0.0,0.0,0.0,0.0,0.0,0.0,0.0,0.0,0.0,0.0,0.0,0.0,0.0,0.0,0.0,0.0,0.0,0.0,0.0,0.0,0.0,0.0,0.0,0.0,0.0,0.0,0.0,0.0,0.0,0.0,0.0,0.0,0.0,0.0,0.0,0.0,0.0,0.0,0.0,0.0,0.0,0.0,0.0,0.0,0.0,0.0,0.0,0.0,0.0,0.0,0.0,0.0,0.0,0.0,0.0,0.0,0.0,0.0,0.0,0.0,0.0,0.0,0.0,0.0,0.0,0.0,0.0,0.0,0.0,0.0,0.0,0.0,0.0,0.0,0.0,0.0,0.0,0.0,0.0,0.0,0.0,0.0,0.0,0.0,0.0,0.0,0.0,0.0,0.0,0.0,0.0,0.0,0.0,0.0,0.0,0.0,0.0,0.0,0.0,0.0,0.0,0.0,0.0,0.0,0.0,0.0,-2.1046,-2.0353,-1.8977,0.0,0.0,0.0,0.0,0.0,0.0,0.0,0.0,0.0,0.0,0.0,0.0,0.0,0.0,0.0,0.0,0.0,0.0,0.0,0.0,0.0,0.0,0.0,0.0,0.0,0.0,0.0,0.0,0.0,0.0,0.0,0.0,0.0,0.0,0.0,0.0,0.0,0.0,0.0,0.0,0.0,0.0,0.0,0.0,0.0,0.0,0.0,0.0,0.0,0.0,0.0,0.0,0.0,0.0,0.0,0.0,0.0,0.0,0.0,0.0,0.0,0.0,0.0,0.0,0.0,0.0,0.0,0.0,0.0,0.0,0.0,0.0,0.0,0.0,0.0,0.0,0.0,0.0,0.0,0.0,0.0,0.0,0.0,0.0,0.0,0.0,0.0,0.0,0.0,0.0,0.0,0.0,0.0,0.0,0.0,0.0,0.0,0.0,0.0,0.0,0.0,0.0,0.0,0.0,0.0,0.0,0.0,0.0,0.0,0.0,-2.1323,-2.1154,-2.1154,-2.0447,-1.8786,0.0,0.0,0.0,0.0,0.0,0.0,0.0,0.0,0.0,0.0,0.0,0.0,0.0,0.0,0.0,0.0,0.0,0.0,0.0,0.0,0.0,0.0,0.0,0.0,0.0,0.0,0.0,0.0,0.0,0.0,0.0,0.0,0.0,0.0,0.0,0.0,0.0,0.0,0.0,0.0,0.0,0.0,0.0,0.0,0.0,0.0,0.0,0.0,0.0,0.0,0.0,0.0,0.0,0.0,0.0,0.0,0.0,0.0,0.0,0.0,0.0,0.0,0.0,0.0,0.0,0.0,0.0,0.0,0.0,0.0,0.0,0.0,0.0,0.0,0.0,0.0,0.0,0.0,0.0,0.0,0.0,0.0,0.0,0.0,0.0,0.0,0.0,0.0,0.0,0.0,0.0,0.0,0.0,0.0,0.0,0.0,0.0,0.0,0.0,0.0,0.0,0.0,0.0,0.0,0.0,0.0,0.0,0.0,0.0,0.0,0.0,0.0,0.0,0.0,-1.8275,0.0,0.0,0.0,0.0,0.0,0.0,0.0,0.0,0.0,0.0,0.0,0.0,0.0,0.0,0.0,0.0,0.0,0.0,0.0,0.0,0.0,0.0,0.0,0.0,0.0,0.0,0.0,0.0,0.0,0.0,0.0,0.0,0.0,0.0,0.0,0.0,0.0,0.0,0.0,0.0,0.0,0.0,0.0,0.0,0.0,0.0,0.0,0.0,0.0,0.0,0.0,0.0,0.0,0.0,0.0,0.0,0.0,0.0,0.0,0.0,0.0,0.0,0.0,0.0,0.0,0.0,0.0,0.0,0.0,0.0,0.0,0.0,0.0,0.0,0.0,0.0,0.0,0.0,0.0,0.0,0.0,0.0,0.0,0.0,0.0,0.0,0.0,0.0,0.0,0.0,0.0,0.0,0.0,0.0,0.0,0.0,0.0,0.0,0.0,0.0,0.0,0.0,0.0,0.0,0.0,0.0,0.0,0.0,0.0,0.0,0.0,0.0,0.0,0.0,0.0,0.0,0.0,0.0,0.0,0.0,0.0,0.0,0.0,0.0,0.0,0.0,0.0,0.0,0.0,0.0,0.0,0.0,0.0,0.0,0.0,0.0,0.0,0.0,0.0,0.0,0.0,0.0,0.0,0.0,0.0,0.0,0.0,0.0,0.0,0.0,0.0,0.0,0.0,0.0,0.0,0.0,0.0,0.0,0.0,0.0,0.0,0.0,0.0,0.0,0.0,0.0,0.0,0.0,0.0,0.0,0.0,0.0,0.0,0.0,0.0,0.0,0.0,0.0,0.0,0.0,0.0,0.0,0.0,0.0,0.0,0.0,0.0,0.0,0.0,0.0,0.0,0.0,0.0,0.0,0.0,0.0,0.0,0.0,0.0,0.0,0.0,0.0,0.0,0.0,0.0,0.0,0.0,0.0,0.0,0.0,0.0,0.0,0.0,0.0,0.0,0.0,0.0,0.0,0.0,0.0,0.0,0.0,0.0,0.0,0.0,0.0,0.0,0.0,0.0,0.0,0.0,0.0,0.0,0.0,0.0,0.0,0.0,0.0,0.0,0.0,0.0,0.0,0.0,0.0,0.0,0.0,0.0,0.0,0.0,0.0,0.0,0.0,0.0,0.0,0.0,0.0,0.0,0.0,0.0,0.0,0.0,0.0,0.0,0.0,0.0,0.0,0.0,0.0,0.0,0.0,0.0,0.0,0.0,0.0,0.0,0.0,0.0,0.0,0.0,0.0,0.0,0.0,0.0,0.0,0.0,0.0,0.0,0.0,0.0,0.0,0.0,0.0,0.0,0.0,0.0,0.0,0.0,0.0,0.0,0.0,0.0,0.0,0.0,0.0,0.0,0.0,0.0,0.0,0.0,0.0,0.0,0.0,0.0,0.0,0.0,0.0,0.0,0.0,0.0,0.0,0.0,0.0,0.0,0.0,0.0,0.0,0.0,0.0,0.0,0.0,0.0,0.0,0.0,0.0,0.0,0.0,0.0,0.0,0.0,0.0,0.0,0.0,0.0,0.0,0.0,0.0,0.0,0.0,0.0,0.0,0.0,0.0,0.0,0.0,0.0,0.0,0.0,0.0,0.0,0.0,0.0,0.0,0.0,0.0,0.0,0.0,0.0,0.0,0.0,0.0,0.0,0.0,0.0,0.0,0.0,0.0,0.0,0.0,0.0,0.0,0.0,0.0,0.0,0.0,0.0,0.0,0.0,0.0,0.0,0.0,0.0,0.0,0.0,0.0,0.0,0.0,0.0,0.0,0.0,0.0,0.0,0.0,0.0,0.0,0.0,0.0,0.0,0.0,0.0,0.0,0.0,0.0,0.0,0.0,0.0,0.0,0.0,0.0,0.0,0.0,0.0,0.0,0.0,0.0,0.0,0.0,0.0,0.0,0.0,0.0,0.0,0.0,0.0,0.0,0.0,0.0,0.0,0.0,0.0,0.0,0.0,0.0,0.0,0.0,0.0,0.0,0.0,0.0,0.0,0.0,0.0,0.0,0.0,0.0,0.0,0.0,0.0,0.0,0.0,0.0,0.0,0.0,0.0,0.0,0.0,0.0,0.0,0.0,0.0,0.0,0.0,0.0,0.0,0.0,0.0,0.0,0.0,0.0,0.0,0.0,0.0,0.0,0.0,0.0,0.0,0.0,0.0,0.0,0.0,0.0,0.0,0.0,0.0,0.0,0.0,0.0,0.0,0.0,0.0,0.0,0.0,0.0,0.0,0.0,0.0,0.0,0.0,0.0,0.0,0.0,0.0,0.0,0.0,0.0,0.0,0.0,0.0,0.0,0.0,0.0,0.0,0.0,0.0,0.0,0.0,0.0,0.0,0.0,0.0,0.0,0.0,0.0,0.0,0.0,0.0,0.0,0.0,0.0,0.0,0.0,0.0,0.0,0.0,0.0,0.0,0.0,0.0,0.0,0.0,0.0,0.0,0.0,0.0,0.0,0.0,0.0,0.0,0.0,0.0,0.0,0.0,0.0,0.0,0.0,0.0,0.0,0.0,0.0,0.0,0.0,0.0,0.0,0.0,0.0,0.0,0.0,0.0,0.0,0.0,0.0,0.0,0.0,0.0,0.0,0.0,0.0,0.0,0.0,0.0,0.0,0.0,0.0,0.0,0.0,0.0,0.0,0.0,0.0,0.0,0.0,0.0,0.0,0.0,0.0,0.0,0.0,0.0,0.0,0.0,0.0,0.0,0.0,0.0,0.0,0.0,0.0,0.0,0.0,0.0,0.0,0.0,0.0,0.0,0.0,0.0,0.0,0.0,0.0,0.0,0.0,0.0,0.0,0.0,0.0,0.0,0.0,0.0,0.0,0.0,0.0,0.0,0.0,0.0,0.0,0.0,0.0,0.0,0.0,0.0,0.0,0.0,0.0,0.0,0.0,0.0,0.0,0.0,0.0,0.0,0.0,0.0,0.0,0.0,0.0,0.0,0.0,0.0,0.0,0.0,0.0,0.0,0.0,0.0,0.0,0.0,0.0,0.0,0.0,0.0,0.0,0.0,0.0,0.0,0.0,0.0,0.0,0.0,0.0,0.0,0.0,0.0,0.0,0.0,0.0,0.0,0.0,0.0,0.0,0.0,0.0,0.0,0.0,0.0,0.0,0.0,0.0,0.0,0.0,0.0,0.0,0.0,0.0,0.0,0.0,0.0,0.0,0.0,0.0,0.0,0.0,0.0,0.0,0.0,0.0,0.0,0.0,0.0,0.0,0.0,0.0,0.0,0.0,0.0,0.0,0.0,0.0,0.0,0.0,0.0,0.0,0.0,0.0,0.0,0.0,0.0,0.0,0.0,0.0,0.0,0.0,0.0,0.0,0.0,0.0,0.0,0.0,0.0,0.0,0.0,0.0,0.0,0.0,0.0,0.0,0.0,0.0,0.0,0.0,0.0,0.0,0.0,0.0,0.0,0.0,0.0,0.0,0.0,0.0,0.0,0.0,0.0,0.0,0.0,0.0,0.0,0.0,0.0,0.0,0.0,0.0,0.0,0.0,0.0,0.0,0.0,0.0,0.0,0.0,0.0,0.0,0.0,0.0,0.0,0.0,0.0,0.0,0.0,0.0,0.0,0.0,0.0,0.0,0.0,0.0,0.0,0.0,0.0,0.0,0.0,0.0,0.0,0.0,0.0,0.0,0.0,0.0,0.0,0.0,0.0,0.0,0.0,0.0,0.0,0.0,0.0,0.0,0.0,0.0,0.0,0.0,0.0,0.0,0.0,0.0,0.0,0.0,0.0,0.0,0.0,0.0,0.0,0.0,0.0,0.0,0.0,0.0,0.0,0.0,0.0,0.0,0.0,0.0,0.0,0.0,0.0,0.0,0.0,0.0,0.0,0.0,0.0,0.0,0.0,0.0,0.0,0.0,0.0,0.0,0.0,0.0,0.0,0.0,0.0,0.0,0.0,0.0,0.0,0.0,0.0,0.0,0.0,0.0,0.0,0.0,0.0,0.0,0.0,0.0,0.0,0.0,0.0,0.0,0.0,0.0,0.0,0.0,0.0,0.0,0.0,0.0,0.0,0.0,0.0,0.0,0.0,0.0,0.0,0.0,0.0,0.0,0.0,0.0,0.0,0.0,0.0,0.0,0.0,0.0,0.0,0.0,0.0,0.0,0.0,0.0,0.0,0.0,0.0,0.0,0.0,0.0,0.0,0.0,0.0,0.0,0.0,0.0,0.0,0.0,0.0,0.0,0.0,0.0,0.0,0.0,0.0,0.0,0.0,0.0,0.0,0.0,0.0,0.0,0.0,0.0,0.0,0.0,0.0,0.0,0.0,0.0,0.0,0.0,0.0,0.0,0.0,0.0,0.0,0.0,0.0,0.0,0.0,0.0,0.0,0.0,0.0,0.0,0.0,0.0]}],[{"header":{"parameterUnit":"kt","parameterCategory":2,"dx":1,"dy":1,"la1":29.587661999999998,"la2":31.0,"lo1":-88.76705300000003,"lo2":-86.6583820000003,"nx":115,"ny":88,"refTime":"2022-10-13T06:00:00:Z","depth":0,"parameterNumber":2,"parameterNumberName":"V-component_of_WINDS"},"data":[10.7318,10.7318,10.7318,10.7318,10.7318,10.7318,10.7318,10.7318,10.7318,10.7318,10.7318,10.7318,10.7318,10.7318,10.7318,10.7318,10.7318,10.7318,10.7318,10.7318,10.7318,10.7318,10.7318,10.7318,10.7318,10.7318,10.7318,10.7318,10.7318,10.7318,10.7318,10.7318,10.7318,10.7318,10.7318,10.7318,10.7318,10.7318,10.7318,10.7318,10.7318,10.7318,10.7318,10.7318,10.7318,10.7318,10.7318,10.7318,10.7318,10.7318,10.7318,10.7318,10.7318,10.7318,10.7318,10.7318,10.7318,10.7318,10.7318,10.7358,10.7456,10.7553,10.8041,10.8718,10.9006,10.9579,10.9863,10.9898,11.0181,11.0181,11.0181,11.0275,10.9797,10.9797,10.9557,10.9729,10.8975,11.0099,11.1307,10.9739,10.7931,10.7695,10.7813,10.7729,10.713,10.7596,10.7229,10.7707,10.8663,10.952,11.0422,11.1077,11.1869,11.1941,11.1941,11.2013,11.2299,11.2442,11.2513,11.2513,11.1987,11.0803,10.9751,10.9422,10.8633,10.7449,10.6594,10.5739,10.5279,10.5082,10.4293,10.403,10.4095,10.4488,10.4877,10.7259,10.7318,10.7318,10.7318,10.7318,10.7318,10.7318,10.7318,10.7318,10.7318,10.7318,10.7318,10.7318,10.7318,10.7318,10.7318,10.7318,10.7318,10.7318,10.7318,10.7318,10.7318,10.7318,10.7318,10.7318,10.7318,10.7318,10.7318,10.7318,10.7318,10.7318,10.7318,10.7318,10.7318,10.7318,10.7318,10.7318,10.7318,10.7318,10.7318,10.7318,10.7318,10.7318,10.7318,10.7318,10.7318,10.7318,10.7318,10.7318,10.7318,10.7318,10.7318,10.7318,10.7318,10.7318,10.7318,10.7318,10.7318,10.7318,10.7318,10.7318,10.7456,10.7846,10.8138,10.8332,10.8659,10.9234,10.9555,10.9968,11.0156,11.0156,11.007,10.9258,10.8779,10.842,10.8217,10.6417,10.5244,10.5601,10.5662,10.4725,10.4227,10.4487,10.4933,10.5251,10.5995,10.6442,10.6846,10.7247,10.7975,10.8458,10.9139,11.0783,11.1435,11.1435,11.1653,11.2085,11.2228,11.2513,11.2513,11.2052,11.0277,10.9027,10.8436,10.7318,10.6134,10.5148,10.4819,10.449,10.4293,10.403,10.403,10.4029,10.416,10.4418,10.662,10.7259,10.7318,10.7318,10.7318,10.7318,10.7318,10.7318,10.7318,10.7318,10.7318,10.7318,10.7318,10.7318,10.7318,10.7318,10.7318,10.7318,10.7318,10.7318,10.7318,10.7318,10.7318,10.7318,10.7318,10.7318,10.7318,10.7318,10.7318,10.7318,10.7318,10.7318,10.7318,10.7318,10.7318,10.7318,10.7318,10.7318,10.7318,10.7318,10.7318,10.7318,10.7318,10.7318,10.7318,10.7318,10.7318,10.7318,10.7318,10.7318,10.7318,10.7318,10.7318,10.7318,10.7318,10.7318,10.7318,10.7318,10.7318,10.7318,10.7318,10.7456,10.7749,10.7944,10.8041,10.7333,10.7752,10.7989,10.8493,10.8507,10.86,10.86,10.7942,10.7523,10.7164,10.6206,10.4531,10.3306,10.3454,10.3574,10.3331,10.2959,10.3131,10.3587,10.3672,10.4436,10.4098,10.4351,10.5294,10.6136,10.6298,10.7104,10.9962,11.1142,11.0496,11.0718,11.1029,11.1811,11.2371,11.1567,11.0437,10.9145,10.7844,10.6463,10.5279,10.4556,10.4556,10.4359,10.4096,10.403,10.403,10.403,10.403,10.4029,10.4225,10.598,10.6852,10.7143,10.7318,10.7318,10.7318,10.7318,10.7318,10.7318,10.7318,10.7318,10.7318,10.7318,10.7318,10.7318,10.7318,10.7318,10.7318,10.7318,10.7318,10.7318,10.7318,10.7318,10.7318,10.7318,10.7318,10.7318,10.7318,10.7318,10.7318,10.7318,10.7318,10.7318,10.7318,10.7318,10.7318,10.7318,10.7318,10.7318,10.7318,10.7318,10.7318,10.7318,10.7318,10.7318,10.7318,10.7318,10.7318,10.7318,10.7318,10.7318,10.7318,10.7318,10.7318,10.7318,10.7318,10.7318,10.7318,10.7318,10.7318,10.7318,10.7456,10.7553,10.7749,10.7417,10.6437,10.6053,10.6227,10.6396,10.6348,10.6443,10.6475,10.6386,10.6056,10.5757,10.4352,10.2856,10.2616,10.2557,10.2557,10.2557,10.2497,10.2497,10.2524,10.2497,10.2497,10.2497,10.2959,10.4121,10.4543,10.4878,10.638,10.9139,10.9823,10.9316,10.9048,10.8837,10.9434,10.9858,10.9344,10.8551,10.7224,10.5937,10.4556,10.3964,10.4161,10.4161,10.403,10.403,10.403,10.403,10.403,10.403,10.4095,10.4095,10.5398,10.5689,10.6794,10.7201,10.7318,10.7318,10.7318,10.7318,10.7318,10.7259,10.7201,10.7259,10.7259,10.7027,10.7259,10.7318,10.7318,10.7318,10.7318,10.7318,10.7318,10.7318,10.7318,10.7318,10.7318,10.7318,10.7318,10.7318,10.7318,10.7318,10.7318,10.7318,10.7318,10.7318,10.7318,10.7318,10.7318,10.7318,10.7318,10.7318,10.7318,10.7318,10.7318,10.7318,10.7318,10.7318,10.7318,10.7318,10.7318,10.7318,10.7318,10.7318,10.7318,10.7318,10.7318,10.7318,10.7318,10.7318,10.7318,10.7318,10.7318,10.7259,10.7358,10.7106,10.6501,10.5558,10.5087,10.523,10.5153,10.5249,10.5159,10.5159,10.501,10.4711,10.4442,10.3605,10.2676,10.2497,10.2497,10.2497,10.2497,10.2497,10.2497,10.2497,10.2497,10.2497,10.2611,10.3071,10.3587,10.3415,10.4206,10.5624,10.7041,10.7534,10.7219,10.712,10.6704,10.6475,10.6665,10.6313,10.5957,10.5048,10.3964,10.3898,10.3767,10.3898,10.403,10.403,10.403,10.403,10.403,10.403,10.4029,10.4159,10.4224,10.3944,10.534,10.5922,10.662,10.7201,10.7318,10.7318,10.7318,10.7318,10.6736,10.6271,10.691,10.6852,10.6445,10.691,10.7259,10.7259,10.7201,10.7259,10.7201,10.7318,10.7318,10.7318,10.7318,10.7318,10.7318,10.7318,10.7318,10.7318,10.7318,10.7318,10.7318,10.7318,10.7318,10.7318,10.7318,10.7318,10.7318,10.7318,10.7318,10.7318,10.7318,10.7318,10.7318,10.7318,10.7318,10.7318,10.7318,10.7318,10.7318,10.7318,10.7318,10.7318,10.7318,10.7318,10.7259,10.7201,10.7143,10.7027,10.7085,10.7201,10.7085,10.6561,10.5863,10.5024,10.4385,10.4119,10.3986,10.3994,10.4023,10.3964,10.3993,10.3634,10.3334,10.3215,10.2947,10.2796,10.2497,10.2497,10.2497,10.2497,10.2497,10.2497,10.2497,10.2497,10.2497,10.2698,10.3071,10.3157,10.2959,10.3757,10.4543,10.5005,10.5418,10.5339,10.5192,10.4675,10.4259,10.4129,10.3838,10.3447,10.3051,10.3419,10.3563,10.3568,10.3767,10.3898,10.3964,10.3964,10.403,10.403,10.3767,10.3636,10.383,10.4218,10.2548,10.4293,10.5107,10.5922,10.6678,10.6736,10.6969,10.7201,10.6794,10.6561,10.598,10.6503,10.6503,10.5922,10.6445,10.691,10.6969,10.6969,10.6969,10.7201,10.7318,10.7318,10.7318,10.7318,10.7318,10.7318,10.7318,10.7318,10.7318,10.7318,10.7318,10.7318,10.7318,10.7318,10.7318,10.7318,10.7318,10.7318,10.7318,10.7318,10.7318,10.7318,10.7318,10.7318,10.7318,10.7318,10.7318,10.7318,10.7318,10.7318,10.7318,10.7318,10.7318,10.7318,10.7259,10.7259,10.6852,10.6561,10.6212,10.6154,10.598,10.5631,10.4758,10.3711,10.3273,10.2743,10.2377,10.2354,10.2448,10.2685,10.2714,10.2743,10.2712,10.262,10.2796,10.2736,10.2676,10.2497,10.2497,10.2497,10.2497,10.2497,10.2497,10.2497,10.2497,10.2497,10.2611,10.2959,10.2985,10.2785,10.3131,10.3218,10.3551,10.3634,10.3446,10.2499,10.2156,10.182,10.1576,10.1235,10.0826,10.102,10.2433,10.294,10.2963,10.3171,10.3635,10.3701,10.3635,10.3701,10.3767,10.3373,10.3111,10.3303,10.3556,10.1501,10.1966,10.4293,10.534,10.5456,10.5456,10.6096,10.7085,10.6038,10.6154,10.7027,10.5922,10.6096,10.6736,10.6038,10.6271,10.7027,10.6038,10.6445,10.6969,10.6969,10.7201,10.7201,10.7318,10.7318,10.7318,10.7318,10.7318,10.7318,10.7318,10.7318,10.7318,10.7318,10.7318,10.7318,10.7318,10.7318,10.7318,10.7318,10.7318,10.7318,10.7318,10.7318,10.7318,10.7318,10.7318,10.7318,10.7318,10.7318,10.7318,10.7318,10.7318,10.7259,10.7259,10.7259,10.691,10.5922,10.4991,10.4235,10.4118,10.3944,10.342,10.2373,10.2187,10.173,10.1361,10.1164,10.1289,10.1528,10.1617,10.1675,10.1911,10.2087,10.2262,10.2497,10.2497,10.2497,10.2497,10.2497,10.2497,10.2497,10.2497,10.2497,10.2497,10.2497,10.2377,10.2225,10.2571,10.2665,10.2377,10.1506,10.1626,10.1798,10.179,10.0613,9.9305,9.8886,9.8497,9.8427,9.8904,9.8027,9.796,10.0296,10.1988,10.2082,10.2497,10.3037,10.3238,10.3238,10.3304,10.3436,10.2977,10.2259,10.2515,10.2768,10.0687,10.1559,10.2432,10.3769,10.5107,10.4409,10.4816,10.598,10.6503,10.6329,10.6212,10.6561,10.6503,10.6212,10.6387,10.7027,10.7085,10.598,10.6038,10.7027,10.6503,10.662,10.7027,10.7318,10.7201,10.7318,10.7318,10.7318,10.7318,10.7318,10.7318,10.7318,10.7318,10.7318,10.7318,10.7318,10.7318,10.7318,10.7318,10.7318,10.7318,10.7318,10.7318,10.7318,10.7318,10.7318,10.7318,10.7318,10.7318,10.7318,10.7318,10.7318,10.6969,10.662,10.6038,10.5689,10.4875,10.3944,10.342,10.3246,10.2257,10.1385,10.057,10.0313,10.023,10.0419,10.0456,10.0608,10.1203,10.141,10.1675,10.2174,10.2262,10.235,10.2497,10.2497,10.2497,10.2497,10.2497,10.2497,10.2497,10.2497,10.2497,10.2497,10.2317,10.2018,10.1719,10.2018,10.2257,10.0881,9.9625,9.9924,10.0129,9.9555,9.8416,9.6992,9.6214,9.5376,9.5901,9.6823,9.6301,9.6782,9.8968,10.0971,10.1119,10.1538,10.2292,10.2768,10.2768,10.2836,10.264,10.2125,10.1604,10.1731,10.2118,10.0047,10.0861,10.1268,10.249,10.3769,10.3071,10.3479,10.4758,10.598,10.6445,10.6212,10.6329,10.6096,10.5631,10.5805,10.5689,10.5573,10.47,10.4758,10.5689,10.5107,10.5631,10.6212,10.6561,10.6794,10.7143,10.7318,10.7318,10.7318,10.7318,10.7318,10.7318,10.7318,10.7259,10.7259,10.7318,10.7318,10.7318,10.7318,10.7318,10.7318,10.7318,10.7318,10.7318,10.7318,10.7318,10.7318,10.7318,10.7318,10.7318,10.6561,10.6561,10.6329,10.534,10.4758,10.4409,10.3479,10.2781,10.2722,10.2141,10.121,10.0396,9.9698,9.9698,9.9581,9.9945,10.0036,10.0158,10.0428,10.0787,10.1233,10.1646,10.2087,10.2087,10.2262,10.2262,10.2497,10.2497,10.2497,10.2497,10.2497,10.2497,10.2497,10.2497,10.2018,10.1659,10.0522,10.0642,9.9625,9.8248,9.8308,9.8607,9.8368,9.7471,9.6753,9.6035,9.5257,9.4898,9.506,9.5358,9.5988,9.655,9.8075,9.9115,9.9844,10.0489,10.0907,10.1259,10.1746,10.1767,10.1182,10.0606,10.0298,10.0491,10.1336,9.949,9.9698,10.0861,10.1385,10.1559,10.1443,10.2141,10.3479,10.4642,10.5689,10.6387,10.5689,10.5224,10.4991,10.4235,10.4118,10.3711,10.2781,10.2897,10.406,10.4351,10.4642,10.534,10.598,10.662,10.7143,10.7318,10.7318,10.7318,10.7318,10.7318,10.7318,10.7259,10.7201,10.7201,10.7201,10.7259,10.7318,10.7318,10.7318,10.7318,10.7318,10.7318,10.7201,10.7085,10.7085,10.6969,10.6852,10.6561,10.6561,10.5922,10.5398,10.5165,10.406,10.342,10.3246,10.2141,10.1501,10.1385,10.0279,9.993,9.964,9.9581,9.9581,9.9581,9.9581,9.9672,9.9705,9.9887,10.0068,10.0158,10.0518,10.1144,10.1587,10.1851,10.2087,10.235,10.2497,10.2497,10.2497,10.2497,10.2497,10.2497,10.2317,10.1719,10.0702,9.9385,9.783,9.6334,9.6035,9.7291,9.7411,9.6992,9.6334,9.5915,9.5137,9.4718,9.4599,9.4559,9.472,9.5199,9.5692,9.6395,9.7166,9.815,9.9115,9.9481,9.9699,9.9103,9.8724,9.8728,9.9412,9.9057,9.9319,10.101,9.9158,9.9581,9.9989,10.0105,10.0163,10.0105,10.0861,10.1966,10.249,10.3362,10.4467,10.4177,10.3944,10.3886,10.3573,10.3399,10.3013,10.2897,10.3595,10.4002,10.4467,10.5573,10.6329,10.6678,10.6445,10.7143,10.7318,10.7318,10.7318,10.7318,10.7143,10.7085,10.7259,10.6561,10.6212,10.598,10.6387,10.7085,10.7318,10.7318,10.7201,10.7143,10.7143,10.7027,10.6271,10.6271,10.6503,10.5689,10.534,10.5282,10.4816,10.4118,10.3537,10.2897,10.2199,10.1617,10.0977,10.0163,10.0105,9.9756,9.9581,9.9581,9.9581,9.9581,9.9581,9.9581,9.9581,9.9581,9.9796,10.0158,10.0248,10.0697,10.1321,10.141,10.1675,10.2087,10.2262,10.2497,10.2497,10.2497,10.2497,10.2497,10.2437,10.2198,10.142,10.0103,9.8607,9.6812,9.5197,9.5317,9.6334,9.6094,9.5795,9.5496,9.5197,9.4898,9.4599,9.4479,9.4479,9.4479,9.4479,9.464,9.5278,9.6084,9.7013,9.7774,9.8026,9.7976,9.7154,9.6119,9.7337,9.8735,9.8524,9.9255,10.0885,9.8791,9.9158,9.9032,9.9124,9.9249,9.9249,9.9805,10.0745,10.1268,10.1966,10.2722,10.313,10.313,10.2722,10.2606,10.2432,10.1966,10.1908,10.2257,10.2955,10.3304,10.3944,10.4875,10.5224,10.6096,10.6503,10.7085,10.7318,10.7201,10.7318,10.6969,10.598,10.5573,10.5165,10.4933,10.4642,10.4933,10.5514,10.5689,10.5747,10.5747,10.5747,10.5747,10.5747,10.4816,10.5165,10.5456,10.406,10.406,10.406,10.3304,10.2839,10.249,10.1385,10.0803,10.057,10.0163,9.9698,9.964,9.964,9.9581,9.9581,9.9581,9.9581,9.9581,9.9581,9.9581,9.9581,9.9763,9.9945,10.0068,10.0697,10.1321,10.1558,10.1823,10.2087,10.235,10.2409,10.2497,10.2437,10.2437,10.2317,10.2198,10.1958,10.0642,9.9385,9.771,9.6154,9.5197,9.4898,9.5137,9.5017,9.5017,9.4778,9.4778,9.4658,9.4479,9.4479,9.4479,9.4479,9.4479,9.4479,9.464,9.5278,9.6084,9.624,9.6351,9.6199,9.5877,9.5248,9.6063,9.7495,9.8493,9.9313,10.0429,9.8294,9.8606,9.8294,9.8387,9.8699,9.8699,9.8975,9.9539,10.0711,10.1175,10.135,10.2315,10.2141,10.1559,10.1268,10.0803,9.9756,9.9698,10.0338,10.0279,9.9989,10.1443,10.249,10.3595,10.4235,10.5282,10.5922,10.6503,10.6794,10.6329,10.5282,10.3769,10.406,10.3595,10.3304,10.3537,10.3769,10.3479,10.3886,10.3923,10.3769,10.3769,10.3711,10.3653,10.342,10.3304,10.342,10.2955,10.2897,10.313,10.2024,10.1385,10.121,10.0396,9.9989,9.993,9.964,9.9581,9.9581,9.9581,9.9581,9.9581,9.9581,9.9581,9.9581,9.9581,9.9581,9.9581,9.9672,9.9672,9.9763,10.0068,10.0846,10.1203,10.1735,10.2087,10.235,10.2437,10.2377,10.2437,10.2257,10.1958,10.1719,10.0343,9.9026,9.8009,9.6453,9.5616,9.4718,9.4479,9.4479,9.4479,9.4479,9.4479,9.4479,9.4479,9.4479,9.4479,9.4479,9.4479,9.4479,9.4479,9.4479,9.496,9.5199,9.48,9.46,9.3589,9.3173,9.3631,9.4314,9.5172,9.6187,9.7963,9.9571,9.7641,9.7735,9.7641,9.7828,9.8294,9.8294,9.8387,9.8629,9.9195,9.9437,9.9645,10.0212,10.0454,10.0105,10.0105,9.9989,9.964,10.057,10.0919,10.1385,10.1908,10.2315,10.249,10.2897,10.3479,10.3886,10.4526,10.4467,10.4467,10.4293,10.4002,10.342,10.2955,10.2722,10.2432,10.2548,10.2664,10.2083,10.2722,10.3071,10.313,10.3188,10.3188,10.3013,10.2606,10.2373,10.2839,10.1792,10.1268,10.1501,10.0803,10.0221,10.0221,9.9814,9.9581,9.9581,9.9581,9.9581,9.9581,9.9581,9.9581,9.9581,9.9581,9.9581,9.9581,9.9581,9.9581,9.9581,9.9581,9.9581,9.9763,10.0307,10.0756,10.1203,10.1646,10.2087,10.235,10.2198,10.2018,10.1898,10.1659,10.142,10.0103,9.8667,9.753,9.6573,9.5795,9.4958,9.4658,9.4479,9.4479,9.4479,9.4479,9.4479,9.4479,9.4479,9.4479,9.4479,9.4479,9.4479,9.4479,9.4479,9.4479,9.4479,9.4559,9.418,9.3462,9.1547,9.0008,9.1565,9.2918,9.3435,9.4439,9.6636,9.8091,9.7078,9.7078,9.7078,9.736,9.7885,9.7885,9.8015,9.8387,9.8479,9.8756,9.9066,9.9158,9.9341,9.9548,9.9581,9.9581,9.9756,10.0221,10.0628,10.0745,10.1094,10.1559,10.1908,10.2257,10.2548,10.2722,10.2955,10.2897,10.185,10.1734,10.1734,10.1617,10.1617,10.1385,10.0803,10.1385,10.121,10.1152,10.1326,10.1734,10.1734,10.1675,10.1675,10.1617,10.0977,10.1036,10.121,10.0105,10.0105,10.0221,10.0105,9.9581,9.9581,9.9581,9.9581,9.9581,9.9581,9.9581,9.9581,9.9581,9.9581,9.9581,9.9581,9.9581,9.9581,9.9581,9.9581,9.9581,9.9581,9.9581,9.9672,10.0307,10.0667,10.1114,10.1558,10.1911,10.2202,10.1931,10.1539,10.13,10.0941,9.9685,9.8368,9.7052,9.5915,9.5376,9.5017,9.4599,9.4539,9.4479,9.4479,9.4479,9.4479,9.4479,9.4479,9.4479,9.4479,9.4479,9.4479,9.4479,9.4479,9.4419,9.4479,9.4479,9.3881,9.3163,9.2504,9.1188,8.9872,9.0632,9.1639,9.2316,9.3066,9.508,9.5459,9.6699,9.6699,9.6699,9.6832,9.7266,9.7266,9.7771,9.8329,9.8201,9.8572,9.9216,9.9066,9.9158,9.949,9.9581,9.9581,9.9581,9.9756,9.9814,9.9814,9.993,9.9989,9.993,10.0803,10.1152,10.1326,10.2257,10.1443,10.0362,9.9839,9.9756,9.9872,9.9989,9.964,9.9872,10.0105,9.9581,9.964,9.9698,9.9756,9.9756,9.9814,9.9814,9.9814,9.9756,9.9872,9.993,9.9872,9.964,9.9698,9.964,9.9581,9.9581,9.9581,9.9581,9.9581,9.9581,9.9581,9.9581,9.9581,9.9581,9.9581,9.9581,9.9581,9.9581,9.9581,9.9581,9.9581,9.9581,9.9581,9.9672,9.9977,10.0487,10.0935,10.1292,10.1823,10.1848,10.1284,10.0676,10.0343,9.8727,9.753,9.6872,9.5556,9.4479,9.4479,9.4479,9.4479,9.4479,9.4479,9.4479,9.4479,9.4479,9.4479,9.4479,9.4479,9.4479,9.4479,9.4479,9.4479,9.4299,9.406,9.424,9.3821,9.2804,9.2026,9.1427,9.0709,8.9931,9.0044,9.0882,9.1483,9.1923,9.2189,9.271,9.6699,9.6699,9.6699,9.6643,9.6794,9.6738,9.6927,9.7115,9.7828,9.8258,9.8479,9.9032,9.9341,9.949,9.949,9.949,9.9581,9.949,9.949,9.949,9.949,9.949,9.949,9.9872,10.0013,10.0038,10.0536,9.9805,9.9158,9.9341,9.949,9.9581,9.9581,9.9581,9.9581,9.9581,9.9581,9.9581,9.9581,9.9581,9.9581,9.9581,9.9581,9.9581,9.9581,9.9581,9.9581,9.9581,9.9581,9.9581,9.9581,9.9581,9.9581,9.9581,9.9581,9.9581,9.9581,9.9581,9.9581,9.9581,9.9581,9.9581,9.9581,9.9581,9.9581,9.9581,9.9581,9.9581,9.9581,9.9581,9.9407,9.9977,10.019,10.0401,10.0789,10.1232,10.0462,9.9946,9.9216,9.8248,9.6513,9.5676,9.5436,9.4479,9.4479,9.4479,9.4479,9.4479,9.4479,9.4479,9.4479,9.4479,9.4479,9.4479,9.4479,9.4479,9.4479,9.4479,9.4479,9.4479,9.418,9.3701,9.3462,9.3282,9.2086,9.047,9.035,8.9812,8.9273,8.9292,8.9992,9.0348,8.9978,9.0141,9.0596,9.6699,9.6699,9.6699,9.6699,9.6699,9.6699,9.6794,9.6983,9.7266,9.7698,9.8165,9.8387,9.8572,9.8756,9.8848,9.8848,9.8848,9.8848,9.9032,9.9066,9.894,9.894,9.9158,9.894,9.8848,9.894,9.9307,9.9399,9.9158,9.9399,9.949,9.9581,9.9581,9.9581,9.9581,9.949,9.9581,9.9581,9.9581,9.9581,9.9581,9.9581,9.9581,9.9581,9.9581,9.9581,9.9581,9.9581,9.9581,9.949,9.9581,9.9581,9.9581,9.9581,9.9581,9.9581,9.9581,9.9581,9.9581,9.9581,9.9581,9.9581,9.9581,9.9581,9.9581,9.9523,9.9581,9.9581,9.9581,9.9258,9.8709,9.8773,9.875,9.8608,9.8462,9.7904,9.708,9.7099,9.6803,9.6334,9.5355,9.4877,9.4398,9.4398,9.4398,9.4479,9.4479,9.4479,9.4479,9.4479,9.4479,9.4479,9.4479,9.4479,9.4479,9.4479,9.4479,9.4479,9.4479,9.4479,9.418,9.3342,9.2923,9.2145,9.047,8.8555,8.8436,8.8854,8.8555,8.8406,8.8553,8.8534,8.8164,8.8192,8.8849,9.6699,9.6699,9.6699,9.6699,9.6699,9.6699,9.6832,9.7172,9.6927,9.7266,9.7979,9.7735,9.7922,9.8165,9.8165,9.8165,9.8351,9.8351,9.8387,9.8572,9.8479,9.8387,9.8664,9.8572,9.8201,9.8258,9.8572,9.8975,9.9032,9.9307,9.9124,9.9216,9.9307,9.8883,9.8883,9.9399,9.9399,9.8699,9.9249,9.949,9.9581,9.9581,9.9581,9.9581,9.9581,9.9399,9.9158,9.9307,9.9399,9.9158,9.9399,9.9399,9.9066,9.8975,9.8975,9.8883,9.8883,9.9066,9.949,9.9581,9.9581,9.9523,9.9142,9.9174,9.9116,9.8942,9.8476,9.8593,9.8534,9.8418,9.7398,9.7371,9.6966,9.6384,9.58,9.4577,9.3374,9.3873,9.4936,9.4893,9.4655,9.4377,9.4318,9.4318,9.4398,9.4479,9.4479,9.4479,9.4479,9.4479,9.4479,9.4479,9.4479,9.4479,9.4479,9.4479,9.418,9.412,9.3821,9.3821,9.2863,9.2445,9.1547,9.0111,8.8495,8.7777,8.7673,8.7613,8.7792,8.8136,8.7478,8.6774,8.7088,8.7475,8.7797,9.6699,9.6699,9.6699,9.6699,9.6699,9.6699,9.6699,9.6889,9.7078,9.7266,9.7548,9.7979,9.7885,9.8072,9.8072,9.8165,9.8165,9.8072,9.8072,9.8201,9.8015,9.8108,9.8201,9.8294,9.7958,9.6927,9.7491,9.7735,9.7828,9.8165,9.7864,9.8294,9.8514,9.79,9.7189,9.8086,9.8791,9.79,9.8883,9.9581,9.9581,9.9399,9.9249,9.9158,9.9066,9.8364,9.7807,9.8514,9.8883,9.7714,9.8791,9.8699,9.8051,9.7527,9.7527,9.7527,9.7714,9.8214,9.8984,9.9316,9.9316,9.9523,9.856,9.7921,9.7631,9.7255,9.6848,9.6703,9.6762,9.6645,9.615,9.6033,9.6005,9.5422,9.3734,9.2543,9.2356,9.3482,9.4053,9.3972,9.3972,9.4134,9.4156,9.4318,9.4398,9.4479,9.4479,9.4479,9.4479,9.4479,9.4479,9.4479,9.4479,9.4479,9.4419,9.4359,9.3641,9.3282,9.2744,9.1906,9.0649,9.0231,8.9513,8.8077,8.7837,8.8077,8.8092,8.7613,8.7613,8.8077,8.7718,8.6954,8.6714,8.6714,8.7241,9.4864,9.4961,9.6168,9.6699,9.6699,9.6699,9.6699,9.6643,9.6832,9.6983,9.7078,9.7266,9.736,9.736,9.736,9.7266,9.736,9.736,9.7454,9.7698,9.7454,9.7454,9.7735,9.7828,9.7771,9.7115,9.6738,9.6492,9.6207,9.5921,9.573,9.5578,9.5618,9.5713,9.6341,9.7246,9.7714,9.79,9.9066,9.9581,9.9249,9.8514,9.7807,9.7807,9.6719,9.5904,9.5482,9.6907,9.734,9.6964,9.6625,9.6246,9.5674,9.5769,9.6435,9.6964,9.7152,9.7671,9.7925,9.7842,9.743,9.7456,9.6308,9.614,9.6264,9.6208,9.583,9.583,9.5714,9.5481,9.487,9.4754,9.4288,9.3707,9.2601,9.202,9.213,9.307,9.3646,9.34,9.3564,9.3891,9.4075,9.4318,9.4479,9.4479,9.4479,9.4479,9.4479,9.4479,9.4479,9.4479,9.4479,9.4419,9.4359,9.3761,9.2983,9.2325,9.1727,9.053,8.9393,8.8555,8.7792,8.7433,8.7119,8.7673,8.7912,8.7673,8.7433,8.7538,8.7418,8.694,8.6714,8.6714,8.7095,9.2655,9.27,9.4864,9.573,9.5826,9.6263,9.6358,9.651,9.6548,9.6453,9.6168,9.6073,9.5882,9.5442,9.5346,9.5826,9.5977,9.6073,9.6548,9.7078,9.6794,9.6794,9.6548,9.6073,9.6073,9.573,9.5098,9.4753,9.456,9.3684,9.3095,9.3193,9.3488,9.3684,9.4809,9.5098,9.653,9.7189,9.7807,9.7807,9.7377,9.6435,9.5865,9.5865,9.456,9.3531,9.3586,9.485,9.5674,9.5427,9.4764,9.435,9.3468,9.3592,9.3946,9.4421,9.4761,9.5381,9.5897,9.5462,9.521,9.5415,9.4656,9.428,9.5335,9.5131,9.487,9.5015,9.4928,9.4288,9.359,9.3474,9.3067,9.2543,9.2078,9.1962,9.2046,9.2573,9.2822,9.2822,9.3235,9.3891,9.4134,9.4237,9.4479,9.4479,9.4479,9.4479,9.4479,9.4479,9.4479,9.4479,9.4419,9.424,9.3821,9.2744,9.1966,9.1308,9.059,8.9572,8.8795,8.7957,8.7373,8.6954,8.6714,8.6774,8.7134,8.6954,8.7074,8.6894,8.6774,8.6714,8.6714,8.6714,8.6875,9.0343,9.0444,9.2204,9.2952,9.3346,9.5016,9.5746,9.5938,9.6224,9.5786,9.4726,9.4532,9.4087,9.2258,9.3149,9.3302,9.4726,9.5016,9.569,9.6358,9.6548,9.5786,9.4726,9.3543,9.3051,9.2853,9.2357,9.2258,9.2104,9.1905,9.1859,9.1605,9.2005,9.1759,9.1558,9.27,9.2601,9.27,9.3977,9.4698,9.4601,9.4074,9.3879,9.4074,9.3488,9.2601,9.2303,9.3193,9.3422,9.2204,9.4231,9.297,9.078,9.082,9.0627,8.9823,9.0219,9.0777,9.1518,9.3176,9.373,9.3746,9.368,9.3969,9.3709,9.3043,9.2435,9.2264,9.2284,9.2118,9.1887,9.1941,9.174,9.1767,9.1709,9.1877,9.1962,9.2046,9.213,9.2071,9.2822,9.3235,9.3646,9.3913,9.4398,9.4318,9.412,9.424,9.4359,9.3282,9.2684,9.3581,9.406,9.394,9.2863,9.1667,9.0889,9.029,8.9513,8.8675,8.7837,8.7553,8.6954,8.6714,8.6714,8.6714,8.6714,8.6714,8.6774,8.6714,8.6714,8.6714,8.6714,8.6714,8.6714,8.8862,8.9273,9.1257,9.2059,9.2258,9.3051,9.3499,9.3695,9.467,9.4282,9.3302,9.3848,9.3848,9.3302,9.3204,9.4087,9.5498,9.5594,9.5882,9.6548,9.6397,9.5002,9.3149,9.2312,9.1759,9.1659,9.0907,9.0501,9.0298,8.9378,8.9069,8.9172,8.912,8.9583,8.9685,9.1103,9.1605,9.2104,9.2745,9.3433,9.3586,9.2303,9.2005,9.2005,9.0598,8.9735,8.9428,9.1103,9.0509,8.815,8.8264,8.8631,8.7453,8.7761,8.8226,8.8707,8.8803,8.9185,9.0094,9.0698,9.1323,9.1446,9.1428,9.1519,9.1404,9.1117,9.0142,8.971,8.9131,8.9043,8.9043,8.8956,8.9536,9.0458,8.9969,8.9796,9.0629,9.1455,9.1962,9.2155,9.2239,9.2406,9.3646,9.3423,9.375,9.3917,9.3481,9.3561,9.3422,9.1308,9.0171,9.2265,9.3342,9.2684,9.1727,9.035,8.9393,8.9094,8.8436,8.7538,8.7059,8.6954,8.6714,8.6714,8.6714,8.6714,8.6714,8.6714,8.6714,8.6714,8.6714,8.6714,8.6714,8.6714,8.6714,8.6071,8.6746,8.8689,8.9649,8.985,9.0548,9.0693,9.0846,9.2125,9.1723,9.0693,9.1591,9.1483,9.134,9.1242,9.2441,9.3427,9.3924,9.4476,9.5139,9.4789,9.2806,9.0747,9.0115,9.003,9.0143,8.9172,8.8708,8.8604,8.7667,8.7143,8.6878,8.7248,8.7825,8.9017,8.9223,9.0245,9.1404,9.1605,9.1705,9.1605,9.0143,8.9685,8.994,8.8035,8.6946,8.7206,8.8544,8.7399,8.4136,8.4581,8.5069,8.5017,8.5339,8.5853,8.6335,8.6676,8.7021,8.7257,8.7741,8.8087,8.8275,8.8597,8.8924,8.9012,8.9012,8.8837,8.8517,8.7897,8.7986,8.8252,8.8163,8.8428,8.9362,8.8075,8.7541,8.91,9.0801,9.1903,9.1845,9.1424,9.1947,9.2704,9.2934,9.2594,9.2524,9.199,9.1551,8.9892,8.8157,8.8914,9.1008,9.1607,9.1128,9.047,8.9034,8.8196,8.8017,8.7538,8.676,8.6774,8.6714,8.6714,8.6714,8.6714,8.6714,8.6714,8.6714,8.6714,8.6714,8.6714,8.6714,8.6714,8.6714,8.6714,8.1055,8.1683,8.3427,8.4694,8.5348,8.7084,8.7823,8.8009,8.8591,8.8169,8.6894,8.7249,8.6299,8.4794,8.5656,8.6973,8.8002,8.8907,9.0128,9.0838,9.0065,8.8471,8.6911,8.6433,8.6695,8.7257,8.7098,8.6939,8.6995,8.6682,8.6827,8.6573,8.6523,8.6936,8.6995,8.7041,8.7151,8.7465,8.7411,8.7515,8.7515,8.7044,8.7409,8.7879,8.6797,8.6181,8.6283,8.556,8.4841,8.4635,8.507,8.494,8.4009,8.3887,8.3096,8.1758,8.1501,8.2079,8.2219,8.4115,8.4979,8.524,8.6191,8.6498,8.7039,8.7273,8.7541,8.8484,8.8573,8.9362,8.9969,8.9449,8.8924,8.9187,8.6644,8.5827,8.763,9.0056,9.0769,9.0598,9.0911,9.1322,9.1465,9.1829,9.0976,9.0128,9.0109,8.8671,8.6987,8.7388,8.809,8.8495,8.8795,8.8675,8.9094,8.7777,8.7418,8.7239,8.7,8.6714,8.6714,8.6714,8.6714,8.6714,8.6714,8.6714,8.6714,8.6714,8.6714,8.6714,8.6714,8.6714,8.6714,8.6714,8.6714,8.2202,8.2664,8.3275,8.368,8.4034,8.4687,8.5087,8.5286,8.6473,8.6079,8.4987,8.5636,8.5735,8.5338,8.5238,8.6341,8.7983,8.8134,8.7559,8.6573,8.5593,8.5087,8.4589,8.4291,8.4544,8.4696,8.4849,8.4849,8.4849,8.4849,8.4849,8.49,8.4746,8.4797,8.4746,8.4746,8.4746,8.4849,8.49,8.4952,8.5311,8.5055,8.5106,8.5566,8.5004,8.4647,8.4595,8.286,8.1843,8.1937,8.2313,8.2442,8.2152,8.2079,8.1864,8.1437,8.1725,8.1968,8.2202,8.3662,8.491,8.524,8.6282,8.6769,8.61,8.5644,8.5278,8.524,8.491,8.454,8.504,8.4633,8.5002,8.6009,8.4208,8.3328,8.4169,8.7039,8.8392,8.775,8.7098,8.7321,8.7755,8.8076,8.7681,8.8647,8.8358,8.7006,8.7524,8.6566,8.6956,8.7179,8.7119,8.7239,8.7433,8.7193,8.6774,8.6714,8.6714,8.6714,8.6714,8.6714,8.6714,8.6714,8.6714,8.6714,8.6714,8.6714,8.6714,8.6714,8.6714,8.6714,8.6714,8.6714,8.6714,8.1608,8.2062,8.2162,8.2363,8.2563,8.2614,8.2563,8.2714,8.3756,8.3657,8.2914,8.3808,8.4301,8.4249,8.4249,8.4994,8.6329,8.5959,8.4687,8.2863,8.2563,8.2512,8.2614,8.2969,8.3122,8.3173,8.3427,8.363,8.3681,8.3681,8.363,8.363,8.3681,8.363,8.3731,8.363,8.363,8.363,8.363,8.3832,8.4135,8.3883,8.3782,8.4135,8.3476,8.2919,8.2463,8.114,8.0327,8.0378,8.0425,8.0665,8.0955,8.1051,8.1148,8.1341,8.1725,8.1872,8.2012,8.3151,8.3702,8.3983,8.4725,8.4818,8.4222,8.3756,8.3568,8.3527,8.2583,8.2341,8.2625,8.2436,8.2207,8.2191,8.1298,8.0577,8.113,8.3125,8.4402,8.4298,8.4021,8.4477,8.5531,8.6074,8.6169,8.6531,8.6382,8.5583,8.5876,8.4923,8.5521,8.6047,8.6641,8.6834,8.7014,8.6894,8.6714,8.6714,8.6714,8.6714,8.6714,8.6714,8.6714,8.6714,8.6714,8.6714,8.6714,8.6714,8.6714,8.6714,8.6714,8.6714,8.6714,8.6714,8.6714,7.8412,7.9105,7.9349,8.014,8.0534,8.0632,8.0429,8.0581,8.0628,8.0878,8.0785,8.0628,8.0976,8.0628,8.1027,8.1235,8.2142,8.1626,8.0925,8.0683,8.0581,8.0581,8.0683,8.1547,8.1953,8.2004,8.302,8.3477,8.3325,8.3274,8.3325,8.3477,8.3325,8.3223,8.3528,8.3274,8.3427,8.3325,8.3274,8.3376,8.3579,8.3376,8.3325,8.3274,8.2561,8.1547,8.0531,8.0378,8.0327,8.0327,8.0665,8.1051,8.0955,8.0955,8.0807,8.0369,8.0323,8.0323,8.0272,8.0461,8.0692,8.0788,8.0512,8.1024,8.1259,8.1267,8.1786,8.3145,8.3384,8.3956,8.4954,8.4034,8.1952,7.9157,7.8447,7.8159,7.8282,7.8638,7.9534,8.1407,8.2149,8.3497,8.5261,8.5316,8.4651,8.3689,8.3758,8.368,8.1829,8.2061,8.31,8.4244,8.5613,8.6567,8.6714,8.6641,8.6641,8.6714,8.6714,8.6714,8.6714,8.6714,8.6714,8.6714,8.6714,8.6714,8.6714,8.6714,8.6714,8.6714,8.6714,8.6714,8.6714,8.6714,8.6714,7.9004,7.9742,7.9887,8.0133,8.0327,8.0327,8.0327,8.0327,8.0327,8.0327,8.0327,8.0327,8.0327,8.0327,8.0327,8.0531,8.0734,8.0531,8.0327,8.0327,8.0327,8.0327,8.0378,8.0683,8.0835,8.0937,8.1242,8.1394,8.1394,8.1394,8.1394,8.1296,8.1296,8.1296,8.1296,8.1394,8.1296,8.1394,8.1394,8.1296,8.1394,8.1394,8.1394,8.1343,8.1039,8.0632,8.0327,8.0327,8.0327,8.0327,8.0374,8.0471,8.0471,8.0522,8.0165,7.9356,7.9446,7.933,7.876,7.8888,7.9075,7.9075,7.9075,7.9169,7.9211,7.9075,7.9262,7.9583,7.9583,7.9397,7.9902,7.9676,7.8766,7.7737,7.7346,7.6692,7.5446,7.6437,7.7424,7.8273,7.898,7.9566,8.0305,8.0581,8.0826,8.0819,8.1007,8.1434,8.06,8.03,8.03,8.3568,8.5462,8.6493,8.6493,8.627,8.6196,8.6567,8.6714,8.6714,8.6714,8.6714,8.6714,8.6714,8.6714,8.6714,8.6714,8.6714,8.6714,8.6714,8.6714,8.6714,8.6714,8.6714,8.6714,7.9201,7.9984,8.0179,8.0327,8.0327,8.0327,8.0327,8.0327,8.0327,8.0327,8.0327,8.0327,8.0327,8.0327,8.0327,8.0327,8.0327,8.0327,8.0327,8.0327,8.0327,8.0327,8.0327,8.0327,8.0327,8.0327,8.0327,8.0327,8.0327,8.0327,8.0327,8.0327,8.0327,8.0327,8.0327,8.0327,8.0327,8.0327,8.0327,8.0327,8.0378,8.0327,8.0327,8.0327,8.0327,8.0327,8.0327,8.0327,8.0124,7.9718,7.9667,7.9514,7.9159,7.9108,7.8752,7.8092,7.8324,7.8206,7.7685,7.781,7.7994,7.7994,7.7994,7.7953,7.7902,7.7717,7.7532,7.7676,7.7304,7.6466,7.611,7.5805,7.5897,7.5938,7.5846,7.5145,7.4269,7.4768,7.5458,7.5595,7.6031,7.6978,7.7969,7.8337,7.8785,7.9534,7.9864,8.011,8.011,7.909,7.9119,8.2369,8.5009,8.6567,8.6196,8.5747,8.5747,8.6196,8.6641,8.6641,8.6641,8.6714,8.6714,8.6714,8.6714,8.6714,8.6714,8.6714,8.6714,8.6714,8.6714,8.6714,8.6714,8.6714,8.6714,7.9004,7.9593,8.0133,8.0327,8.0327,8.0327,8.0327,8.0327,8.0327,8.0327,8.0327,8.0327,8.0327,8.0327,8.0327,8.0327,8.0327,8.0327,8.0327,8.0327,8.0327,8.0327,8.0327,8.0327,8.0327,8.0327,8.0327,8.0327,8.0327,8.0327,8.0327,8.0327,8.0327,8.0327,8.0327,8.0327,8.0327,8.0327,8.0327,8.0327,8.0327,8.0327,8.0277,8.0124,8.0226,8.0073,8.0022,8.0124,7.9616,7.8454,7.8498,7.8092,7.7228,7.7076,7.7177,7.7025,7.6974,7.6872,7.672,7.6711,7.6762,7.672,7.666,7.6771,7.6609,7.6609,7.6794,7.7461,7.6845,7.5856,7.4281,7.4078,7.4104,7.441,7.4041,7.3824,7.3671,7.3862,7.3671,7.4028,7.4508,7.5544,7.7861,7.9036,7.9119,7.9368,7.9726,7.9561,7.8673,7.8138,7.8756,8.1087,8.349,8.5822,8.4704,8.4167,8.4551,8.5446,8.6121,8.6493,8.6567,8.6714,8.6714,8.6714,8.6714,8.6714,8.6714,8.6714,8.6714,8.6714,8.6714,8.6714,8.6714,8.6714,8.6714,7.9397,7.9593,8.0082,8.0327,8.0327,8.0327,8.0327,8.0327,8.0327,8.0327,8.0327,8.0327,8.0327,8.0327,8.0327,8.0327,8.0327,8.0327,8.0327,8.0327,8.0327,8.0327,8.0327,8.0327,8.0327,8.0327,8.0327,8.0327,8.0327,8.0327,8.0327,8.0327,8.0327,8.0327,8.0327,8.0327,8.0327,8.0327,8.0327,8.0327,8.0277,8.0327,7.9921,7.9159,7.9057,7.8701,7.7939,7.7939,7.7736,7.7431,7.7431,7.7279,7.7025,7.7025,7.7025,7.6923,7.6212,7.5399,7.4637,7.4586,7.4586,7.4586,7.4586,7.4586,7.4586,7.4586,7.4676,7.4908,7.4676,7.4484,7.3722,7.3671,7.3761,7.385,7.3761,7.3671,7.3671,7.3671,7.3939,7.4508,7.4685,7.5474,7.6635,7.7181,7.749,7.749,7.7522,7.7235,7.7064,7.7544,7.8252,7.9864,8.06,8.133,8.133,8.2369,8.3936,8.4857,8.5312,8.5822,8.6493,8.6641,8.6714,8.6714,8.6714,8.6714,8.6714,8.6714,8.6714,8.6714,8.6714,8.6714,8.6714,8.6714,8.6714,7.9789,7.9887,8.0082,8.0327,8.0327,8.0327,8.0327,8.0327,8.0327,8.0327,8.0327,8.0327,8.0327,8.0327,8.0327,8.0327,8.0327,8.0327,8.0327,8.0327,8.0327,8.0327,8.0327,8.0327,8.0327,8.0327,8.0327,8.0327,8.0327,8.0327,8.0327,8.0327,8.0327,8.0327,8.0327,8.0327,8.0327,8.0327,8.0327,7.9819,7.9057,7.8956,7.86,7.799,7.7939,7.7584,7.7076,7.7025,7.6771,7.6314,7.6447,7.6295,7.5653,7.5785,7.5785,7.5602,7.4992,7.4332,7.3722,7.3671,7.3671,7.3671,7.3671,7.3671,7.3671,7.3671,7.3671,7.3671,7.3671,7.3671,7.3671,7.3671,7.3671,7.3671,7.3671,7.3671,7.3671,7.385,7.3977,7.442,7.4824,7.5299,7.5857,7.6117,7.6117,7.6377,7.6688,7.686,7.6774,7.6946,7.766,7.8589,7.8673,7.8923,8.0274,8.2233,8.3568,8.4398,8.5009,8.5613,8.6567,8.6641,8.6714,8.6714,8.6714,8.6714,8.6714,8.6714,8.6714,8.6714,8.6714,8.6714,8.6714,8.6714,8.6415,8.0327,8.0327,8.0327,8.0327,8.0327,8.0327,8.0327,8.0327,8.0327,8.0226,7.987,8.0022,7.9921,8.0022,7.9921,7.987,7.987,7.9972,7.9921,7.9921,8.0022,7.9972,7.987,7.9921,8.0022,7.9921,7.987,7.9819,7.9819,7.987,7.9972,8.0022,8.0022,7.9921,7.9972,7.9921,7.9972,7.9972,8.0022,7.9006,7.7126,7.7025,7.6923,7.6822,7.6822,7.6822,7.6568,7.672,7.6161,7.5247,7.5599,7.5139,7.4003,7.4066,7.4154,7.3812,7.3722,7.3671,7.3671,7.3671,7.3671,7.3671,7.3671,7.3671,7.3671,7.3671,7.3671,7.3671,7.3671,7.3671,7.3671,7.3671,7.3671,7.3671,7.3761,7.3671,7.3761,7.4066,7.4243,7.3939,7.4773,7.5247,7.5631,7.5805,7.5892,7.6377,7.6688,7.6913,7.686,7.6774,7.6893,7.7405,7.783,7.8534,7.9781,8.1651,8.2628,8.3858,8.5236,8.5763,8.5912,8.6136,8.6714,8.6714,8.6714,8.6714,8.6714,8.6714,8.6714,8.6714,8.6714,8.6714,8.6714,8.6714,8.5982,8.0327,8.0327,8.0327,8.0327,8.0327,8.0327,8.0327,8.0327,8.0277,7.9362,7.7838,7.7736,7.7736,7.7736,7.7736,7.7736,7.7736,7.7736,7.7736,7.7736,7.7736,7.7736,7.7736,7.7736,7.7736,7.7736,7.7736,7.7736,7.7736,7.7736,7.7736,7.7736,7.7736,7.7736,7.7736,7.7736,7.7736,7.7736,7.7736,7.7533,7.7025,7.7025,7.6517,7.5755,7.5653,7.5247,7.4484,7.4434,7.4281,7.4027,7.4423,7.4448,7.4154,7.4192,7.4192,7.4103,7.385,7.3671,7.3671,7.3671,7.3671,7.3671,7.3671,7.3671,7.3671,7.3671,7.3671,7.3671,7.3671,7.3671,7.3671,7.3671,7.3671,7.3671,7.3888,7.4066,7.385,7.4331,7.5036,7.5596,7.5596,7.5631,7.6031,7.6204,7.629,7.6377,7.6516,7.6602,7.6602,7.6463,7.6377,7.6978,7.8198,7.8869,7.766,7.9202,8.0545,8.0763,8.2549,8.3878,8.434,8.5613,8.6493,8.6521,8.6581,8.6654,8.6654,8.6595,8.6535,8.6415,8.6415,8.6535,8.6475,8.6475,8.5923,7.8803,7.8803,7.8803,7.8803,7.8803,7.8803,7.8803,7.8803,7.8803,7.8092,7.7025,7.7025,7.7025,7.7025,7.7025,7.7025,7.7025,7.7025,7.7025,7.7025,7.7025,7.7025,7.7025,7.7025,7.7025,7.7025,7.7025,7.7025,7.7025,7.7025,7.7025,7.7025,7.7025,7.7025,7.7025,7.7025,7.7025,7.6974,7.6009,7.5501,7.5501,7.545,7.4891,7.3773,7.3722,7.3214,7.2147,7.2096,7.2184,7.2445,7.2828,7.3258,7.3773,7.3773,7.3943,7.4229,7.3888,7.3671,7.3671,7.3671,7.3671,7.3671,7.3671,7.3671,7.3671,7.3671,7.3671,7.3671,7.3671,7.3671,7.3671,7.3671,7.3761,7.3888,7.4103,7.4457,7.4861,7.5212,7.5596,7.6204,7.6117,7.6117,7.6377,7.6429,7.6429,7.6429,7.6429,7.6429,7.6429,7.6429,7.6549,7.6978,7.783,7.7999,7.749,7.9036,8.0463,8.087,8.2786,8.4244,8.4704,8.5538,8.6208,8.5683,8.6162,8.6162,8.4905,8.4905,8.4905,8.4905,8.4905,8.4905,8.4905,8.4905,8.4427,7.7025,7.7025,7.7025,7.7025,7.7025,7.7025,7.7025,7.6974,7.6669,7.6517,7.6517,7.6517,7.6568,7.6517,7.6568,7.6517,7.6517,7.6517,7.6517,7.6517,7.6517,7.6517,7.6517,7.6517,7.6517,7.6517,7.6517,7.6517,7.6517,7.6517,7.6517,7.6517,7.6517,7.6517,7.6517,7.6517,7.6568,7.6517,7.4637,7.3671,7.3671,7.3671,7.3113,7.2082,7.2031,7.1472,7.0387,7.0387,7.0556,7.0979,7.1399,7.2117,7.3017,7.2913,7.3104,7.3634,7.3197,7.2984,7.3049,7.3201,7.3265,7.3417,7.357,7.3468,7.3099,7.3113,7.3214,7.3163,7.315,7.3303,7.3303,7.329,7.3364,7.3716,7.3943,7.4519,7.5539,7.5315,7.542,7.6238,7.6166,7.5796,7.5691,7.5744,7.5691,7.5849,7.5796,7.6113,7.6007,7.6007,7.635,7.7267,7.7075,7.6723,7.6741,7.8984,7.9982,8.1246,8.2951,8.4411,8.5229,8.573,8.5324,8.4128,8.4965,8.5025,8.3469,8.2811,8.305,8.311,8.317,8.305,8.311,8.2572,8.2213,7.7025,7.7025,7.7025,7.7025,7.7025,7.7025,7.7025,7.6872,7.5043,0.0,0.0,7.4281,7.4281,7.4281,7.4281,7.4281,7.4281,7.4281,7.4281,7.423,7.4281,7.4281,7.4281,7.4281,7.4281,7.423,7.4281,7.4281,7.4281,7.4281,7.4281,7.4281,7.4281,7.4281,7.4281,7.4281,7.423,7.423,7.3875,7.3671,7.3671,7.3671,7.329,7.2465,7.2414,7.2074,7.1367,7.1315,7.1315,7.1399,7.1901,7.2224,7.238,7.1546,7.1129,7.1121,6.988,6.9315,6.9958,7.0743,7.1491,7.2198,7.3113,7.2678,7.0163,7.0488,7.0775,7.0826,7.1169,7.1425,7.1476,7.168,7.1935,7.2019,7.2409,7.2829,7.3415,7.3415,7.4204,7.5796,7.4741,7.3498,7.3603,7.3603,7.3445,7.3603,7.4425,7.4952,7.4847,7.4077,7.4161,7.6,7.51,7.3853,7.3913,7.4953,7.5577,7.7287,7.8892,8.0671,8.2694,8.3469,8.335,8.2931,8.323,8.323,8.2931,8.2632,8.2811,8.2811,8.2811,8.2811,8.2632,8.1076,7.9768,7.5297,7.5297,7.5297,7.5297,0.0,7.5297,7.5297,7.5247,7.4129,7.3671,7.3671,7.3671,7.3671,7.3671,7.3671,7.3671,7.3671,7.3671,7.3671,7.3671,7.3671,7.3671,7.3671,7.3671,7.3671,7.3671,7.3671,7.3671,7.3671,7.3671,7.3671,7.3671,7.3671,7.3671,7.3671,7.3671,7.3671,7.3671,7.3671,7.3761,7.3977,7.3977,7.3591,7.2984,7.2932,0.0,0.0,0.0,0.0,0.0,0.0,0.0,0.0,7.0332,6.8995,6.8942,6.7009,6.5973,6.6285,6.6723,6.7646,6.8965,6.96,6.9099,6.7239,6.8308,6.9241,6.9637,7.0157,7.0529,7.0927,7.1315,7.1651,7.1953,7.212,7.1981,7.1362,7.2128,7.3287,7.432,7.3603,7.2918,7.2918,7.2918,7.2918,7.2918,7.3393,7.3867,7.4025,7.2497,7.2128,7.4689,7.3845,7.2948,7.3224,7.3958,7.5141,7.6355,7.8156,7.9712,8.0805,8.1601,8.1794,8.0956,8.0777,8.0708,8.0777,8.0777,8.0708,8.0777,8.0708,8.0529,7.9751,7.9213,7.8809,7.3671,7.3671,7.3671,7.3671,7.3621,7.3214,7.3011,7.3011,7.3011,7.3163,7.3367,7.357,7.3671,7.3671,7.3671,7.3671,7.3671,7.3671,7.3671,7.3671,7.3671,7.3671,7.3671,7.3671,7.3671,7.3671,7.3671,7.3671,7.3671,7.3671,7.3671,7.3671,7.3671,7.3671,7.3671,0.0,0.0,0.0,7.3671,7.385,7.4103,7.4192,7.3979,7.3361,7.3239,0.0,7.1942,7.1763,7.1823,7.1935,7.1285,0.0,7.2616,0.0,0.0,0.0,0.0,0.0,0.0,0.0,0.0,0.0,6.434,6.4023,6.3911,6.5921,6.7655,6.8419,6.8764,6.9207,6.9809,7.019,7.0652,7.1061,7.1061,7.049,6.9072,7.0547,7.197,7.2181,7.2181,7.2181,7.2128,7.2233,7.2181,7.2075,7.2391,7.279,7.3106,7.1049,7.0469,7.2579,7.2497,7.2373,7.2968,7.3955,7.4948,7.6584,7.8412,7.9049,7.9097,7.9728,7.9281,7.9153,7.8436,7.8324,7.8376,7.8137,7.7958,7.7958,7.8197,7.7958,7.6702,7.7306,7.8157,7.3671,7.3671,7.3671,7.3671,7.3519,7.1487,7.0623,7.0623,7.0623,7.1182,7.2198,7.3214,7.3671,7.3671,7.3671,7.3671,7.3671,7.3671,7.3671,7.3671,7.3671,7.3671,7.3671,7.3671,7.3671,7.3671,7.3671,7.3671,7.3671,7.3671,7.3671,7.3671,7.3671,7.3671,7.3671,7.3671,7.3671,7.3671,7.3671,7.3671,7.3761,7.4014,7.4153,7.3788,7.3269,7.2796,7.2434,7.2068,7.1605,7.1039,7.1443,7.1903,7.1958,6.7228,6.4202,0.0,5.8057,0.0,0.0,0.0,0.0,0.0,0.0,0.0,0.0,6.2765,6.4961,6.5734,6.5838,6.589,6.6046,6.6428,6.6655,6.6731,6.6731,6.6626,6.6438,6.7492,6.8703,6.9704,6.9889,6.9889,6.9942,6.9889,6.9889,7.0047,7.0733,7.0891,7.0205,6.9625,6.9414,6.9836,6.9863,7.052,7.1551,7.2034,7.3245,7.5572,7.5931,7.6089,7.8185,7.6505,7.5507,7.7778,7.7486,7.6708,7.6942,7.617,7.5387,7.5571,7.6289,7.6529,7.5576,7.5708,7.5903,7.1741,7.1741,7.1741,7.1914,7.2037,7.0709,7.0166,7.0166,7.0166,7.0471,7.0979,7.1487,7.1741,7.1741,7.1741,7.1741,7.1741,7.1741,7.1741,7.1741,7.1741,7.1741,7.1741,7.1741,7.1741,7.1741,7.2401,7.2706,7.2757,7.3367,7.3671,7.3671,7.3671,7.3011,7.1792,7.1741,7.2401,7.3621,7.3188,7.3013,7.2881,7.2778,7.2947,7.3269,7.2994,7.293,7.3048,7.3728,7.3613,7.2724,7.3576,7.2763,6.9821,6.5737,6.1382,0.0,0.0,0.0,0.0,0.0,0.0,0.0,0.0,0.0,0.0,0.0,6.2999,6.2641,6.4092,6.3974,6.1657,6.3587,6.4509,6.3171,6.3066,6.2346,6.0447,6.2979,6.6038,6.9045,6.8306,6.7702,6.8282,6.8465,6.8598,6.9361,6.8781,6.8018,6.7544,6.7439,6.7913,6.9125,6.9414,6.9434,6.9057,6.9786,7.1115,7.311,7.361,7.4042,7.5296,7.4761,7.4733,7.6105,7.599,7.5511,7.5691,7.5212,7.4853,7.4853,7.4861,7.475,7.4397,7.5004,7.5737,7.0556,7.025,6.734,6.7018,6.8235,6.8167,6.8769,6.9739,6.9739,6.9419,6.9132,6.9808,6.9284,6.7936,6.7461,6.7664,6.8558,6.8558,6.9066,7.0166,7.0166,7.0166,7.0166,7.0166,7.0166,7.0217,7.0826,7.1233,7.1538,7.2147,7.2452,7.2452,7.2285,7.1252,6.935,6.9419,7.059,7.254,7.2277,7.2108,7.2089,7.2068,7.2483,7.3551,7.3394,7.3638,7.4305,7.5448,7.5404,7.4174,7.4363,7.2209,6.7306,6.2791,0.0,0.0,0.0,0.0,0.0,0.0,0.0,0.0,0.0,4.9341,4.9162,0.0,5.9491,0.0,6.1088,6.1811,5.9401,6.1413,0.0,0.0,5.9632,5.7611,5.359,5.7704,6.2874,6.799,6.628,6.5226,6.6724,6.6882,6.7199,6.799,6.6408,6.491,6.433,6.4699,6.5986,6.8273,6.8749,6.8237,6.6992,6.7975,6.9933,7.1798,7.2682,7.2913,7.2619,7.3389,7.4135,7.4733,7.4434,7.4075,7.4315,7.4075,7.3836,7.3477,7.3186,7.2891,7.3195,7.4103,7.4954,7.1483,7.05,5.9294,5.7021,6.0782,6.1872,6.46,6.8328,6.8328,6.7361,6.5905,6.8595,6.6807,6.148,5.9551,0.0,6.368,6.368,6.5962,7.0166,7.0166,7.0166,7.0166,7.0166,7.0166,7.0166,6.9302,6.9353,7.0267,6.9454,6.9048,6.8997,6.831,6.7509,6.6747,6.7304,6.8269,6.958,7.0587,7.125,7.1567,7.2648,7.404,7.5535,7.5017,7.5329,7.6773,7.6635,7.5554,7.363,7.1643,6.8912,6.4813,0.0,0.0,0.0,0.0,0.0,0.0,0.0,0.0,0.0,0.0,0.0,0.0,0.0,0.0,5.2652,5.5501,0.0,6.1289,5.983,0.0,0.0,0.0,5.2401,4.6522,5.2008,5.8759,6.5437,0.0,0.0,6.4317,6.4582,6.4634,6.474,6.3612,6.203,5.992,6.1502,6.3952,6.6767,6.7289,6.665,6.5253,6.7133,6.998,7.3118,7.3647,7.2334,7.126,7.1263,7.228,7.4075,7.2819,7.1562,7.2819,7.2042,7.0904,6.9827,7.0604,7.1505,7.1564,7.1924,7.2342,6.096,5.6691,5.1516,5.0827,5.3243,5.4274,5.7585,6.2224,6.2224,6.1872,6.1372,6.1872,5.9466,5.4971,5.3419,0.0,0.0,0.0,5.899,6.2975,6.4213,6.5818,6.7544,6.8044,6.8349,6.8647,6.8655,6.8845,6.9251,6.9454,6.6363,6.0204,0.0,6.0079,6.1201,6.3552,6.5948,6.85,7.0177,7.1434,7.23,7.1954,7.25,7.3707,7.2704,7.2858,7.44,7.4448,7.303,7.0009,6.882,6.5035,0.0,0.0,0.0,0.0,0.0,0.0,0.0,0.0,0.0,0.0,0.0,3.765,3.905,0.0,0.0,0.0,4.7939,4.9331,5.317,5.5034,0.0,0.0,0.0,0.0,0.0,0.0,0.0,5.9023,5.9076,5.9618,6.1819,6.1044,6.041,6.108,6.041,5.9671,5.9181,0.0,6.0989,6.5044,6.4463,6.3758,6.4155,6.5392,6.6977,6.8615,6.9051,6.9109,6.8689,6.8629,6.9047,6.9944,6.9465,6.8867,6.9464,6.9279,6.8909,6.8654,6.9071,6.9548,6.978,6.9949,7.0307,4.8638,0.0,0.0,0.0,0.0,4.5993,4.9834,5.5392,5.5392,5.5125,5.472,5.4832,0.0,0.0,0.0,0.0,0.0,0.0,5.3398,5.6862,6.0545,6.2926,6.4482,6.5247,6.5683,6.5767,6.5659,6.5604,6.5474,6.4886,6.0541,5.2759,0.0,0.0,0.0,0.0,6.32,6.6207,6.9152,7.1316,7.2487,7.1457,7.1464,7.2747,7.1738,7.1847,7.3249,7.2397,7.0308,6.687,6.4377,0.0,0.0,0.0,0.0,0.0,0.0,0.0,0.0,0.0,0.0,0.0,0.0,0.0,0.0,0.0,0.0,0.0,0.0,0.0,4.61,5.0042,5.1118,0.0,0.0,0.0,0.0,0.0,0.0,0.0,0.0,0.0,5.6841,5.6682,5.6788,0.0,0.0,5.7893,5.8413,5.7978,5.8772,6.2213,6.1885,0.0,6.2233,6.3139,6.3808,6.4217,6.555,6.641,6.6106,6.6102,6.6153,6.6325,6.657,6.6093,6.48,6.4651,6.5054,6.5274,6.5685,6.6211,6.6905,6.7073,6.7495,0.0,0.0,0.0,0.0,3.5759,0.0,0.0,0.0,4.8455,4.7217,0.0,4.8054,0.0,0.0,0.0,0.0,4.1444,4.61,0.0,0.0,6.0448,6.2943,6.1118,6.202,6.2167,6.1325,5.931,5.8225,5.7676,5.3477,5.0261,0.0,0.0,0.0,0.0,0.0,5.9657,6.2127,6.6971,7.0194,7.1696,7.1345,7.1825,7.3384,7.3137,7.3435,7.4478,7.0962,6.7795,6.4989,5.7494,0.0,0.0,0.0,0.0,0.0,0.0,0.0,0.0,0.0,0.0,0.0,0.0,0.0,0.0,0.0,0.0,0.0,0.0,0.0,0.0,4.5462,0.0,0.0,0.0,0.0,0.0,0.0,0.0,0.0,0.0,4.8691,4.8271,5.1685,5.4452,5.4746,0.0,0.0,0.0,0.0,5.7624,5.7898,5.9755,6.0601,5.8803,6.0331,6.1924,6.2529,0.0,0.0,6.3848,6.3766,6.3698,6.366,6.4498,6.3803,5.7677,5.7817,5.8563,5.8324,5.9586,6.1112,6.2375,6.2646,6.3337,0.0,0.0,0.0,0.0,0.0,0.0,0.0,0.0,0.0,3.8544,3.8423,3.8665,0.0,0.0,0.0,0.0,0.0,0.0,0.0,0.0,5.0493,5.3786,5.5941,5.6897,5.686,5.602,5.506,5.0979,0.0,0.0,0.0,0.0,0.0,0.0,0.0,0.0,5.7253,6.0711,6.6095,6.9642,7.1098,7.1198,7.1931,7.3214,7.3149,7.1982,6.9827,6.51,6.0553,0.0,0.0,0.0,0.0,0.0,0.0,0.0,0.0,0.0,0.0,0.0,0.0,0.0,0.0,0.0,0.0,0.0,0.0,0.0,0.0,0.0,0.0,0.0,4.2862,0.0,0.0,0.0,0.0,0.0,0.0,0.0,0.0,0.0,4.314,4.6294,4.9553,5.2021,5.3221,5.4582,5.6636,0.0,0.0,0.0,0.0,0.0,0.0,0.0,6.1082,6.0664,6.0491,6.021,5.9837,5.8374,5.7623,5.8628,0.0,0.0,5.2213,5.24,5.3628,5.4488,5.5172,5.5795,5.6289,5.6439,5.7101,0.0,0.0,0.0,0.0,0.0,0.0,0.0,0.0,0.0,2.9824,3.0595,0.0,0.0,0.0,0.0,0.0,0.0,0.0,0.0,0.0,0.0,0.0,4.9284,5.0316,0.0,0.0,0.0,0.0,0.0,0.0,0.0,0.0,0.0,0.0,0.0,0.0,5.5603,5.9602,6.601,7.0019,7.145,7.1386,7.182,7.2989,7.2577,7.0469,6.6476,0.0,0.0,0.0,0.0,0.0,0.0,0.0,0.0,0.0,0.0,0.0,0.0,0.0,0.0,0.0,0.0,0.0,0.0,0.0,0.0,0.0,0.0,0.0,0.0,0.0,3.8794,0.0,0.0,0.0,0.0,0.0,0.0,0.0,0.0,0.0,0.0,4.1495,4.5204,4.8101,5.0205,5.2481,5.5138,5.5972,5.7044,0.0,0.0,0.0,0.0,0.0,0.0,0.0,0.0,0.0,0.0,0.0,0.0,0.0,5.0377,4.822,4.6439,4.6795,4.776,4.8801,0.0,0.0,0.0,0.0,0.0,0.0,0.0,0.0,0.0,0.0,0.0,0.0,0.0,0.0,0.0,2.2112,0.0,0.0,1.9874,0.0,0.0,0.0,0.0,0.0,0.0,0.0,0.0,0.0,0.0,0.0,0.0,0.0,0.0,0.0,0.0,0.0,0.0,0.0,0.0,0.0,0.0,5.4477,5.8365,6.6463,7.1211,7.2227,7.1573,7.1633,7.2637,7.1502,6.887,6.4801,0.0,0.0,0.0,0.0,0.0,0.0,0.0,0.0,0.0,0.0,0.0,0.0,0.0,0.0,0.0,0.0,0.0,0.0,0.0,0.0,0.0,0.0,0.0,0.0,0.0,0.0,3.6633,3.9341,4.0357,0.0,0.0,0.0,0.0,0.0,0.0,0.0,0.0,0.0,4.3041,4.7296,5.0852,5.249,5.3475,5.5032,5.7547,5.8802,5.8911,5.7245,5.7481,5.7272,0.0,0.0,0.0,0.0,0.0,0.0,0.0,0.0,0.0,0.0,0.0,0.0,0.0,0.0,0.0,0.0,0.0,0.0,0.0,0.0,0.0,0.0,0.0,0.0,0.0,0.0,0.0,0.0,0.0,0.0,0.0,0.0,0.0,0.0,0.0,0.0,0.0,0.0,0.0,0.0,0.0,0.0,0.0,0.0,0.0,0.0,0.0,0.0,0.0,0.0,0.0,0.0,0.0,0.0,5.3068,5.8008,6.5501,6.9254,6.9008,6.94,6.935,6.881,6.7434,6.4497,5.9747,0.0,0.0,0.0,0.0,0.0,0.0,0.0,0.0,0.0,0.0,0.0,0.0,0.0,0.0,0.0,0.0,0.0,0.0,0.0,0.0,0.0,0.0,0.0,0.0,0.0,0.0,0.0,3.9216,3.9738,3.8467,0.0,0.0,0.0,0.0,0.0,0.0,0.0,0.0,0.0,0.0,4.8816,5.1009,5.2354,5.4107,5.6762,5.8889,5.9425,5.7037,5.7613,5.7637,5.5312,0.0,0.0,0.0,0.0,0.0,0.0,0.0,0.0,0.0,0.0,0.0,0.0,0.0,0.0,0.0,0.0,0.0,0.0,0.0,0.0,0.0,0.0,0.0,0.0,0.0,0.0,0.0,0.0,0.0,0.0,0.0,0.0,0.0,0.0,0.0,0.0,0.0,0.0,0.0,0.0,0.0,0.0,0.0,0.0,0.0,0.0,0.0,0.0,0.0,0.0,0.0,0.0,0.0,5.187,5.7231,6.4451,6.7918,6.739,6.792,6.791,6.7072,6.5271,6.1907,0.0,0.0,0.0,0.0,0.0,0.0,0.0,0.0,0.0,0.0,0.0,0.0,0.0,0.0,0.0,0.0,0.0,0.0,0.0,0.0,0.0,0.0,0.0,0.0,0.0,0.0,0.0,0.0,3.654,3.858,4.0121,0.0,0.0,0.0,0.0,0.0,0.0,0.0,0.0,0.0,0.0,4.5818,4.7747,5.0384,0.0,0.0,5.7662,5.815,5.6157,5.7039,5.6896,5.3694,5.0963,0.0,0.0,0.0,0.0,0.0,0.0,0.0,0.0,0.0,0.0,0.0,0.0,0.0,0.0,0.0,0.0,0.0,0.0,0.0,0.0,0.0,0.0,0.0,0.0,0.0,0.0,0.0,0.0,0.0,0.0,0.0,0.0,0.0,0.0,0.0,0.0,0.0,0.0,0.0,0.0,0.0,0.0,0.0,0.0,0.0,0.0,0.0,0.0,0.0,0.0,0.0,0.0,5.0967,5.6087,6.3332,6.7072,6.6952,6.6892,6.6892,6.6772,6.4355,6.044,0.0,0.0,0.0,0.0,0.0,0.0,0.0,0.0,0.0,0.0,0.0,0.0,0.0,0.0,0.0,0.0,0.0,0.0,0.0,0.0,0.0,0.0,0.0,0.0,0.0,0.0,0.0,0.0,0.0,0.0,0.0,0.0,0.0,0.0,0.0,0.0,0.0,0.0,0.0,0.0,0.0,4.2451,4.3604,4.7987,5.2016,0.0,5.5393,5.5425,5.4586,5.5708,5.5283,5.1166,0.0,0.0,0.0,0.0,0.0,0.0,0.0,0.0,0.0,0.0,0.0,0.0,0.0,0.0,0.0,0.0,0.0,0.0,0.0,0.0,0.0,0.0,0.0,0.0,0.0,0.0,0.0,0.0,0.0,0.0,0.0,0.0,0.0,0.0,0.0,0.0,0.0,0.0,0.0,0.0,0.0,0.0,0.0,0.0,0.0,0.0,0.0,0.0,0.0,0.0,0.0,0.0,0.0,0.0,5.5046,6.2969,6.6593,6.5519,6.5459,6.498,6.3963,6.075,0.0,0.0,0.0,0.0,0.0,0.0,0.0,0.0,0.0,0.0,0.0,0.0,0.0,0.0,0.0,0.0,0.0,0.0,0.0,0.0,0.0,0.0,0.0,0.0,0.0,0.0,0.0,2.0747,0.0,0.0,0.0,0.0,0.0,0.0,0.0,0.0,0.0,0.0,0.0,0.0,0.0,0.0,4.2538,4.4102,4.8238,5.14,0.0,0.0,5.3354,5.2944,5.3486,5.2503,0.0,0.0,0.0,0.0,0.0,0.0,0.0,0.0,0.0,0.0,0.0,0.0,0.0,0.0,0.0,0.0,0.0,0.0,0.0,0.0,0.0,0.0,0.0,0.0,0.0,0.0,0.0,0.0,0.0,0.0,0.0,0.0,0.0,0.0,0.0,0.0,0.0,0.0,0.0,0.0,0.0,0.0,0.0,0.0,0.0,0.0,0.0,0.0,0.0,0.0,0.0,0.0,0.0,0.0,4.8102,5.3782,6.0226,6.3784,6.4023,6.3653,6.3047,6.2327,5.8289,5.3926,0.0,0.0,0.0,0.0,0.0,0.0,0.0,0.0,0.0,0.0,0.0,0.0,0.0,0.0,0.0,0.0,0.0,0.0,0.0,0.0,0.0,0.0,0.0,0.0,0.0,0.0,0.0,0.0,0.0,0.0,0.0,0.0,0.0,0.0,0.0,0.0,0.0,0.0,0.0,0.0,0.0,0.0,4.529,4.8044,0.0,0.0,0.0,5.2378,5.1682,0.0,0.0,0.0,0.0,0.0,0.0,0.0,0.0,0.0,0.0,0.0,0.0,0.0,0.0,0.0,0.0,0.0,0.0,0.0,0.0,0.0,0.0,0.0,0.0,0.0,0.0,0.0,0.0,0.0,0.0,0.0,0.0,0.0,0.0,0.0,0.0,0.0,0.0,0.0,0.0,0.0,0.0,0.0,0.0,0.0,0.0,0.0,0.0,0.0,0.0,0.0,0.0,0.0,0.0,0.0,0.0,0.0,5.1875,5.6708,6.0202,6.2401,6.1831,6.1394,6.1153,5.6807,5.245,0.0,0.0,0.0,0.0,0.0,0.0,0.0,0.0,0.0,0.0,0.0,0.0,0.0,0.0,0.0,0.0,0.0,0.0,0.0,0.0,0.0,0.0,0.0,0.0,0.0,0.0,0.0,0.0,0.0,0.0,0.0,0.0,0.0,0.0,0.0,0.0,0.0,0.0,0.0,0.0,0.0,4.0038,4.5671,4.6797,4.7228,0.0,0.0,5.1662,5.0065,5.1224,0.0,0.0,0.0,0.0,0.0,0.0,0.0,0.0,0.0,0.0,0.0,0.0,0.0,0.0,0.0,0.0,0.0,0.0,0.0,0.0,0.0,0.0,0.0,0.0,0.0,0.0,0.0,0.0,0.0,0.0,0.0,0.0,0.0,0.0,0.0,0.0,0.0,0.0,0.0,0.0,0.0,0.0,0.0,0.0,0.0,0.0,0.0,0.0,0.0,0.0,0.0,0.0,0.0,0.0,0.0,0.0,4.8067,5.5337,5.9305,5.9894,6.093,6.0912,5.9879,5.7185,5.2895,0.0,0.0,0.0,0.0,0.0,0.0,0.0,0.0,0.0,0.0,0.0,0.0,0.0,0.0,0.0,0.0,0.0,0.0,0.0,0.0,0.0,0.0,0.0,0.0,0.0,0.0,0.0,0.0,0.0,0.0,0.0,0.0,0.0,0.0,0.0,0.0,0.0,0.0,0.0,0.0,0.0,3.8762,4.0617,4.1226,0.0,0.0,0.0,0.0,4.6109,4.6239,0.0,0.0,0.0,0.0,0.0,0.0,0.0,0.0,0.0,0.0,0.0,0.0,0.0,0.0,0.0,0.0,0.0,0.0,0.0,0.0,0.0,0.0,0.0,0.0,0.0,0.0,0.0,0.0,0.0,0.0,0.0,0.0,0.0,0.0,0.0,0.0,0.0,0.0,0.0,0.0,0.0,0.0,0.0,0.0,0.0,0.0,0.0,0.0,0.0,0.0,0.0,0.0,0.0,0.0,0.0,0.0,4.6764,5.2415,5.6496,5.9006,5.9428,5.9276,5.8493,5.6382,5.2042,0.0,0.0,0.0,0.0,0.0,0.0,0.0,0.0,0.0,0.0,0.0,0.0,0.0,0.0,0.0,0.0,0.0,0.0,0.0,0.0,0.0,0.0,0.0,0.0,0.0,0.0,0.0,0.0,0.0,0.0,0.0,0.0,0.0,0.0,0.0,0.0,0.0,0.0,0.0,0.0,3.2429,3.5284,3.649,0.0,0.0,0.0,0.0,0.0,0.0,4.3744,4.2328,0.0,0.0,0.0,0.0,0.0,0.0,0.0,0.0,0.0,0.0,0.0,0.0,0.0,0.0,0.0,0.0,0.0,0.0,0.0,0.0,0.0,0.0,0.0,0.0,0.0,0.0,0.0,0.0,0.0,0.0,0.0,0.0,0.0,0.0,0.0,0.0,0.0,0.0,0.0,0.0,0.0,0.0,0.0,0.0,0.0,0.0,0.0,0.0,0.0,0.0,0.0,0.0,0.0,0.0,0.0,4.5756,4.9331,5.3341,5.799,5.7745,5.7409,5.7168,5.5092,5.0742,4.4059,0.0,0.0,0.0,0.0,0.0,0.0,0.0,0.0,0.0,0.0,0.0,0.0,0.0,0.0,0.0,0.0,0.0,0.0,0.0,0.0,0.0,0.0,0.0,0.0,0.0,0.0,0.0,0.0,0.0,0.0,0.0,0.0,0.0,0.0,0.0,0.0,0.0,0.0,0.0,2.8786,3.1832,0.0,0.0,0.0,0.0,0.0,0.0,0.0,0.0,3.9927,0.0,0.0,0.0,0.0,0.0,0.0,0.0,0.0,0.0,0.0,0.0,0.0,0.0,0.0,0.0,0.0,0.0,0.0,0.0,0.0,0.0,0.0,0.0,0.0,0.0,0.0,0.0,0.0,0.0,0.0,0.0,0.0,0.0,0.0,0.0,0.0,0.0,0.0,0.0,0.0,0.0,0.0,0.0,0.0,0.0,0.0,0.0,0.0,0.0,0.0,0.0,0.0,0.0,0.0,0.0,0.0,4.7878,5.1997,5.415,5.6363,5.6987,5.5889,5.3756,4.9441,4.2753,0.0,0.0,0.0,0.0,0.0,0.0,0.0,0.0,0.0,0.0,0.0,0.0,0.0,0.0,0.0,0.0,0.0,0.0,0.0,0.0,0.0,0.0,0.0,0.0,0.0,0.0,0.0,0.0,0.0,0.0,0.0,0.0,0.0,0.0,0.0,0.0,0.0,0.0,1.8309,2.5418,0.0,0.0,0.0,0.0,0.0,0.0,0.0,0.0,3.6185,0.0,0.0,0.0,0.0,0.0,0.0,0.0,0.0,0.0,0.0,0.0,0.0,0.0,0.0,0.0,0.0,0.0,0.0,0.0,0.0,0.0,0.0,0.0,0.0,0.0,0.0,0.0,0.0,0.0,0.0,0.0,0.0,0.0,0.0,0.0,0.0,0.0,0.0,0.0,0.0,0.0,0.0,0.0,0.0,0.0,0.0,0.0,0.0,0.0,0.0,0.0,0.0,0.0,0.0,0.0,0.0,0.0,0.0,4.9297,5.2277,5.4306,5.5166,5.4579,5.1545,4.7781,0.0,0.0,0.0,0.0,0.0,0.0,0.0,0.0,0.0,0.0,0.0,0.0,0.0,0.0,0.0,0.0,0.0,0.0,0.0,0.0,0.0,0.0,0.0,0.0,0.0,0.0,0.0,0.0,0.0,0.0,0.0,0.0,0.0,0.0,0.0,0.0,0.0,0.0,0.0,0.0,0.0,0.0,0.0,0.0,0.0,0.0,0.0,0.0,0.0,0.0,0.0,0.0,0.0,0.0,0.0,0.0,0.0,0.0,0.0,0.0,0.0,0.0,0.0,0.0,0.0,0.0,0.0,0.0,0.0,0.0,0.0,0.0,0.0,0.0,0.0,0.0,0.0,0.0,0.0,0.0,0.0,0.0,0.0,0.0,0.0,0.0,0.0,0.0,0.0,0.0,0.0,0.0,0.0,0.0,0.0,0.0,0.0,0.0,0.0,0.0,0.0,0.0,0.0,0.0,0.0,0.0,0.0,0.0,4.7009,5.0878,5.2818,5.393,5.4095,4.9605,4.5518,0.0,0.0,0.0,0.0,0.0,0.0,0.0,0.0,0.0,0.0,0.0,0.0,0.0,0.0,0.0,0.0,0.0,0.0,0.0,0.0,0.0,0.0,0.0,0.0,0.0,0.0,0.0,0.0,0.0,0.0,0.0,0.0,0.0,0.0,0.0,0.0,0.0,0.0,0.0,0.0,0.0,0.0,0.0,0.0,0.0,0.0,0.0,0.0,3.0429,0.0,0.0,0.0,0.0,0.0,0.0,0.0,0.0,0.0,0.0,0.0,0.0,0.0,0.0,0.0,0.0,0.0,0.0,0.0,0.0,0.0,0.0,0.0,0.0,0.0,0.0,0.0,0.0,0.0,0.0,0.0,0.0,0.0,0.0,0.0,0.0,0.0,0.0,0.0,0.0,0.0,0.0,0.0,0.0,0.0,0.0,0.0,0.0,0.0,0.0,0.0,0.0,0.0,0.0,0.0,0.0,0.0,0.0,0.0,4.6391,4.9423,5.3119,5.5035,5.4902,4.845,4.2442,0.0,0.0,0.0,0.0,0.0,0.0,0.0,0.0,0.0,0.0,0.0,0.0,0.0,0.0,0.0,0.0,0.0,0.0,0.0,0.0,0.0,0.0,0.0,0.0,0.0,0.0,0.0,0.0,0.0,0.0,0.0,0.0,0.0,0.0,0.0,0.0,0.0,0.0,0.0,0.0,0.0,0.0,0.0,0.0,0.0,0.0,0.0,0.0,0.0,0.0,0.0,0.0,0.0,0.0,0.0,0.0,0.0,0.0,0.0,0.0,0.0,0.0,0.0,0.0,0.0,0.0,0.0,0.0,0.0,0.0,0.0,0.0,0.0,0.0,0.0,0.0,0.0,0.0,0.0,0.0,0.0,0.0,0.0,0.0,0.0,0.0,0.0,0.0,0.0,0.0,0.0,0.0,0.0,0.0,0.0,0.0,0.0,0.0,0.0,0.0,0.0,0.0,0.0,0.0,0.0,0.0,0.0,0.0,4.3522,4.7347,5.0589,5.1453,4.9837,4.4645,4.0073,0.0,0.0,0.0,0.0,0.0,0.0,0.0,0.0,0.0,0.0,0.0,0.0,0.0,0.0,0.0,0.0,0.0,0.0,0.0,0.0,0.0,0.0,0.0,0.0,0.0,0.0,0.0,0.0,0.0,0.0,0.0,0.0,0.0,0.0,0.0,0.0,0.0,0.0,0.0,0.0,0.0,0.0,0.0,0.0,0.0,0.0,0.0,0.0,0.0,0.0,0.0,0.0,0.0,0.0,0.0,0.0,0.0,0.0,0.0,0.0,0.0,0.0,0.0,0.0,0.0,0.0,0.0,0.0,0.0,0.0,0.0,0.0,0.0,0.0,0.0,0.0,0.0,0.0,0.0,0.0,0.0,0.0,0.0,0.0,0.0,0.0,0.0,0.0,0.0,0.0,0.0,0.0,0.0,0.0,0.0,0.0,0.0,0.0,0.0,0.0,0.0,0.0,0.0,0.0,0.0,0.0,0.0,0.0,0.0,4.479,4.6618,4.6558,4.4462,4.0979,3.7447,0.0,0.0,0.0,0.0,0.0,0.0,0.0,0.0,0.0,0.0,0.0,0.0,0.0,0.0,0.0,0.0,0.0,0.0,0.0,0.0,0.0,0.0,0.0,0.0,0.0,0.0,0.0,0.0,0.0,0.0,0.0,0.0,0.0,0.0,0.0,0.0,0.0,0.0,0.0,0.0,0.0,0.0,0.0,0.0,0.0,0.0,0.0,0.0,0.0,0.0,0.0,0.0,0.0,0.0,0.0,0.0,0.0,0.0,0.0,0.0,0.0,0.0,0.0,0.0,0.0,0.0,0.0,0.0,0.0,0.0,0.0,0.0,0.0,0.0,0.0,0.0,0.0,0.0,0.0,0.0,0.0,0.0,0.0,0.0,0.0,0.0,0.0,0.0,0.0,0.0,0.0,0.0,0.0,0.0,0.0,0.0,0.0,0.0,0.0,0.0,0.0,0.0,0.0,0.0,0.0,0.0,0.0,0.0,0.0,4.1781,4.1155,4.0778,4.0663,3.7995,3.4074,0.0,0.0,0.0,0.0,0.0,0.0,0.0,0.0,0.0,0.0,0.0,0.0,0.0,0.0,0.0,0.0,0.0,0.0,0.0,0.0,0.0,0.0,0.0,0.0,0.0,0.0,0.0,0.0,0.0,0.0,0.0,0.0,0.0,0.0,0.0,0.0,0.0,0.0,0.0,0.0,0.0,0.0,0.0,0.0,0.0,0.0,0.0,0.0,0.0,0.0,0.0,0.0,0.0,0.0,0.0,0.0,0.0,0.0,0.0,0.0,0.0,0.0,0.0,0.0,0.0,0.0,0.0,0.0,0.0,0.0,0.0,0.0,0.0,0.0,0.0,0.0,0.0,0.0,0.0,0.0,0.0,0.0,0.0,0.0,0.0,0.0,0.0,0.0,0.0,0.0,0.0,0.0,0.0,0.0,0.0,0.0,0.0,0.0,0.0,0.0,0.0,0.0,0.0,0.0,0.0,0.0,0.0,0.0,0.0,3.5302,3.5932,3.5866,3.5186,3.3327,3.0226,2.5817,0.0,0.0,0.0,0.0,0.0,0.0,0.0,0.0,0.0,0.0,0.0,0.0,0.0,0.0,0.0,0.0,0.0,0.0,0.0,0.0,0.0,0.0,0.0,0.0,0.0,0.0,0.0,0.0,0.0,0.0,0.0,0.0,0.0,0.0,0.0,0.0,0.0,0.0,0.0,0.0,0.0,0.0,0.0,0.0,0.0,0.0,0.0,0.0,0.0,0.0,0.0,0.0,0.0,0.0,0.0,0.0,0.0,0.0,0.0,0.0,0.0,0.0,0.0,0.0,0.0,0.0,0.0,0.0,0.0,0.0,0.0,0.0,0.0,0.0,0.0,0.0,0.0,0.0,0.0,0.0,0.0,0.0,0.0,0.0,0.0,0.0,0.0,0.0,0.0,0.0,0.0,0.0,0.0,0.0,0.0,0.0,0.0,0.0,0.0,0.0,0.0,0.0,0.0,0.0,0.0,0.0,0.0,0.0,2.9653,3.1126,3.1524,3.0821,2.9435,2.7024,0.0,0.0,0.0,0.0,0.0,0.0,0.0,0.0,0.0,0.0,0.0,0.0,0.0,0.0,0.0,0.0,0.0,0.0,0.0,0.0,0.0,0.0,0.0,0.0,0.0,0.0,0.0,0.0,0.0,0.0,0.0,0.0,0.0,0.0,0.0,0.0,0.0,0.0,0.0,0.0,0.0,0.0,0.0,0.0,0.0,0.0,0.0,0.0,0.0,0.0,0.0,0.0,0.0,0.0,0.0,0.0,0.0,0.0,0.0,0.0,0.0,0.0,0.0,0.0,0.0,0.0,0.0,0.0,0.0,0.0,0.0,0.0,0.0,0.0,0.0,0.0,0.0,0.0,0.0,0.0,0.0,0.0,0.0,0.0,0.0,0.0,0.0,0.0,0.0,0.0,0.0,0.0,0.0,0.0,0.0,0.0,0.0,0.0,0.0,0.0,0.0,0.0,0.0,0.0,0.0,0.0,0.0,0.0,2.2167,2.5278,2.6939,2.7891,2.8002,2.6699,2.464,0.0,0.0,0.0,0.0,0.0,0.0,0.0,0.0,0.0,0.0,0.0,0.0,0.0,0.0,0.0,0.0,0.0,0.0,0.0,0.0,0.0,0.0,0.0,0.0,0.0,0.0,0.0,0.0,0.0,0.0,0.0,0.0,0.0,0.0,0.0,0.0,0.0,0.0,0.0,0.0,0.0,0.0,0.0,0.0,0.0,0.0,0.0,0.0,0.0,0.0,0.0,0.0,0.0,0.0,0.0,0.0,0.0,0.0,0.0,0.0,0.0,0.0,0.0,0.0,0.0,0.0,0.0,0.0,0.0,0.0,0.0,0.0,0.0,0.0,0.0,0.0,0.0,0.0,0.0,0.0,0.0,0.0,0.0,0.0,0.0,0.0,0.0,0.0,0.0,0.0,0.0,0.0,0.0,0.0,0.0,0.0,0.0,0.0,0.0,0.0,0.0,0.0,0.0,0.0,0.0,0.0,0.0,0.0,0.0,2.3391,0.0,2.605,2.6118,2.5678,2.377,0.0,0.0,0.0,0.0,0.0,0.0,0.0,0.0,0.0,0.0,0.0,0.0,0.0,0.0,0.0,0.0,0.0,0.0,0.0,0.0,0.0,0.0,0.0,0.0,0.0,0.0,0.0,0.0,0.0,0.0,0.0,0.0,0.0,0.0,0.0,0.0,0.0,0.0,0.0,0.0,0.0,0.0,0.0,0.0,0.0,0.0,0.0,0.0,0.0,0.0,0.0,0.0,0.0,0.0,0.0,0.0,0.0,0.0,0.0,0.0,0.0,0.0,0.0,0.0,0.0,0.0,0.0,0.0,0.0,0.0,0.0,0.0,0.0,0.0,0.0,0.0,0.0,0.0,0.0,0.0,0.0,0.0,0.0,0.0,0.0,0.0,0.0,0.0,0.0,0.0,0.0,0.0,0.0,0.0,0.0,0.0,0.0,0.0,0.0,0.0,0.0,0.0,0.0,0.0,0.0,0.0,0.0,0.0,0.0,2.2393,2.3703,2.433,2.4439,2.4396,2.2751,0.0,0.0,0.0,0.0,0.0,0.0,0.0,0.0,0.0,0.0,0.0,0.0,0.0,0.0,0.0,0.0,0.0,0.0,0.0,0.0,0.0,0.0,0.0,0.0,0.0,0.0,0.0,0.0,0.0,0.0,0.0,0.0,0.0,0.0,0.0,0.0,0.0,0.0,0.0,0.0,0.0,0.0,0.0,0.0,0.0,0.0,0.0,0.0,0.0,0.0,0.0,0.0,0.0,0.0,0.0,0.0,0.0,0.0,0.0,0.0,0.0,0.0,0.0,0.0,0.0,0.0,0.0,0.0,0.0,0.0,0.0,0.0,0.0,0.0,0.0,0.0,0.0,0.0,0.0,0.0,0.0,0.0,0.0,0.0,0.0,0.0,0.0,0.0,0.0,0.0,0.0,0.0,0.0,0.0,0.0,0.0,0.0,0.0,0.0,0.0,0.0,0.0,0.0,0.0,0.0,0.0,0.0,0.0,0.0,2.2085,2.2442,2.2657,2.2955,2.2791,2.1456,0.0,0.0,0.0,0.0,0.0,0.0,0.0,0.0,0.0,0.0,0.0,0.0,0.0,0.0,0.0,0.0,0.0,0.0,0.0,0.0,0.0,0.0,0.0,0.0,0.0,0.0,0.0,0.0,0.0,0.0,0.0,0.0,0.0,0.0,0.0,0.0,0.0,0.0,0.0,0.0,0.0,0.0,0.0,0.0,0.0,0.0,0.0,0.0,0.0,0.0,0.0,0.0,0.0,0.0,0.0,0.0,0.0,0.0,0.0,0.0,0.0,0.0,0.0,0.0,0.0,0.0,0.0,0.0,0.0,0.0,0.0,0.0,0.0,0.0,0.0,0.0,0.0,0.0,0.0,0.0,0.0,0.0,0.0,0.0,0.0,0.0,0.0,0.0,0.0,0.0,0.0,0.0,0.0,0.0,0.0,0.0,0.0,0.0,0.0,0.0,0.0,0.0,0.0,0.0,0.0,0.0,0.0,0.0,0.0,0.0,2.1708,2.2333,2.2507,2.2485,2.1207,1.8585,0.0,0.0,0.0,0.0,0.0,0.0,0.0,0.0,0.0,0.0,0.0,0.0,0.0,0.0,0.0,0.0,0.0,0.0,0.0,0.0,0.0,0.0,0.0,0.0,0.0,0.0,0.0,0.0,0.0,0.0,0.0,0.0,0.0,0.0,0.0,0.0,0.0,0.0,0.0,0.0,0.0,0.0,0.0,0.0,0.0,0.0,0.0,0.0,0.0,0.0,0.0,0.0,0.0,0.0,0.0,0.0,0.0,0.0,0.0,0.0,0.0,0.0,0.0,0.0,0.0,0.0,0.0,0.0,0.0,0.0,0.0,0.0,0.0,0.0,0.0,0.0,0.0,0.0,0.0,0.0,0.0,0.0,0.0,0.0,0.0,0.0,0.0,0.0,0.0,0.0,0.0,0.0,0.0,0.0,0.0,0.0,0.0,0.0,0.0,0.0,0.0,0.0,0.0,0.0,0.0,0.0,0.0,0.0,0.0,0.0,2.2002,2.2179,2.2179,2.0916,0.0,0.0,0.0,0.0,0.0,0.0,0.0,0.0,0.0,0.0,0.0,0.0,0.0,0.0,0.0,0.0,0.0,0.0,0.0,0.0,0.0,0.0,0.0,0.0,0.0,0.0,0.0,0.0,0.0,0.0,0.0,0.0,0.0,0.0,0.0,0.0,0.0,0.0,0.0,0.0,0.0,0.0,0.0,0.0,0.0,0.0,0.0,0.0,0.0,0.0,0.0,0.0,0.0,0.0,0.0,0.0,0.0,0.0,0.0,0.0,0.0,0.0,0.0,0.0,0.0,0.0,0.0,0.0,0.0,0.0,0.0,0.0,0.0,0.0,0.0,0.0,0.0,0.0,0.0,0.0,0.0,0.0,0.0,0.0,0.0,0.0,0.0,0.0,0.0,0.0,0.0,0.0,0.0,0.0,0.0,0.0,0.0,0.0,0.0,0.0,0.0,0.0,0.0,0.0,0.0,0.0,0.0,0.0,0.0,0.0,0.0,2.1688,2.1891,2.1891,0.0,1.8356,0.0,0.0,0.0,0.0,0.0,0.0,0.0,0.0,0.0,0.0,0.0,0.0,0.0,0.0,0.0,0.0,0.0,0.0,0.0,0.0,0.0,0.0,0.0,0.0,0.0,0.0,0.0,0.0,0.0,0.0,0.0,0.0,0.0,0.0,0.0,0.0,0.0,0.0,0.0,0.0,0.0,0.0,0.0,0.0,0.0,0.0,0.0,0.0,0.0,0.0,0.0,0.0,0.0,0.0,0.0,0.0,0.0,0.0,0.0,0.0,0.0,0.0,0.0,0.0,0.0,0.0,0.0,0.0,0.0,0.0,0.0,0.0,0.0,0.0,0.0,0.0,0.0,0.0,0.0,0.0,0.0,0.0,0.0,0.0,0.0,0.0,0.0,0.0,0.0,0.0,0.0,0.0,0.0,0.0,0.0,0.0,0.0,0.0,0.0,0.0,0.0,0.0,0.0,0.0,0.0,0.0,0.0,0.0,0.0,0.0,0.0,0.0,2.1369,2.0666,1.9143,0.0,0.0,0.0,0.0,0.0,0.0,0.0,0.0,0.0,0.0,0.0,0.0,0.0,0.0,0.0,0.0,0.0,0.0,0.0,0.0,0.0,0.0,0.0,0.0,0.0,0.0,0.0,0.0,0.0,0.0,0.0,0.0,0.0,0.0,0.0,0.0,0.0,0.0,0.0,0.0,0.0,0.0,0.0,0.0,0.0,0.0,0.0,0.0,0.0,0.0,0.0,0.0,0.0,0.0,0.0,0.0,0.0,0.0,0.0,0.0,0.0,0.0,0.0,0.0,0.0,0.0,0.0,0.0,0.0,0.0,0.0,0.0,0.0,0.0,0.0,0.0,0.0,0.0,0.0,0.0,0.0,0.0,0.0,0.0,0.0,0.0,0.0,0.0,0.0,0.0,0.0,0.0,0.0,0.0,0.0,0.0,0.0,0.0,0.0,0.0,0.0,0.0,0.0,0.0,0.0,0.0,0.0,0.0,0.0,0.0,2.1092,2.1154,2.1154,2.0358,1.8582,0.0,0.0,0.0,0.0,0.0,0.0,0.0,0.0,0.0,0.0,0.0,0.0,0.0,0.0,0.0,0.0,0.0,0.0,0.0,0.0,0.0,0.0,0.0,0.0,0.0,0.0,0.0,0.0,0.0,0.0,0.0,0.0,0.0,0.0,0.0,0.0,0.0,0.0,0.0,0.0,0.0,0.0,0.0,0.0,0.0,0.0,0.0,0.0,0.0,0.0,0.0,0.0,0.0,0.0,0.0,0.0,0.0,0.0,0.0,0.0,0.0,0.0,0.0,0.0,0.0,0.0,0.0,0.0,0.0,0.0,0.0,0.0,0.0,0.0,0.0,0.0,0.0,0.0,0.0,0.0,0.0,0.0,0.0,0.0,0.0,0.0,0.0,0.0,0.0,0.0,0.0,0.0,0.0,0.0,0.0,0.0,0.0,0.0,0.0,0.0,0.0,0.0,0.0,0.0,0.0,0.0,0.0,0.0,0.0,0.0,0.0,0.0,0.0,0.0,1.7803,0.0,0.0,0.0,0.0,0.0,0.0,0.0,0.0,0.0,0.0,0.0,0.0,0.0,0.0,0.0,0.0,0.0,0.0,0.0,0.0,0.0,0.0,0.0,0.0,0.0,0.0,0.0,0.0,0.0,0.0,0.0,0.0,0.0,0.0,0.0,0.0,0.0,0.0,0.0,0.0,0.0,0.0,0.0,0.0,0.0,0.0,0.0,0.0,0.0,0.0,0.0,0.0,0.0,0.0,0.0,0.0,0.0,0.0,0.0,0.0,0.0,0.0,0.0,0.0,0.0,0.0,0.0,0.0,0.0,0.0,0.0,0.0,0.0,0.0,0.0,0.0,0.0,0.0,0.0,0.0,0.0,0.0,0.0,0.0,0.0,0.0,0.0,0.0,0.0,0.0,0.0,0.0,0.0,0.0,0.0,0.0,0.0,0.0,0.0,0.0,0.0,0.0,0.0,0.0,0.0,0.0,0.0,0.0,0.0,0.0,0.0,0.0,0.0,0.0,0.0,0.0,0.0,0.0,0.0,0.0,0.0,0.0,0.0,0.0,0.0,0.0,0.0,0.0,0.0,0.0,0.0,0.0,0.0,0.0,0.0,0.0,0.0,0.0,0.0,0.0,0.0,0.0,0.0,0.0,0.0,0.0,0.0,0.0,0.0,0.0,0.0,0.0,0.0,0.0,0.0,0.0,0.0,0.0,0.0,0.0,0.0,0.0,0.0,0.0,0.0,0.0,0.0,0.0,0.0,0.0,0.0,0.0,0.0,0.0,0.0,0.0,0.0,0.0,0.0,0.0,0.0,0.0,0.0,0.0,0.0,0.0,0.0,0.0,0.0,0.0,0.0,0.0,0.0,0.0,0.0,0.0,0.0,0.0,0.0,0.0,0.0,0.0,0.0,0.0,0.0,0.0,0.0,0.0,0.0,0.0,0.0,0.0,0.0,0.0,0.0,0.0,0.0,0.0,0.0,0.0,0.0,0.0,0.0,0.0,0.0,0.0,0.0,0.0,0.0,0.0,0.0,0.0,0.0,0.0,0.0,0.0,0.0,0.0,0.0,0.0,0.0,0.0,0.0,0.0,0.0,0.0,0.0,0.0,0.0,0.0,0.0,0.0,0.0,0.0,0.0,0.0,0.0,0.0,0.0,0.0,0.0,0.0,0.0,0.0,0.0,0.0,0.0,0.0,0.0,0.0,0.0,0.0,0.0,0.0,0.0,0.0,0.0,0.0,0.0,0.0,0.0,0.0,0.0,0.0,0.0,0.0,0.0,0.0,0.0,0.0,0.0,0.0,0.0,0.0,0.0,0.0,0.0,0.0,0.0,0.0,0.0,0.0,0.0,0.0,0.0,0.0,0.0,0.0,0.0,0.0,0.0,0.0,0.0,0.0,0.0,0.0,0.0,0.0,0.0,0.0,0.0,0.0,0.0,0.0,0.0,0.0,0.0,0.0,0.0,0.0,0.0,0.0,0.0,0.0,0.0,0.0,0.0,0.0,0.0,0.0,0.0,0.0,0.0,0.0,0.0,0.0,0.0,0.0,0.0,0.0,0.0,0.0,0.0,0.0,0.0,0.0,0.0,0.0,0.0,0.0,0.0,0.0,0.0,0.0,0.0,0.0,0.0,0.0,0.0,0.0,0.0,0.0,0.0,0.0,0.0,0.0,0.0,0.0,0.0,0.0,0.0,0.0,0.0,0.0,0.0,0.0,0.0,0.0,0.0,0.0,0.0,0.0,0.0,0.0,0.0,0.0,0.0,0.0,0.0,0.0,0.0,0.0,0.0,0.0,0.0,0.0,0.0,0.0,0.0,0.0,0.0,0.0,0.0,0.0,0.0,0.0,0.0,0.0,0.0,0.0,0.0,0.0,0.0,0.0,0.0,0.0,0.0,0.0,0.0,0.0,0.0,0.0,0.0,0.0,0.0,0.0,0.0,0.0,0.0,0.0,0.0,0.0,0.0,0.0,0.0,0.0,0.0,0.0,0.0,0.0,0.0,0.0,0.0,0.0,0.0,0.0,0.0,0.0,0.0,0.0,0.0,0.0,0.0,0.0,0.0,0.0,0.0,0.0,0.0,0.0,0.0,0.0,0.0,0.0,0.0,0.0,0.0,0.0,0.0,0.0,0.0,0.0,0.0,0.0,0.0,0.0,0.0,0.0,0.0,0.0,0.0,0.0,0.0,0.0,0.0,0.0,0.0,0.0,0.0,0.0,0.0,0.0,0.0,0.0,0.0,0.0,0.0,0.0,0.0,0.0,0.0,0.0,0.0,0.0,0.0,0.0,0.0,0.0,0.0,0.0,0.0,0.0,0.0,0.0,0.0,0.0,0.0,0.0,0.0,0.0,0.0,0.0,0.0,0.0,0.0,0.0,0.0,0.0,0.0,0.0,0.0,0.0,0.0,0.0,0.0,0.0,0.0,0.0,0.0,0.0,0.0,0.0,0.0,0.0,0.0,0.0,0.0,0.0,0.0,0.0,0.0,0.0,0.0,0.0,0.0,0.0,0.0,0.0,0.0,0.0,0.0,0.0,0.0,0.0,0.0,0.0,0.0,0.0,0.0,0.0,0.0,0.0,0.0,0.0,0.0,0.0,0.0,0.0,0.0,0.0,0.0,0.0,0.0,0.0,0.0,0.0,0.0,0.0,0.0,0.0,0.0,0.0,0.0,0.0,0.0,0.0,0.0,0.0,0.0,0.0,0.0,0.0,0.0,0.0,0.0,0.0,0.0,0.0,0.0,0.0,0.0,0.0,0.0,0.0,0.0,0.0,0.0,0.0,0.0,0.0,0.0,0.0,0.0,0.0,0.0,0.0,0.0,0.0,0.0,0.0,0.0,0.0,0.0,0.0,0.0,0.0,0.0,0.0,0.0,0.0,0.0,0.0,0.0,0.0,0.0,0.0,0.0,0.0,0.0,0.0,0.0,0.0,0.0,0.0,0.0,0.0,0.0,0.0,0.0,0.0,0.0,0.0,0.0,0.0,0.0,0.0,0.0,0.0,0.0,0.0,0.0,0.0,0.0,0.0,0.0,0.0,0.0,0.0,0.0,0.0,0.0,0.0,0.0,0.0,0.0,0.0,0.0,0.0,0.0,0.0,0.0,0.0,0.0,0.0,0.0,0.0,0.0,0.0,0.0,0.0,0.0,0.0,0.0,0.0,0.0,0.0,0.0,0.0,0.0,0.0,0.0,0.0,0.0,0.0,0.0,0.0,0.0,0.0,0.0,0.0,0.0,0.0,0.0,0.0,0.0,0.0,0.0,0.0,0.0,0.0,0.0,0.0,0.0,0.0,0.0,0.0,0.0,0.0,0.0,0.0,0.0,0.0,0.0,0.0,0.0,0.0,0.0,0.0,0.0,0.0,0.0,0.0,0.0,0.0,0.0,0.0,0.0,0.0,0.0,0.0,0.0,0.0,0.0,0.0,0.0,0.0,0.0,0.0,0.0,0.0,0.0,0.0,0.0,0.0,0.0,0.0,0.0,0.0,0.0,0.0,0.0,0.0,0.0,0.0,0.0,0.0,0.0,0.0,0.0,0.0,0.0,0.0,0.0,0.0,0.0,0.0,0.0,0.0,0.0,0.0,0.0,0.0,0.0,0.0,0.0,0.0,0.0,0.0,0.0,0.0,0.0,0.0,0.0,0.0,0.0,0.0,0.0,0.0,0.0,0.0,0.0,0.0,0.0,0.0,0.0,0.0,0.0,0.0,0.0,0.0,0.0,0.0,0.0,0.0,0.0,0.0,0.0,0.0,0.0,0.0,0.0,0.0,0.0,0.0,0.0,0.0,0.0,0.0,0.0,0.0,0.0,0.0,0.0,0.0,0.0,0.0,0.0,0.0,0.0,0.0,0.0,0.0,0.0,0.0,0.0,0.0,0.0,0.0,0.0,0.0,0.0,0.0,0.0,0.0,0.0,0.0,0.0,0.0,0.0,0.0,0.0,0.0,0.0,0.0,0.0,0.0,0.0,0.0,0.0,0.0,0.0,0.0,0.0,0.0,0.0,0.0,0.0,0.0,0.0,0.0,0.0,0.0,0.0,0.0,0.0,0.0,0.0,0.0,0.0,0.0,0.0,0.0,0.0,0.0,0.0,0.0,0.0,0.0,0.0,0.0,0.0,0.0,0.0,0.0,0.0,0.0,0.0,0.0,0.0,0.0,0.0,0.0,0.0,0.0,0.0,0.0,0.0,0.0,0.0,0.0,0.0,0.0,0.0,0.0,0.0,0.0,0.0,0.0,0.0,0.0,0.0,0.0,0.0,0.0,0.0,0.0,0.0,0.0,0.0,0.0,0.0,0.0,0.0,0.0,0.0,0.0,0.0,0.0,0.0,0.0,0.0,0.0,0.0,0.0,0.0,0.0,0.0,0.0]}]]]